[[[{"header":{"parameterUnit":"kt","parameterCategory":2,"dx":1,"dy":1,"la1":29.587661999999998,"la2":31.0,"lo1":-88.76705300000003,"lo2":-86.6583820000003,"nx":115,"ny":88,"refTime":"2022-10-16T18:00:00:Z","depth":0,"parameterNumber":1,"parameterNumberName":"U-component_of_WINDS"},"data":[-1.9509,-1.9502,-1.9402,-1.9081,-1.8545,-1.7996,-1.7453,-1.6815,-1.617,-1.5416,-1.477,-1.4662,-1.5093,-1.5847,-1.5853,-1.5638,-1.5416,-1.5422,-1.532,-1.5003,-1.4452,-1.3912,-1.348,-1.3058,-1.2733,-1.2625,-1.262,-1.2945,-1.3588,-1.3588,-1.3912,-1.4651,-1.4645,-1.4489,-1.4184,-1.387,-1.363,-1.3136,-1.2666,-1.2161,-1.1804,-1.1964,-1.2129,-1.1934,-1.154,-1.1225,-1.0905,-1.0615,-1.0306,-1.0298,-1.0289,-1.0628,-1.0905,-1.1306,-1.1424,-1.1589,-1.1856,-1.1914,-1.2065,-1.2196,-1.27,-1.3158,-1.3907,-1.4543,-1.5454,-1.6396,-1.6966,-1.7392,-1.7435,-1.7596,-1.7605,-1.7584,-1.7547,-1.7746,-1.7707,-1.8073,-1.8367,-1.8502,-1.8804,-1.9269,-1.9682,-2.0617,-2.1572,-2.3137,-2.4949,-2.6504,-2.8401,-3.065,-3.2805,-3.4628,-3.642,-3.8625,-4.0865,-4.307,-4.5348,-4.8257,-5.0689,-5.3181,-5.5816,-5.8772,-6.1076,-6.2342,-6.3585,-6.4896,-6.6106,-6.7322,-6.8388,-6.9388,-6.9885,-7.0223,-7.0301,-7.0067,-6.9467,-6.8968,-6.8731,-2.1194,-2.121,-2.0784,-2.025,-1.9823,-1.9716,-1.9074,-1.8117,-1.7352,-1.6809,-1.6492,-1.7251,-1.7352,-1.7238,-1.7023,-1.6701,-1.66,-1.6707,-1.6176,-1.5745,-1.553,-1.5207,-1.4781,-1.4457,-1.4236,-1.4123,-1.4015,-1.456,-1.5201,-1.5268,-1.5674,-1.6644,-1.6729,-1.6537,-1.6259,-1.5876,-1.5164,-1.4601,-1.4075,-1.3453,-1.3608,-1.387,-1.3841,-1.3562,-1.318,-1.2406,-1.1702,-1.1238,-1.0868,-1.0873,-1.0906,-1.1326,-1.1762,-1.2262,-1.2479,-1.2803,-1.2988,-1.3013,-1.3056,-1.3359,-1.3774,-1.4289,-1.4906,-1.5739,-1.6489,-1.7324,-1.7986,-1.8358,-1.8355,-1.8474,-1.8466,-1.8419,-1.8419,-1.85,-1.825,-1.8266,-1.8359,-1.8367,-1.8858,-1.9283,-2.0013,-2.0693,-2.1869,-2.3196,-2.4768,-2.6241,-2.8237,-3.0642,-3.2955,-3.4886,-3.7103,-3.9411,-4.1686,-4.3757,-4.5817,-4.8191,-5.0395,-5.2932,-5.5399,-5.8646,-6.1327,-6.2562,-6.3837,-6.5145,-6.6376,-6.7509,-6.8573,-6.9624,-7.0196,-7.0611,-7.0533,-7.0378,-6.9885,-6.9545,-6.9205,-2.2686,-2.2598,-2.2279,-2.1955,-2.1423,-2.0997,-2.0463,-1.9723,-1.9067,-1.896,-1.9388,-1.9502,-1.9502,-1.9281,-1.896,-1.8646,-1.8538,-1.811,-1.7573,-1.7258,-1.7043,-1.6714,-1.6385,-1.617,-1.5949,-1.5949,-1.5949,-1.6158,-1.689,-1.6933,-1.7009,-1.7681,-1.7656,-1.7421,-1.7301,-1.7027,-1.6488,-1.592,-1.5503,-1.5341,-1.5618,-1.5351,-1.5171,-1.4916,-1.438,-1.3583,-1.2919,-1.2432,-1.1997,-1.1812,-1.1812,-1.2282,-1.3042,-1.3505,-1.3935,-1.4248,-1.4379,-1.4603,-1.4759,-1.504,-1.5415,-1.575,-1.6408,-1.6786,-1.7628,-1.8096,-1.8727,-1.8621,-1.8698,-1.8731,-1.8715,-1.8804,-1.8804,-1.882,-1.8589,-1.8467,-1.8402,-1.8536,-1.908,-1.969,-2.0476,-2.1255,-2.2434,-2.3762,-2.5168,-2.6742,-2.8805,-3.1169,-3.3356,-3.5398,-3.7994,-4.0412,-4.2725,-4.48,-4.6575,-4.8447,-5.047,-5.2546,-5.4882,-5.7763,-6.0289,-6.2144,-6.3896,-6.5145,-6.6376,-6.7589,-6.881,-6.9858,-7.0533,-7.0997,-7.092,-7.0792,-7.0533,-7.0223,-7.048,-2.4064,-2.4008,-2.4009,-2.3654,-2.3124,-2.2585,-2.2053,-2.1415,-2.121,-2.1636,-2.216,-2.1734,-2.1308,-2.121,-2.0784,-2.0463,-2.0258,-1.9823,-1.9295,-1.8974,-1.8867,-1.8531,-1.8203,-1.8203,-1.8096,-1.7989,-1.7996,-1.8103,-1.8155,-1.8257,-1.8366,-1.8761,-1.8467,-1.8346,-1.8139,-1.7954,-1.7505,-1.6861,-1.6769,-1.7036,-1.7017,-1.6691,-1.6231,-1.5932,-1.5394,-1.4702,-1.4118,-1.3639,-1.3252,-1.286,-1.2872,-1.3517,-1.4624,-1.5045,-1.5495,-1.5851,-1.6005,-1.598,-1.6119,-1.6292,-1.6646,-1.6991,-1.7472,-1.806,-1.8533,-1.8865,-1.9031,-1.8753,-1.8715,-1.8812,-1.8812,-1.8908,-1.8884,-1.8938,-1.8872,-1.8685,-1.8499,-1.8867,-1.9339,-2.019,-2.1053,-2.2083,-2.3174,-2.4508,-2.5921,-2.7595,-2.9547,-3.1563,-3.3635,-3.5754,-3.8289,-4.1234,-4.3598,-4.5402,-4.7225,-4.9068,-5.0751,-5.2838,-5.4737,-5.6749,-5.9008,-6.1167,-6.322,-6.4765,-6.6351,-6.7589,-6.881,-6.9936,-7.0816,-7.1353,-7.138,-7.1281,-7.1127,-7.1304,-7.1707,-2.5707,-2.5654,-2.5696,-2.5326,-2.4933,-2.4712,-2.4078,-2.3327,-2.4078,-2.4721,-2.4404,-2.3548,-2.3115,-2.3018,-2.2593,-2.2062,-2.1849,-2.153,-2.1103,-2.0677,-2.0677,-2.057,-2.0456,-2.0456,-2.0029,-1.9823,-1.9693,-1.9505,-1.927,-1.9177,-1.9325,-1.9672,-1.9334,-1.9039,-1.8816,-1.8645,-1.8238,-1.782,-1.7967,-1.805,-1.7937,-1.7596,-1.7203,-1.6833,-1.6321,-1.5686,-1.5131,-1.4748,-1.4491,-1.4054,-1.4025,-1.4594,-1.551,-1.6191,-1.6751,-1.6983,-1.7026,-1.7076,-1.7162,-1.7327,-1.7548,-1.787,-1.8339,-1.8458,-1.8575,-1.8797,-1.8994,-1.8827,-1.89,-1.9004,-1.9291,-1.9379,-1.9571,-1.9766,-1.9625,-1.9373,-1.9313,-1.9573,-2.0098,-2.1017,-2.1877,-2.2955,-2.4046,-2.499,-2.6401,-2.8026,-2.9854,-3.1835,-3.3858,-3.5872,-3.8708,-4.1922,-4.382,-4.5527,-4.7397,-4.9335,-5.1072,-5.2728,-5.4492,-5.6463,-5.8361,-6.0414,-6.2532,-6.4444,-6.6255,-6.7461,-6.8863,-6.9936,-7.0893,-7.1506,-7.1762,-7.1767,-7.2072,-7.2471,-7.2866,-2.7219,-2.7395,-2.7186,-2.6897,-2.6464,-2.5882,-2.5566,-2.5461,-2.5777,-2.5777,-2.5461,-2.5029,-2.4827,-2.4818,-2.4289,-2.3972,-2.3645,-2.3327,-2.3018,-2.2691,-2.2478,-2.2381,-2.2168,-2.1947,-2.1726,-2.1537,-2.1252,-2.092,-2.0831,-2.0593,-2.0227,-2.0306,-1.9674,-1.9438,-1.9277,-1.9092,-1.8708,-1.8836,-1.8795,-1.8705,-1.8415,-1.8026,-1.794,-1.7771,-1.7536,-1.6987,-1.6499,-1.6405,-1.6084,-1.5751,-1.5658,-1.6101,-1.6758,-1.7174,-1.751,-1.8012,-1.8035,-1.8027,-1.8043,-1.8195,-1.8218,-1.8368,-1.8535,-1.8656,-1.8703,-1.8826,-1.8955,-1.9091,-1.9187,-1.9283,-1.9667,-1.9954,-2.0328,-2.071,-2.0489,-2.0266,-2.0326,-2.0411,-2.1079,-2.1943,-2.2884,-2.389,-2.4801,-2.5837,-2.7023,-2.8089,-2.9683,-3.1688,-3.3694,-3.5513,-3.83,-4.1588,-4.3606,-4.5448,-4.7688,-4.9642,-5.1207,-5.2747,-5.4393,-5.602,-5.7865,-5.9788,-6.1566,-6.3684,-6.5851,-6.7783,-6.9336,-7.0247,-7.1047,-7.1604,-7.1983,-7.2107,-7.2428,-7.3007,-7.3655,-2.8886,-2.9227,-2.866,-2.8389,-2.8254,-2.7438,-2.7144,-2.7365,-2.7354,-2.7144,-2.6819,-2.6609,-2.6619,-2.6504,-2.6083,-2.5863,-2.5547,-2.5336,-2.5019,-2.4712,-2.4501,-2.4183,-2.3866,-2.353,-2.3142,-2.2799,-2.2398,-2.1915,-2.1761,-2.1306,-2.0946,-2.0854,-2.0122,-1.9837,-1.9604,-1.9483,-1.9475,-1.9496,-1.9326,-1.9102,-1.8804,-1.8397,-1.8178,-1.816,-1.7933,-1.778,-1.7457,-1.7449,-1.7269,-1.7099,-1.7233,-1.7447,-1.8078,-1.8248,-1.8399,-1.9011,-1.9099,-1.8996,-1.89,-1.89,-1.8731,-1.8667,-1.9052,-1.9004,-1.9099,-1.9299,-1.9395,-1.9667,-1.9858,-2.0241,-2.0623,-2.0996,-2.1473,-2.1826,-2.2075,-2.197,-2.1956,-2.2073,-2.2436,-2.3288,-2.3957,-2.4937,-2.5606,-2.651,-2.7165,-2.7955,-2.9226,-3.1217,-3.3122,-3.4751,-3.733,-4.068,-4.2939,-4.4911,-4.7143,-4.9279,-5.0978,-5.2596,-5.4006,-5.5551,-5.7335,-5.896,-6.0559,-6.2516,-6.4783,-6.6979,-6.9176,-7.0453,-7.1173,-7.1756,-7.1764,-7.2219,-7.2775,-7.3487,-7.4186,-3.0876,-3.077,-3.0335,-3.0014,-3.0037,-2.9933,-2.9632,-2.9122,-2.9029,-2.9029,-2.9018,-2.8485,-2.8287,-2.8171,-2.7857,-2.7637,-2.7533,-2.7438,-2.7124,-2.6714,-2.6399,-2.5919,-2.5613,-2.5039,-2.4298,-2.3593,-2.3056,-2.2675,-2.2048,-2.1974,-2.1624,-2.112,-2.0754,-2.0727,-2.0814,-2.0814,-2.0814,-2.0519,-2.0164,-1.9861,-1.9583,-1.9018,-1.8831,-1.8777,-1.8677,-1.8513,-1.8419,-1.8352,-1.8276,-1.8234,-1.8414,-1.8712,-1.9088,-1.9447,-1.972,-2.0018,-2.0041,-1.9762,-1.9475,-1.9475,-1.9283,-1.9379,-1.9771,-2.0049,-2.0137,-2.0145,-2.0336,-2.0528,-2.0814,-2.1196,-2.1673,-2.2149,-2.2624,-2.3154,-2.3577,-2.3709,-2.3651,-2.3991,-2.4238,-2.4724,-2.5415,-2.596,-2.672,-2.6969,-2.7603,-2.8296,-2.9252,-3.1073,-3.2507,-3.4095,-3.6546,-3.9902,-4.2332,-4.4311,-4.635,-4.8434,-5.0255,-5.2173,-5.3629,-5.5132,-5.67,-5.832,-5.9945,-6.1737,-6.3801,-6.579,-6.7917,-6.9547,-7.0709,-7.1143,-7.0978,-7.1179,-7.0704,-7.2093,-7.285,-3.2735,-3.2962,-3.2035,-3.1695,-3.1591,-3.1695,-3.1488,-3.1293,-3.0579,-3.0268,-3.0256,-3.0152,-3.0048,-3.0048,-2.984,-2.9725,-2.9736,-2.9424,-2.9007,-2.8903,-2.8171,-2.7323,-2.6536,-2.5917,-2.5185,-2.4325,-2.3765,-2.3466,-2.3159,-2.3237,-2.2977,-2.2462,-2.2053,-2.2244,-2.2614,-2.2709,-2.2624,-2.1847,-2.1391,-2.1061,-2.0813,-2.0381,-2.0087,-2.0083,-1.9963,-1.9803,-1.986,-1.9888,-1.9878,-1.9797,-1.9871,-2.0084,-2.023,-2.0394,-2.0308,-2.0493,-2.0528,-2.0137,-2.0145,-2.0137,-2.0519,-2.0623,-2.0901,-2.1187,-2.1187,-2.1378,-2.1482,-2.1673,-2.1958,-2.2529,-2.3098,-2.3288,-2.3856,-2.4697,-2.5125,-2.5584,-2.5784,-2.6238,-2.6573,-2.6595,-2.7116,-2.7408,-2.7851,-2.7977,-2.8138,-2.874,-2.9277,-3.0541,-3.1967,-3.3743,-3.5905,-3.8987,-4.1585,-4.3567,-4.5537,-4.7606,-4.9603,-5.1639,-5.3259,-5.4731,-5.6239,-5.7633,-5.9322,-6.1052,-6.2773,-6.4531,-6.6629,-6.7847,-6.8417,-6.8958,-6.9261,-6.9176,-6.8999,-6.9347,-6.9809,-3.4447,-3.4688,-3.3767,-3.3561,-3.3869,-3.3561,-3.324,-3.315,-3.2429,-3.2017,-3.2017,-3.2017,-3.2017,-3.2005,-3.2005,-3.1913,-3.1671,-3.1222,-3.0529,-3.0266,-2.9319,-2.8302,-2.7438,-2.6772,-2.608,-2.5182,-2.4624,-2.4434,-2.4416,-2.446,-2.4266,-2.413,-2.3846,-2.4235,-2.498,-2.4791,-2.4329,-2.3493,-2.2978,-2.2702,-2.2643,-2.2081,-2.1842,-2.2007,-2.1583,-2.1378,-2.1388,-2.1158,-2.1169,-2.11,-2.13,-2.1379,-2.1575,-2.1747,-2.1605,-2.1676,-2.1577,-2.1282,-2.1282,-2.1759,-2.2139,-2.2519,-2.2899,-2.2899,-2.2804,-2.2804,-2.2994,-2.3278,-2.3572,-2.4036,-2.4697,-2.4885,-2.5367,-2.6108,-2.6671,-2.7221,-2.7595,-2.8073,-2.8446,-2.8446,-2.8364,-2.8563,-2.8543,-2.8482,-2.9009,-2.9663,-2.9747,-3.0731,-3.2259,-3.3887,-3.5481,-3.8413,-4.0751,-4.2782,-4.474,-4.6593,-4.855,-5.058,-5.2375,-5.3957,-5.5532,-5.6983,-5.8412,-5.9402,-6.1318,-6.3122,-6.4298,-6.5316,-6.5975,-6.6282,-6.6301,-6.6211,-6.6274,-6.6574,-6.7073,-3.5797,-3.5722,-3.5212,-3.5647,-3.6374,-3.5443,-3.5021,-3.4817,-3.4381,-3.4074,-3.4074,-3.4074,-3.4074,-3.4074,-3.3972,-3.369,-3.3281,-3.2609,-3.1967,-3.1065,-3.0287,-2.9349,-2.8541,-2.7771,-2.7189,-2.6342,-2.5849,-2.5625,-2.5526,-2.5765,-2.566,-2.5555,-2.5921,-2.6484,-2.7606,-2.6847,-2.5816,-2.501,-2.4547,-2.4389,-2.4273,-2.3994,-2.374,-2.3666,-2.3253,-2.2961,-2.2863,-2.2697,-2.2524,-2.2528,-2.2729,-2.2797,-2.284,-2.3052,-2.32,-2.3278,-2.3288,-2.3278,-2.3373,-2.4329,-2.4707,-2.4896,-2.4896,-2.4896,-2.4906,-2.4906,-2.499,-2.5074,-2.5273,-2.5722,-2.6191,-2.6742,-2.7128,-2.77,-2.8259,-2.8725,-2.9003,-2.9375,-2.9653,-2.9838,-2.9572,-2.943,-2.9277,-2.9288,-3.008,-3.0195,-3.0247,-3.1177,-3.2727,-3.4281,-3.5537,-3.79,-3.988,-4.179,-4.3684,-4.5558,-4.7507,-4.9422,-5.1294,-5.2969,-5.4548,-5.6055,-5.7119,-5.7839,-5.9467,-6.1187,-6.2071,-6.2819,-6.2512,-6.2474,-6.2799,-6.3418,-6.3584,-6.3884,-6.4473,-3.6955,-3.6955,-3.6461,-3.6678,-3.7172,-3.6577,-3.6272,-3.6055,-3.5606,-3.5301,-3.5301,-3.5301,-3.5301,-3.5301,-3.5274,-3.5025,-3.445,-3.3758,-3.2887,-3.2086,-3.1207,-3.0216,-2.9393,-2.8816,-2.8352,-2.7566,-2.7145,-2.7063,-2.7139,-2.7431,-2.7525,-2.77,-2.834,-2.8805,-2.9177,-2.834,-2.7606,-2.7034,-2.677,-2.6725,-2.6541,-2.6167,-2.5906,-2.5872,-2.5153,-2.4875,-2.4697,-2.4361,-2.41,-2.4142,-2.4241,-2.4289,-2.4332,-2.4331,-2.4414,-2.4434,-2.4434,-2.4424,-2.4801,-2.5743,-2.6858,-2.6858,-2.687,-2.687,-2.6963,-2.6963,-2.6776,-2.6858,-2.6952,-2.7326,-2.7793,-2.8073,-2.8539,-2.9177,-2.9745,-3.0035,-3.0392,-3.0577,-3.0867,-3.1051,-3.1235,-3.113,-3.0972,-3.0893,-3.1225,-3.0999,-3.1155,-3.1982,-3.333,-3.4563,-3.5815,-3.7519,-3.9277,-4.0961,-4.2603,-4.4591,-4.6548,-4.8451,-5.0198,-5.182,-5.3567,-5.5098,-5.6287,-5.6983,-5.7925,-5.9228,-6.014,-6.0911,-6.0234,-5.9201,-5.9753,-6.0691,-6.1055,-6.2122,-6.2537,-3.7764,-3.7764,-3.7663,-3.7865,-3.8053,-3.7764,-3.7663,-3.7562,-3.7231,-3.7014,-3.7014,-3.6826,-3.6623,-3.6351,-3.6226,-3.5766,-3.5237,-3.4348,-3.346,-3.2768,-3.2095,-3.1239,-3.06,-3.0078,-2.9816,-2.9182,-2.891,-2.8898,-2.891,-2.9189,-2.9294,-2.9943,-3.0682,-3.1038,-3.0749,-3.0103,-2.9362,-2.8793,-2.8446,-2.8352,-2.8293,-2.8017,-2.7977,-2.8057,-2.7298,-2.689,-2.6921,-2.638,-2.611,-2.6039,-2.6025,-2.6019,-2.6136,-2.6075,-2.6119,-2.6119,-2.6119,-2.6108,-2.6401,-2.7501,-2.8446,-2.8446,-2.8352,-2.8364,-2.8271,-2.8364,-2.8364,-2.8458,-2.8551,-2.8818,-2.9282,-2.956,-2.9838,-3.0577,-3.113,-3.1406,-3.1603,-3.1695,-3.1879,-3.1682,-3.2062,-3.2337,-3.2337,-3.2337,-3.2109,-3.1783,-3.2186,-3.2681,-3.3808,-3.4877,-3.6221,-3.7768,-3.9201,-4.0866,-4.2328,-4.388,-4.5545,-4.7291,-4.9032,-5.0744,-5.247,-5.4073,-5.5128,-5.5965,-5.6856,-5.7614,-5.8391,-5.9085,-5.9149,-5.8676,-5.8549,-5.8721,-5.9463,-6.0479,-6.2236,-3.8456,-3.8542,-3.8944,-3.9144,-3.9144,-3.9245,-3.9144,-3.8944,-3.9044,-3.8944,-3.8628,-3.8527,-3.7909,-3.7449,-3.6935,-3.6424,-3.5692,-3.452,-3.3846,-3.3234,-3.2664,-3.2224,-3.1815,-3.1591,-3.1354,-3.0933,-3.0946,-3.0854,-3.0946,-3.1222,-3.2062,-3.29,-3.2703,-3.252,-3.2245,-3.176,-3.1104,-3.0392,-2.9943,-2.9758,-2.9653,-2.9628,-2.9775,-2.9854,-2.9337,-2.8991,-2.9417,-2.8474,-2.8035,-2.8023,-2.8035,-2.8049,-2.8037,-2.7968,-2.798,-2.798,-2.798,-2.8166,-2.8446,-2.9455,-2.9838,-2.9665,-2.9678,-2.9758,-2.9758,-2.9678,-2.9585,-2.977,-3.0023,-3.0392,-3.0761,-3.1222,-3.1406,-3.1865,-3.2062,-3.2337,-3.2415,-3.2612,-3.2612,-3.2415,-3.2415,-3.2689,-3.2703,-3.316,-3.3081,-3.2691,-3.3039,-3.333,-3.4352,-3.5285,-3.661,-3.7768,-3.922,-4.0656,-4.2094,-4.3661,-4.5251,-4.6953,-4.8389,-4.9974,-5.1588,-5.2473,-5.3611,-5.4568,-5.5759,-5.6138,-5.6593,-5.7814,-5.8505,-5.8125,-5.821,-5.8797,-5.9501,-6.0256,-6.2097,-3.9545,-4.0559,-4.0344,-4.0245,-4.026,-4.026,-4.006,-3.966,-3.9675,-3.946,-3.9144,-3.9029,-3.8578,-3.7967,-3.7717,-3.6922,-3.6039,-3.5739,-3.496,-3.4338,-3.3883,-3.351,-3.3223,-3.3132,-3.3041,-3.2949,-3.2872,-3.2949,-3.3132,-3.3601,-3.407,-3.4615,-3.4343,-3.4161,-3.3888,-3.3328,-3.2781,-3.2154,-3.1695,-3.1511,-3.1419,-3.1419,-3.1498,-3.1393,-3.1196,-3.0828,-3.0828,-3.0287,-2.993,-2.993,-2.993,-2.9838,-2.9825,-2.9838,-2.9838,-2.9838,-2.993,-3.0208,-3.0761,-3.113,-3.1498,-3.159,-3.1603,-3.1235,-3.134,-3.1511,-3.1511,-3.1327,-3.159,-3.1682,-3.1865,-3.2049,-3.2506,-3.2795,-3.2977,-3.3069,-3.3237,-3.3328,-3.3328,-3.3328,-3.3328,-3.3328,-3.351,-3.4056,-3.403,-3.3612,-3.3761,-3.4082,-3.4852,-3.5727,-3.6919,-3.7939,-3.9296,-4.0656,-4.2074,-4.3494,-4.5093,-4.659,-4.7885,-4.9298,-5.0775,-5.1828,-5.2837,-5.3809,-5.4968,-5.5631,-5.6537,-5.7184,-5.7883,-5.8269,-5.8626,-5.9039,-5.9565,-6.0315,-6.1606,-4.1621,-4.2329,-4.2033,-4.2033,-4.1934,-4.1934,-4.1637,-4.124,-4.1156,-4.0842,-4.0429,-4.0229,-3.9779,-3.8913,-3.7796,-3.7103,-3.649,-3.581,-3.5301,-3.4764,-3.4734,-3.4705,-3.4585,-3.4676,-3.4766,-3.4766,-3.4766,-3.4766,-3.5503,-3.5969,-3.6149,-3.6059,-3.5699,-3.5428,-3.5067,-3.46,-3.407,-3.3721,-3.3356,-3.2991,-3.2717,-3.2625,-3.2625,-3.2534,-3.2035,-3.1957,-3.1957,-3.1695,-3.1406,-3.1419,-3.1406,-3.1406,-3.1419,-3.1419,-3.1406,-3.1419,-3.1773,-3.2154,-3.252,-3.2534,-3.2337,-3.2337,-3.2245,-3.2337,-3.2245,-3.2245,-3.2245,-3.2625,-3.2795,-3.2977,-3.316,-3.3328,-3.3707,-3.3888,-3.407,-3.4252,-3.4237,-3.4328,-3.4132,-3.4223,-3.4328,-3.4328,-3.4419,-3.4708,-3.4638,-3.4279,-3.429,-3.4546,-3.5236,-3.6012,-3.6919,-3.8093,-3.9448,-4.0806,-4.2148,-4.3421,-4.5021,-4.6594,-4.7887,-4.8973,-5.025,-5.1552,-5.2728,-5.3811,-5.481,-5.573,-5.6572,-5.7367,-5.815,-5.8626,-5.9067,-5.9651,-6.0171,-6.0828,-6.1253,-4.4081,-4.4065,-4.4081,-4.4081,-4.4081,-4.3984,-4.369,-4.3199,-4.3101,-4.2806,-4.2214,-4.1806,-4.113,-4.021,-3.8281,-3.7171,-3.6743,-3.6303,-3.5864,-3.5819,-3.5804,-3.5969,-3.6133,-3.6223,-3.6492,-3.6492,-3.6403,-3.7135,-3.776,-3.767,-3.7581,-3.7387,-3.6851,-3.6298,-3.6418,-3.5864,-3.5263,-3.481,-3.4615,-3.4175,-3.363,-3.3447,-3.337,-3.3265,-3.3069,-3.2977,-3.3251,-3.29,-3.2598,-3.252,-3.252,-3.2415,-3.2415,-3.2415,-3.2415,-3.2781,-3.3237,-3.3692,-3.3433,-3.3447,-3.3342,-3.3069,-3.2886,-3.2703,-3.2886,-3.2963,-3.3069,-3.3279,-3.3616,-3.3965,-3.4343,-3.4796,-3.5067,-3.4977,-3.4886,-3.4977,-3.5067,-3.4781,-3.4781,-3.4871,-3.5594,-3.5594,-3.5594,-3.5428,-3.5262,-3.4995,-3.4742,-3.5076,-3.5457,-3.6036,-3.6765,-3.8305,-3.9675,-4.1105,-4.2464,-4.3401,-4.4999,-4.6736,-4.7817,-4.8835,-5.0294,-5.1819,-5.2875,-5.3888,-5.4911,-5.5917,-5.6879,-5.7669,-5.8389,-5.9039,-5.9651,-6.0171,-6.0771,-6.1081,-6.1417,-4.622,-4.622,-4.622,-4.622,-4.6123,-4.5736,-4.5348,-4.4862,-4.4374,-4.3984,-4.3411,-4.2754,-4.2313,-4.1581,-4.0115,-3.8551,-3.7803,-3.765,-3.7434,-3.7434,-3.7434,-3.7524,-3.7775,-3.7954,-3.8027,-3.7938,-3.8116,-3.8737,-3.9532,-3.9356,-3.9074,-3.8897,-3.8471,-3.8116,-3.7922,-3.7298,-3.6956,-3.6492,-3.6133,-3.5594,-3.5323,-3.4962,-3.4705,-3.4705,-3.4705,-3.46,-3.4615,-3.4175,-3.3979,-3.3783,-3.3601,-3.3314,-3.3328,-3.3328,-3.3783,-3.4419,-3.4705,-3.4796,-3.4661,-3.4617,-3.441,-3.4201,-3.4542,-3.4571,-3.4466,-3.4317,-3.4466,-3.4705,-3.4886,-3.4977,-3.5263,-3.5263,-3.5248,-3.5338,-3.5338,-3.5248,-3.5428,-3.5518,-3.5609,-3.6149,-3.6882,-3.7224,-3.7313,-3.714,-3.6589,-3.6236,-3.595,-3.6167,-3.6206,-3.6506,-3.7151,-3.8687,-3.9902,-4.1255,-4.2592,-4.362,-4.5071,-4.6807,-4.7956,-4.9041,-5.0497,-5.2018,-5.298,-5.4017,-5.5101,-5.6228,-5.7184,-5.809,-5.8772,-5.9477,-6.0114,-6.0685,-6.1081,-6.1473,-6.1862,-4.7603,-4.7585,-4.7585,-4.7603,-4.7585,-4.7297,-4.6912,-4.6413,-4.6105,-4.5527,-4.4762,-4.421,-4.3695,-4.2779,-4.1543,-4.0289,-3.9361,-3.8947,-3.8769,-3.8769,-3.8769,-3.8858,-3.9196,-3.9267,-3.9356,-3.9692,-4.0324,-4.1024,-4.1112,-4.0849,-4.0849,-4.0587,-4.006,-3.9692,-3.9499,-3.8809,-3.8471,-3.8204,-3.7744,-3.7298,-3.7193,-3.6582,-3.6059,-3.5954,-3.5774,-3.5774,-3.5609,-3.5233,-3.5052,-3.4796,-3.4524,-3.4419,-3.4407,-3.4531,-3.4831,-3.5126,-3.4958,-3.472,-3.4735,-3.4837,-3.4868,-3.4868,-3.472,-3.4958,-3.5273,-3.5425,-3.5426,-3.5743,-3.5969,-3.6328,-3.6523,-3.6703,-3.6613,-3.6613,-3.6613,-3.6718,-3.6628,-3.6628,-3.7061,-3.7581,-3.8204,-3.8648,-3.8825,-3.8471,-3.7949,-3.7528,-3.7229,-3.7162,-3.7155,-3.746,-3.7863,-3.901,-3.9827,-4.133,-4.2887,-4.3912,-4.5237,-4.6878,-4.8188,-4.9316,-5.0699,-5.2126,-5.3176,-5.4248,-5.539,-5.6599,-5.7515,-5.8416,-5.9126,-5.9796,-6.0458,-6.1081,-6.1473,-6.1917,-6.2411,-4.8939,-4.8939,-4.8939,-4.8939,-4.8939,-4.8844,-4.854,-4.8159,-4.7862,-4.7101,-4.6147,-4.573,-4.4798,-4.3776,-4.3045,-4.1984,-4.0882,-4.0324,-4.006,-3.9972,-4.006,-4.0165,-4.0499,-4.0762,-4.1094,-4.1686,-4.2484,-4.2848,-4.2761,-4.2589,-4.2502,-4.2329,-4.1634,-4.1181,-4.092,-4.0394,-3.9972,-3.9884,-3.9339,-3.8986,-3.8809,-3.8188,-3.7492,-3.7224,-3.7224,-3.6956,-3.6672,-3.6387,-3.6028,-3.5594,-3.5518,-3.5458,-3.5541,-3.5727,-3.5873,-3.5834,-3.5505,-3.5333,-3.5232,-3.5022,-3.496,-3.4829,-3.5054,-3.5388,-3.567,-3.5944,-3.6203,-3.6596,-3.7081,-3.7705,-3.8293,-3.8237,-3.8237,-3.8237,-3.8237,-3.8237,-3.8326,-3.8576,-3.9091,-3.9516,-3.9708,-4.006,-3.9928,-3.9659,-3.9235,-3.885,-3.8499,-3.8341,-3.8333,-3.8611,-3.8934,-3.9467,-4.0072,-4.1628,-4.316,-4.4276,-4.5596,-4.7301,-4.8466,-4.9682,-5.0877,-5.2258,-5.3566,-5.4758,-5.5891,-5.6906,-5.7757,-5.8595,-5.936,-6.0113,-6.0771,-6.1473,-6.1597,-6.1799,-6.2427,-5.1036,-5.1036,-5.1017,-5.1017,-5.0942,-5.0547,-5.0246,-5.0018,-4.9017,-4.8251,-4.7913,-4.626,-4.5561,-4.4866,-4.3634,-4.296,-4.2433,-4.2069,-4.1808,-4.1721,-4.1721,-4.1895,-4.2069,-4.2502,-4.3193,-4.4203,-4.4478,-4.4564,-4.4308,-4.4137,-4.3965,-4.3794,-4.3106,-4.2761,-4.2502,-4.2087,-4.1721,-4.1634,-4.092,-4.0553,-4.0394,-3.9604,-3.9179,-3.9002,-3.9002,-3.8737,-3.8277,-3.7922,-3.7534,-3.703,-3.6598,-3.658,-3.6754,-3.6827,-3.6894,-3.6894,-3.6681,-3.6417,-3.6384,-3.6483,-3.6515,-3.6746,-3.6697,-3.6779,-3.6845,-3.6927,-3.7058,-3.7305,-3.7785,-3.8468,-3.9185,-3.9356,-3.9356,-3.9372,-3.9267,-3.9284,-3.9532,-4.0674,-4.1373,-4.1808,-4.1808,-4.1808,-4.1544,-4.0944,-4.0525,-4.0143,-3.9756,-3.9546,-3.9651,-3.9921,-4.0223,-4.075,-4.1125,-4.237,-4.3547,-4.4711,-4.631,-4.7792,-4.8835,-4.9954,-5.1078,-5.2562,-5.3953,-5.5138,-5.6236,-5.7272,-5.8118,-5.8949,-5.9622,-6.0286,-6.091,-6.1341,-6.1567,-6.17,-6.2409,-5.1505,-5.1505,-5.1505,-5.1505,-5.1505,-5.1204,-5.0858,-5.0319,-4.9671,-4.8963,-4.7968,-4.7188,-4.6323,-4.5779,-4.4923,-4.4393,-4.4241,-4.388,-4.3604,-4.3604,-4.3604,-4.3604,-4.3794,-4.4649,-4.5348,-4.5856,-4.5837,-4.5668,-4.5583,-4.5414,-4.5329,-4.5244,-4.4753,-4.4393,-4.4326,-4.388,-4.3537,-4.3193,-4.2657,-4.2138,-4.1878,-4.1286,-4.0849,-4.0937,-4.0849,-4.057,-3.9939,-3.9675,-3.8931,-3.8236,-3.8101,-3.8286,-3.846,-3.8195,-3.7988,-3.7868,-3.7643,-3.735,-3.735,-3.735,-3.735,-3.7316,-3.7333,-3.7557,-3.7868,-3.7971,-3.8126,-3.844,-3.8801,-3.93,-4.0211,-4.0591,-4.092,-4.0937,-4.092,-4.0937,-4.1199,-4.2484,-4.3604,-4.3604,-4.3622,-4.3622,-4.3162,-4.2344,-4.1888,-4.1598,-4.1194,-4.0643,-4.0825,-4.118,-4.1553,-4.1851,-4.2242,-4.2887,-4.4058,-4.5431,-4.7019,-4.8141,-4.9226,-5.0362,-5.144,-5.2844,-5.4209,-5.54,-5.6464,-5.7494,-5.8004,-5.9271,-5.9998,-6.0254,-6.0575,-6.1114,-6.1313,-6.099,-6.149,-5.2138,-5.2138,-5.2138,-5.2059,-5.188,-5.188,-5.1366,-5.0554,-5.0336,-4.9445,-4.8455,-4.7867,-4.7374,-4.6782,-4.6278,-4.6025,-4.5856,-4.5518,-4.5244,-4.5225,-4.5329,-4.5498,-4.607,-4.6762,-4.7368,-4.7348,-4.7014,-4.693,-4.6846,-4.6826,-4.6743,-4.6659,-4.6258,-4.609,-4.594,-4.5518,-4.5159,-4.4734,-4.4222,-4.3794,-4.3451,-4.302,-4.2761,-4.2761,-4.2761,-4.224,-4.1406,-4.0919,-4.0124,-3.9466,-3.9503,-3.9713,-3.9524,-3.893,-3.863,-3.8431,-3.7908,-3.7457,-3.7457,-3.7457,-3.7475,-3.7457,-3.7493,-3.7818,-3.8575,-3.8648,-3.893,-3.9578,-3.9938,-4.0262,-4.0939,-4.1877,-4.2328,-4.2473,-4.2599,-4.2934,-4.3518,-4.4696,-4.5375,-4.546,-4.546,-4.546,-4.5383,-4.4121,-4.3336,-4.303,-4.2492,-4.1905,-4.2074,-4.2518,-4.2813,-4.3034,-4.3474,-4.4058,-4.5143,-4.6075,-4.7489,-4.8605,-4.9682,-5.081,-5.1827,-5.3032,-5.3666,-5.4908,-5.6372,-5.6943,-5.7239,-5.8348,-5.9083,-5.9715,-6.0158,-6.0524,-6.063,-6.0175,-6.0228,-5.4149,-5.4149,-5.4149,-5.3605,-5.2928,-5.2886,-5.2284,-5.149,-5.0705,-5.0172,-4.9762,-4.8815,-4.8239,-4.818,-4.7558,-4.7245,-4.695,-4.6866,-4.653,-4.6426,-4.6678,-4.7431,-4.8222,-4.8635,-4.8717,-4.8717,-4.8738,-4.8656,-4.849,-4.8242,-4.8159,-4.8077,-4.7641,-4.7328,-4.7117,-4.695,-4.653,-4.6174,-4.5752,-4.5414,-4.5244,-4.4885,-4.4611,-4.4611,-4.4592,-4.3774,-4.2442,-4.1249,-4.0596,-4.0863,-4.0969,-4.0617,-3.994,-3.9148,-3.8771,-3.8601,-3.8039,-3.755,-3.7418,-3.7588,-3.7475,-3.755,-3.7531,-3.7719,-3.8545,-3.8828,-3.9167,-3.9996,-4.0636,-4.0972,-4.154,-4.2652,-4.3387,-4.3745,-4.4281,-4.5364,-4.6619,-4.7205,-4.7371,-4.7371,-4.7351,-4.7351,-4.6951,-4.603,-4.479,-4.4347,-4.3896,-4.3406,-4.3453,-4.3985,-4.4348,-4.4421,-4.4855,-4.5359,-4.6075,-4.6807,-4.7956,-4.9133,-5.025,-5.1339,-5.2402,-5.3177,-5.3426,-5.3884,-5.5183,-5.6,-5.6571,-5.7121,-5.7598,-5.8286,-5.8996,-5.9556,-5.9974,-5.9442,-5.9251,-5.4678,-5.4446,-5.4356,-5.3832,-5.3015,-5.2973,-5.247,-5.1674,-5.1277,-5.0878,-5.0249,-4.948,-4.9067,-4.9067,-4.8635,-4.8325,-4.8159,-4.8159,-4.7994,-4.7911,-4.8077,-4.8903,-4.9866,-5.011,-5.011,-5.0089,-4.9887,-4.9847,-4.9744,-4.9581,-4.9499,-4.9499,-4.9314,-4.9088,-4.8862,-4.8697,-4.8345,-4.7828,-4.7495,-4.7077,-4.6826,-4.6639,-4.6452,-4.6393,-4.5858,-4.5297,-4.4294,-4.2739,-4.1572,-4.117,-4.1039,-4.0721,-3.9897,-3.9426,-3.9269,-3.9249,-3.8865,-3.87,-3.87,-3.872,-3.865,-3.863,-3.872,-3.8935,-3.9151,-3.9269,-3.9622,-4.0427,-4.0878,-4.1549,-4.2372,-4.3155,-4.4056,-4.4921,-4.5728,-4.6434,-4.7393,-4.7908,-4.8257,-4.832,-4.832,-4.8299,-4.8257,-4.6722,-4.5892,-4.5567,-4.5244,-4.5008,-4.4978,-4.5574,-4.6025,-4.6025,-4.631,-4.6643,-4.7256,-4.7817,-4.8766,-4.9842,-5.0925,-5.2142,-5.3121,-5.4064,-5.4019,-5.3965,-5.4525,-5.5173,-5.6115,-5.6876,-5.7155,-5.7433,-5.7771,-5.8313,-5.8701,-5.8604,-5.8596,-5.4986,-5.4442,-5.4399,-5.3844,-5.3012,-5.2948,-5.2437,-5.1773,-5.1709,-5.1281,-5.0811,-5.0294,-5.0131,-5.0131,-4.9805,-4.9642,-4.9539,-4.9457,-4.9457,-4.9417,-4.9702,-5.0576,-5.1303,-5.1464,-5.1486,-5.1384,-5.1164,-5.1067,-5.1045,-5.1045,-5.1045,-5.0964,-5.0943,-5.0964,-5.0824,-5.0478,-5.005,-4.9539,-4.9211,-4.88,-4.847,-4.8367,-4.8285,-4.7937,-4.7325,-4.6554,-4.5529,-4.4217,-4.2964,-4.193,-4.1552,-4.097,-4.0459,-4.0043,-3.99,-3.975,-3.9588,-3.9472,-3.9472,-3.9404,-3.9425,-3.9465,-3.935,-3.9655,-3.9859,-3.9832,-4.028,-4.0832,-4.1075,-4.1612,-4.2774,-4.3103,-4.4012,-4.558,-4.6437,-4.7008,-4.7487,-4.7939,-4.8359,-4.8629,-4.8552,-4.8702,-4.8629,-4.7727,-4.6836,-4.6768,-4.6536,-4.6408,-4.6528,-4.7045,-4.7537,-4.7559,-4.7652,-4.7956,-4.8351,-4.8904,-4.959,-5.0588,-5.1836,-5.3125,-5.4179,-5.4828,-5.4518,-5.3942,-5.4172,-5.4067,-5.507,-5.6295,-5.6884,-5.7156,-5.7403,-5.7508,-5.7759,-5.8423,-5.848,-5.5269,-5.4466,-5.4423,-5.3943,-5.3116,-5.3134,-5.2633,-5.1849,-5.1843,-5.1821,-5.1755,-5.161,-5.1631,-5.1529,-5.1427,-5.1266,-5.0921,-5.0921,-5.0781,-5.1104,-5.1967,-5.2742,-5.298,-5.298,-5.298,-5.29,-5.2821,-5.2843,-5.2843,-5.2843,-5.2742,-5.2764,-5.2786,-5.2548,-5.2353,-5.2193,-5.1748,-5.1061,-5.09,-5.0636,-5.023,-5.017,-4.9708,-4.8819,-4.8465,-4.7591,-4.5969,-4.5062,-4.4508,-4.4062,-4.2717,-4.198,-4.1767,-4.095,-4.0439,-4.0397,-3.9593,-3.9424,-3.9255,-3.9467,-3.9424,-3.9467,-3.9488,-3.9445,-4.0226,-4.0395,-4.0621,-4.1165,-4.1243,-4.1591,-4.2191,-4.2513,-4.3257,-4.478,-4.624,-4.7107,-4.7475,-4.7262,-4.7855,-4.8326,-4.8326,-4.8666,-4.9509,-4.8806,-4.8279,-4.8085,-4.7937,-4.7885,-4.8003,-4.842,-4.8927,-4.9065,-4.9065,-4.9339,-4.9682,-5.0158,-5.0675,-5.1861,-5.319,-5.4388,-5.5554,-5.5443,-5.5132,-5.4061,-5.3489,-5.3269,-5.3726,-5.4901,-5.5784,-5.7209,-5.7687,-5.7068,-5.7508,-5.8496,-5.8918,-5.5789,-5.5188,-5.5143,-5.4605,-5.3834,-5.3789,-5.3564,-5.3352,-5.3329,-5.325,-5.3228,-5.2967,-5.2809,-5.2786,-5.2786,-5.2685,-5.2503,-5.2526,-5.3138,-5.4294,-5.4993,-5.5226,-5.5226,-5.5226,-5.5226,-5.5202,-5.5148,-5.5226,-5.5148,-5.4939,-5.4885,-5.4807,-5.4597,-5.4385,-5.4252,-5.4016,-5.3758,-5.3397,-5.3014,-5.2486,-5.1805,-5.146,-5.084,-4.9859,-4.8951,-4.8069,-4.7033,-4.5871,-4.5233,-4.4832,-4.3518,-4.235,-4.1585,-4.1214,-4.1035,-4.1073,-4.0849,-4.0752,-4.0876,-4.069,-4.065,-4.0588,-4.0526,-4.0621,-4.0778,-4.0909,-4.1134,-4.1636,-4.1721,-4.1954,-4.2585,-4.3093,-4.3664,-4.4314,-4.5655,-4.6547,-4.7194,-4.8273,-4.9241,-4.9426,-4.9678,-4.9953,-5.0045,-4.9543,-4.8901,-4.8902,-4.9021,-4.9133,-4.9271,-4.9794,-5.009,-5.0318,-5.0429,-5.0699,-5.106,-5.1461,-5.1927,-5.3151,-5.4478,-5.5677,-5.6675,-5.6477,-5.6296,-5.5339,-5.4744,-5.4739,-5.5258,-5.5763,-5.6123,-5.7698,-5.9237,-5.8726,-5.834,-5.9117,-5.9285,-5.6093,-5.5544,-5.5498,-5.5163,-5.4634,-5.4588,-5.4588,-5.4588,-5.4588,-5.4588,-5.4509,-5.4229,-5.4049,-5.4049,-5.4183,-5.4261,-5.4339,-5.4962,-5.5995,-5.7188,-5.7288,-5.7288,-5.7264,-5.7288,-5.7288,-5.7288,-5.7137,-5.7085,-5.6985,-5.673,-5.6554,-5.6501,-5.6296,-5.6143,-5.6066,-5.5889,-5.537,-5.5082,-5.4682,-5.3941,-5.2788,-5.2119,-5.1328,-5.0247,-4.8978,-4.8362,-4.8296,-4.7071,-4.6216,-4.573,-4.4293,-4.3003,-4.217,-4.1888,-4.1926,-4.2147,-4.2208,-4.2307,-4.2503,-4.2466,-4.2345,-4.2284,-4.2064,-4.1987,-4.1926,-4.1911,-4.192,-4.1998,-4.2091,-4.2236,-4.2794,-4.3406,-4.3808,-4.4107,-4.5273,-4.6108,-4.63,-4.7713,-4.9194,-4.9821,-5.0268,-5.0623,-5.067,-5.0457,-4.9957,-4.9934,-5.0206,-5.0453,-5.0521,-5.0992,-5.1394,-5.1419,-5.1728,-5.1902,-5.2233,-5.2653,-5.3411,-5.4695,-5.5828,-5.6906,-5.7647,-5.7837,-5.7747,-5.7356,-5.7009,-5.7032,-5.7625,-5.7969,-5.8113,-5.9093,-5.9944,-5.996,-5.9727,-5.9595,-5.9598,-5.6253,-5.556,-5.5443,-5.5544,-5.5497,-5.5474,-5.5396,-5.5497,-5.5474,-5.5474,-5.5574,-5.5396,-5.5474,-5.5497,-5.5836,-5.6042,-5.6501,-5.7938,-5.8981,-5.9275,-5.9104,-5.8858,-5.8882,-5.8858,-5.8858,-5.8882,-5.8511,-5.8387,-5.8362,-5.8039,-5.7889,-5.7739,-5.7766,-5.7544,-5.7715,-5.7372,-5.6858,-5.5882,-5.5591,-5.4768,-5.3303,-5.2304,-5.1331,-5.0284,-4.899,-4.871,-4.9646,-4.8671,-4.7526,-4.6502,-4.5243,-4.4224,-4.3641,-4.3282,-4.3305,-4.3522,-4.3498,-4.3653,-4.3879,-4.3938,-4.3879,-4.3855,-4.3713,-4.3498,-4.3498,-4.3282,-4.2967,-4.2598,-4.2415,-4.2359,-4.2613,-4.2904,-4.3414,-4.4402,-4.5446,-4.5894,-4.5551,-4.5555,-4.6299,-4.8141,-4.9289,-5.0223,-5.0962,-5.1066,-5.1024,-5.1163,-5.1461,-5.1661,-5.1661,-5.2084,-5.2374,-5.2505,-5.2743,-5.3045,-5.3371,-5.3888,-5.5038,-5.6166,-5.715,-5.7905,-5.8602,-5.9337,-5.9315,-5.9336,-5.8948,-5.9164,-5.9706,-5.9979,-6.0104,-6.0806,-6.0334,-6.0724,-6.0754,-6.087,-6.0571,-5.7222,-5.6958,-5.701,-5.6958,-5.6934,-5.7034,-5.6934,-5.701,-5.6934,-5.6958,-5.6934,-5.6934,-5.701,-5.7034,-5.7512,-5.8188,-5.9351,-6.0207,-6.0742,-6.0789,-6.0669,-6.0597,-6.0571,-6.0669,-6.0597,-6.0571,-6.0451,-6.0451,-6.0353,-6.0036,-5.9864,-5.9716,-5.8744,-5.8273,-5.8122,-5.7471,-5.6899,-5.6482,-5.6383,-5.5763,-5.4491,-5.3678,-5.2716,-5.1671,-5.051,-5.0089,-5.0373,-4.9156,-4.8282,-4.7771,-4.6453,-4.56,-4.5393,-4.4976,-4.4825,-4.5059,-4.4942,-4.5059,-4.55,-4.5418,-4.5335,-4.5459,-4.5252,-4.5078,-4.5078,-4.4918,-4.4566,-4.4105,-4.3689,-4.3329,-4.3438,-4.4078,-4.4656,-4.5159,-4.5834,-4.6292,-4.6466,-4.7099,-4.7871,-4.8698,-4.9156,-4.9824,-5.0675,-5.0898,-5.1293,-5.2035,-5.2241,-5.2307,-5.2374,-5.2768,-5.3136,-5.3201,-5.372,-5.4107,-5.4567,-5.5578,-5.6783,-5.7609,-5.8476,-5.9036,-5.9681,-6.0514,-6.0876,-6.0922,-6.1114,-6.133,-6.1629,-6.192,-6.2762,-6.3934,-6.3453,-6.263,-6.2692,-6.2515,-6.2601,-5.866,-5.866,-5.866,-5.8685,-5.866,-5.866,-5.8586,-5.866,-5.8586,-5.8685,-5.866,-5.866,-5.866,-5.8685,-5.9523,-6.0546,-6.1554,-6.1892,-6.2034,-6.215,-6.215,-6.1941,-6.1626,-6.1547,-6.139,-6.0997,-6.0944,-6.0874,-6.0709,-6.0333,-6.0122,-5.9923,-5.9119,-5.8645,-5.8516,-5.7874,-5.7214,-5.6839,-5.6787,-5.6182,-5.4868,-5.403,-5.3806,-5.4017,-5.3116,-5.2452,-5.2087,-5.0646,-4.9668,-4.9223,-4.7779,-4.6995,-4.6938,-4.651,-4.6421,-4.6649,-4.6617,-4.6674,-4.6984,-4.682,-4.6763,-4.6825,-4.6542,-4.6346,-4.6288,-4.611,-4.5822,-4.5402,-4.4961,-4.5069,-4.5243,-4.5765,-4.6224,-4.6325,-4.6619,-4.696,-4.7219,-4.7787,-4.8473,-4.9005,-4.9202,-4.9691,-5.0575,-5.0903,-5.1358,-5.2471,-5.2788,-5.3094,-5.3503,-5.3914,-5.43,-5.4364,-5.4721,-5.5353,-5.5864,-5.7245,-5.8237,-5.8949,-5.9651,-6.0142,-6.0771,-6.1529,-6.2133,-6.2193,-6.2927,-6.3271,-6.351,-6.382,-6.4028,-6.5044,-6.5493,-6.4924,-6.5375,-6.4077,-6.4198,-6.0306,-6.0233,-6.028,-6.0306,-6.0306,-6.0306,-6.0306,-6.0207,-6.0306,-6.0331,-6.0306,-6.028,-6.0328,-6.0418,-6.1631,-6.2531,-6.2801,-6.2694,-6.2849,-6.3126,-6.3249,-6.2765,-6.1866,-6.1813,-6.1248,-6.0457,-6.0403,-6.0191,-5.9753,-5.9369,-5.9023,-5.9143,-5.909,-5.9011,-5.8918,-5.8733,-5.8153,-5.6984,-5.6841,-5.6214,-5.4914,-5.3822,-5.4628,-5.6499,-5.628,-5.5473,-5.4512,-5.3017,-5.1649,-5.0566,-4.9098,-4.8275,-4.822,-4.7972,-4.7891,-4.8138,-4.822,-4.822,-4.8275,-4.8275,-4.8165,-4.7943,-4.7612,-4.7389,-4.7445,-4.719,-4.6882,-4.6459,-4.6548,-4.7026,-4.7917,-4.7891,-4.7698,-4.7779,-4.775,-4.7608,-4.744,-4.7841,-4.8125,-4.8836,-4.9236,-4.9739,-5.0783,-5.1068,-5.1759,-5.2747,-5.3313,-5.3741,-5.4818,-5.5426,-5.5542,-5.5667,-5.5917,-5.6483,-5.7762,-5.8685,-5.9302,-5.9941,-6.0628,-6.1193,-6.1891,-6.2549,-6.3053,-6.3607,-6.4242,-6.4839,-6.5396,-6.5612,-6.5707,-6.5912,-6.6331,-6.6417,-6.6257,-6.5388,-6.5665,-6.1083,-6.1057,-6.1129,-6.1129,-6.1129,-6.1057,-6.1155,-6.1129,-6.1417,-6.1561,-6.1561,-6.1723,-6.1863,-6.209,-6.2486,-6.2202,-6.1632,-6.1578,-6.1617,-6.1682,-6.1748,-6.1585,-6.1314,-6.1455,-6.1356,-6.1148,-6.1203,-6.1267,-6.1167,-6.1038,-6.1038,-6.0902,-6.0219,-5.9719,-5.9394,-5.8578,-5.7937,-5.7385,-5.7269,-5.7134,-5.6872,-5.6858,-5.7166,-5.7527,-5.7461,-5.723,-5.6662,-5.4537,-5.3207,-5.2883,-5.088,-4.9692,-4.9477,-4.9585,-4.9423,-4.9072,-4.9072,-4.9179,-4.9477,-4.945,-4.9423,-4.9342,-4.9288,-4.9152,-4.8906,-4.8606,-4.8359,-4.8278,-4.8826,-4.9315,-4.9746,-4.9504,-4.9342,-4.9288,-4.9018,-4.8909,-4.8773,-4.8828,-4.8987,-4.9198,-4.9439,-4.9547,-4.9919,-5.0633,-5.1563,-5.271,-5.3647,-5.4505,-5.4893,-5.5912,-5.6607,-5.6633,-5.6906,-5.779,-5.9274,-5.997,-6.0486,-6.1081,-6.1523,-6.2074,-6.2356,-6.3327,-6.4065,-6.3704,-6.4927,-6.5651,-6.5751,-6.6659,-6.716,-6.7185,-6.7565,-6.7896,-6.756,-6.6933,-6.736,-6.2292,-6.2318,-6.2292,-6.2292,-6.2292,-6.2318,-6.2292,-6.2318,-6.2549,-6.2786,-6.289,-6.2728,-6.272,-6.2874,-6.2846,-6.2551,-6.205,-6.2022,-6.2085,-6.2176,-6.2176,-6.1898,-6.1516,-6.1613,-6.1368,-6.101,-6.111,-6.1199,-6.1171,-6.1171,-6.1171,-6.1059,-6.0586,-6.0073,-5.9721,-5.9051,-5.848,-5.8145,-5.8058,-5.8476,-5.9156,-5.9565,-5.9653,-5.945,-5.9334,-5.8904,-5.791,-5.5951,-5.4561,-5.3895,-5.2122,-5.0885,-5.078,-5.0885,-5.0832,-5.0462,-5.0409,-5.0462,-5.057,-5.057,-5.057,-5.0464,-5.0384,-5.0358,-5.0227,-4.988,-4.9933,-5.0278,-5.0829,-5.1066,-5.1017,-5.086,-5.0752,-5.0727,-5.0542,-5.0356,-5.0276,-5.0223,-5.017,-5.0117,-5.0064,-5.0092,-5.0173,-5.0691,-5.1561,-5.276,-5.3987,-5.5143,-5.5861,-5.7053,-5.7833,-5.8062,-5.8598,-5.9565,-6.0486,-6.1137,-6.1585,-6.2019,-6.2236,-6.241,-6.2469,-6.3042,-6.3288,-6.3626,-6.4064,-6.4665,-6.5603,-6.6357,-6.7389,-6.7766,-6.8161,-6.9189,-6.9642,-6.9074,-6.934,-6.364,-6.3613,-6.364,-6.3709,-6.3682,-6.3778,-6.3751,-6.3751,-6.3617,-6.3838,-6.3988,-6.3441,-6.3148,-6.3069,-6.3102,-6.3083,-6.3129,-6.3214,-6.3336,-6.3635,-6.3782,-6.3151,-6.2004,-6.2035,-6.1548,-6.0687,-6.0658,-6.0801,-6.0744,-6.0658,-6.0572,-6.0543,-6.0514,-6.0458,-6.0143,-6.0114,-5.9769,-5.9156,-5.9274,-6.0171,-6.1722,-6.1832,-6.1777,-6.1751,-6.1383,-6.0435,-5.8812,-5.7077,-5.5579,-5.4334,-5.2905,-5.2044,-5.2021,-5.2072,-5.1987,-5.1823,-5.1936,-5.1885,-5.1569,-5.1602,-5.1635,-5.1377,-5.1325,-5.1297,-5.1273,-5.117,-5.1532,-5.2241,-5.2493,-5.2342,-5.2123,-5.2123,-5.2123,-5.2072,-5.1993,-5.1993,-5.1737,-5.1737,-5.1607,-5.1429,-5.1401,-5.1349,-5.1401,-5.1512,-5.1984,-5.3124,-5.4578,-5.5925,-5.7021,-5.8432,-5.9565,-5.9999,-6.0713,-6.1415,-6.1777,-6.2112,-6.2549,-6.294,-6.2453,-6.231,-6.2459,-6.2201,-6.164,-6.2872,-6.3024,-6.3567,-6.4397,-6.5204,-6.6461,-6.7369,-6.8415,-6.9605,-7.0357,-7.0463,-7.0919,-6.4054,-6.4054,-6.4329,-6.4671,-6.4942,-6.509,-6.5198,-6.5115,-6.4498,-6.4204,-6.4308,-6.4416,-6.4092,-6.3489,-6.3634,-6.3195,-6.2405,-6.2318,-6.2347,-6.246,-6.246,-6.2313,-6.2106,-6.2299,-6.2348,-6.2082,-6.2272,-6.2406,-6.2351,-6.2351,-6.2351,-6.2351,-6.2351,-6.2078,-6.164,-6.164,-6.1332,-6.0854,-6.2019,-6.2886,-6.329,-6.326,-6.3077,-6.2617,-6.1528,-6.045,-5.943,-5.7143,-5.5651,-5.5127,-5.392,-5.3156,-5.2957,-5.3156,-5.2666,-5.1567,-5.2531,-5.2822,-5.1859,-5.258,-5.3057,-5.2808,-5.2757,-5.2628,-5.2471,-5.3247,-5.401,-5.4155,-5.3952,-5.3757,-5.3572,-5.3581,-5.3453,-5.3276,-5.3305,-5.3227,-5.3177,-5.3177,-5.3128,-5.3078,-5.3078,-5.3078,-5.3078,-5.3078,-5.3222,-5.377,-5.5493,-5.6877,-5.7512,-5.9439,-6.116,-6.1913,-6.2539,-6.2862,-6.3,-6.3327,-6.3705,-6.3938,-6.3174,-6.2781,-6.2811,-6.253,-6.2272,-6.2662,-6.3135,-6.3556,-6.4259,-6.4928,-6.5857,-6.721,-6.8128,-6.8924,-7.0295,-7.0962,-7.1667,-6.5078,-6.5173,-6.5577,-6.5606,-6.5312,-6.5481,-6.5302,-6.4849,-6.4666,-6.4621,-6.4567,-6.4325,-6.3958,-6.3503,-6.372,-6.352,-6.297,-6.3,-6.3137,-6.3243,-6.3213,-6.319,-6.3113,-6.3303,-6.3357,-6.328,-6.3387,-6.3516,-6.3622,-6.3592,-6.3645,-6.3803,-6.3803,-6.3539,-6.3113,-6.3113,-6.2868,-6.2485,-6.3817,-6.4624,-6.4726,-6.4726,-6.4266,-6.3347,-6.2614,-6.1318,-5.9387,-5.7869,-5.6626,-5.577,-5.4475,-5.3604,-5.3368,-5.2873,-5.2161,-5.1237,-5.2009,-5.2161,-5.1454,-5.2165,-5.2814,-5.3321,-5.3255,-5.3321,-5.3609,-5.4243,-5.4865,-5.5375,-5.5235,-5.5048,-5.4842,-5.4842,-5.47,-5.4462,-5.4462,-5.4444,-5.4407,-5.4388,-5.4359,-5.4359,-5.4329,-5.4359,-5.4359,-5.4359,-5.4359,-5.4506,-5.5951,-5.7749,-5.8987,-6.1243,-6.3137,-6.3803,-6.4086,-6.4212,-6.447,-6.4737,-6.489,-6.5175,-6.4278,-6.3512,-6.3046,-6.2508,-6.2032,-6.1944,-6.2099,-6.2579,-6.2951,-6.3904,-6.524,-6.6742,-6.782,-6.9193,-7.057,-7.1399,-7.2163,-6.6387,-6.6285,-6.6744,-6.6331,-6.5417,-6.5452,-6.5038,-6.4402,-6.4749,-6.4901,-6.4866,-6.3992,-6.3637,-6.3637,-6.3869,-6.4129,-6.4315,-6.4398,-6.4583,-6.487,-6.4921,-6.4819,-6.4644,-6.4593,-6.4489,-6.4282,-6.4312,-6.4386,-6.4593,-6.4644,-6.4747,-6.489,-6.4921,-6.4788,-6.447,-6.4419,-6.4388,-6.4409,-6.5365,-6.5943,-6.6237,-6.6189,-6.548,-6.4034,-6.3784,-6.2186,-5.9189,-5.8619,-5.7652,-5.6107,-5.4768,-5.3816,-5.3414,-5.2269,-5.1428,-5.1179,-5.1105,-5.1105,-5.1105,-5.1204,-5.1863,-5.3191,-5.3133,-5.3458,-5.4604,-5.4611,-5.4992,-5.5952,-5.6289,-5.6321,-5.6079,-5.6019,-5.5882,-5.5652,-5.559,-5.5528,-5.5432,-5.5385,-5.5385,-5.5385,-5.5385,-5.5385,-5.5385,-5.5355,-5.5385,-5.5565,-5.6664,-5.8196,-6.0511,-6.3266,-6.4981,-6.5276,-6.5376,-6.5496,-6.5664,-6.5912,-6.6041,-6.6303,-6.5329,-6.4329,-6.3663,-6.2687,-6.1781,-6.0904,-6.1095,-6.1285,-6.1658,-6.2817,-6.4312,-6.6019,-6.7805,-6.9493,-7.0893,-7.2036,-7.2794,-6.6922,-6.6045,-6.6866,-6.6633,-6.5766,-6.5974,-6.6209,-6.629,0.0,0.0,0.0,-6.4808,-6.4839,-6.4808,-6.5062,-6.5245,-6.5295,-6.5465,-6.5614,-6.5695,-6.5894,-6.5992,-6.5943,-6.5943,-6.5894,-6.5844,-6.5844,-6.5894,-6.5943,-6.5974,-6.5943,-6.5992,-6.6041,-6.5961,-6.5862,-6.5664,-6.6206,-6.7355,-6.7434,-6.7527,-6.7792,-6.7574,-6.6715,-6.5125,-6.3782,-6.2102,-5.9958,-5.8471,-5.6975,-5.5467,-5.5071,-5.441,-5.3234,-5.2884,-5.2267,-5.1219,-5.1015,-5.0904,-5.0793,-5.0944,-5.1529,-5.2726,-5.2776,-5.31,-5.3932,-5.4921,-5.5641,-5.5819,-5.6914,-5.7484,-5.7267,-5.7092,-5.6978,-5.6711,-5.6518,-5.6306,-5.6337,-5.6322,-5.6306,-5.6322,-5.6337,-5.6322,-5.6368,-5.6368,-5.6322,-5.652,-5.7637,-5.9044,-6.0811,-6.4104,-6.6577,-6.6401,-6.6432,-6.6384,-6.6286,-6.6432,-6.6626,-6.6929,-6.605,-6.5302,-6.5094,-6.3629,-6.2417,-6.2423,-6.1816,-6.1664,-6.21,-6.2615,-6.3433,-6.5175,-6.7026,-6.8746,-7.0473,-7.2488,-7.4028,-6.7338,-6.614,-6.6798,-6.6558,0.0,-6.5938,-6.6048,-6.6112,-6.5424,-6.5093,-6.5124,-6.5527,-6.5695,-6.5745,-6.614,-6.6286,-6.6286,-6.6432,-6.6546,-6.6674,-6.6818,-6.6866,-6.6866,-6.6866,-6.6818,-6.6642,-6.6674,-6.6818,-6.6945,-6.6945,-6.7087,-6.7402,-6.7261,-6.7246,-6.7246,-6.7041,-6.7556,-6.9003,-6.8915,-6.8915,-6.9003,-6.8915,-6.8052,-6.6464,-6.4935,0.0,0.0,0.0,0.0,0.0,0.0,0.0,0.0,0.0,0.0,-4.8548,-4.8449,-4.8314,-4.8278,-4.8485,-4.9045,-5.0129,-5.0955,-5.143,-5.1468,-5.3319,-5.478,-5.5363,-5.6079,-5.6485,-5.6186,-5.6104,-5.5899,-5.5537,-5.5401,-5.5286,-5.5337,-5.5909,-5.6388,-5.6516,-5.7066,-5.7416,-5.7448,-5.736,-5.7329,-5.7541,-5.9269,-6.0983,-6.195,-6.5163,-6.7696,-6.7556,-6.7621,-6.7574,-6.7527,-6.7667,-6.782,-6.7926,-6.7558,-6.7234,-6.7025,-6.5372,-6.3939,-6.3613,-6.2713,-6.2029,-6.2413,-6.2721,-6.3434,-6.521,-6.7161,-6.8875,-7.0062,-7.2003,-7.3896,-6.7501,-6.6338,-6.6709,-6.6375,-6.5623,-6.5807,-6.5876,-6.5795,-6.5795,-6.5795,-6.5844,-6.6237,-6.6432,-6.6481,-6.6914,-6.7151,-6.7151,-6.7293,-6.7434,-6.7699,-6.7714,-6.7806,-6.776,-6.776,-6.7635,-6.7481,-6.7495,-6.7696,-6.8031,-6.8044,-6.8225,-6.8661,-6.8592,-6.849,-6.8445,0.0,0.0,0.0,-7.0174,-7.0141,-7.0141,-7.0133,-6.9383,-6.7821,-6.6577,0.0,-6.2806,-6.1577,-5.9836,-5.7493,-5.6262,0.0,0.0,0.0,0.0,0.0,0.0,0.0,0.0,0.0,0.0,0.0,-4.8277,-4.8967,-4.9303,-5.1318,-5.3257,-5.4694,-5.5234,-5.5396,-5.5126,-5.5083,-5.4862,-5.4409,-5.4332,-5.4261,-5.4324,-5.5309,-5.6055,-5.623,-5.7386,-5.8154,-5.8154,-5.8252,-5.8378,-5.8694,-6.1059,-6.2903,-6.3373,-6.6268,-6.8467,-6.8761,-6.8815,-6.8792,-6.8702,-6.8836,-6.8859,-6.9036,-6.9244,-6.9085,-6.8411,-6.709,-6.5698,-6.5028,-6.3597,-6.2585,-6.2788,-6.3123,-6.3761,-6.5198,-6.7164,-6.8907,-6.9599,-7.1367,-7.3342,-6.7307,-6.6177,-6.6799,-6.6295,-6.5269,-6.6144,-6.6687,-6.6866,-6.6866,-6.6866,-6.6866,-6.6914,-6.6961,-6.6961,-6.7246,-6.7419,-6.7466,-6.8069,-6.8465,-6.851,-6.8803,-6.898,-6.8948,-6.8948,-6.898,-6.8904,-6.9167,-6.9265,-6.9308,-6.9415,-6.951,-6.9628,-6.9586,-6.9534,-6.9405,-6.9142,-6.9776,-7.1297,-7.1453,-7.1497,-7.1497,-7.1375,-7.0546,-6.9089,-6.844,-6.6824,-6.3915,-6.346,-6.1268,-5.6996,-5.6567,-5.5012,-5.1916,-5.0375,-4.9492,0.0,-4.5725,0.0,0.0,0.0,0.0,0.0,0.0,0.0,0.0,-5.0013,-5.1358,-5.4085,-5.5573,-5.6334,-5.6158,-5.598,-5.5692,-5.5428,-5.5174,-5.5067,-5.5067,-5.519,-5.5432,-5.5651,-5.6952,-5.7827,-5.7886,-5.8897,-5.961,-5.9876,-6.2123,-6.4238,-6.5508,-6.7224,-6.8832,-7.0149,-7.0015,-6.9633,-6.9331,-6.9331,-6.9623,-6.9804,-6.9982,-7.0233,-7.0038,-6.815,-6.6566,-6.6415,-6.4629,-6.3257,-6.3546,-6.3734,-6.4022,-6.4546,-6.6253,-6.7889,-6.8776,-7.1075,-7.3118,-6.7247,-6.6214,-6.6468,-6.6655,-6.6674,-6.7104,-6.7387,-6.7481,-6.7513,-6.7064,-6.6281,-6.6313,-6.5879,-6.529,-6.5646,-6.5866,-6.5997,-6.6418,-6.7261,-6.8273,-6.8485,-6.9083,-6.9907,-6.9109,-6.8785,-6.8834,-6.8083,-6.7851,-6.8088,-6.8133,-6.8251,-6.8362,-6.8245,-6.7968,-6.775,-6.9398,-7.0578,-7.1195,-7.2202,-7.269,-7.269,-7.2692,-7.2309,-7.1508,-7.0433,-6.8706,-6.6195,-6.52,-6.2445,-5.7657,-5.7322,-5.5147,-5.0458,-4.8792,-4.7227,0.0,0.0,0.0,0.0,0.0,0.0,0.0,0.0,0.0,0.0,0.0,-5.1045,-5.2498,-5.4032,-5.4841,-5.4584,-5.4389,-5.4159,-5.3992,-5.3823,-5.369,-5.3791,-5.4514,-5.5076,-5.5348,-5.6501,-5.7617,-5.8478,-5.9027,-5.9615,-6.0654,-6.3005,-6.4902,-6.5583,-6.7482,-6.9096,-6.9698,-7.0222,-7.0432,-7.0225,-7.03,-7.0383,-7.0448,-7.0088,-6.9794,-6.9888,-6.7781,-6.6026,-6.6134,-6.4763,-6.361,-6.3921,-6.4132,-6.4403,-6.486,-6.5882,-6.722,-6.8565,-7.016,-7.1573,-6.723,-6.6514,-6.6009,-6.6349,-6.708,-6.7112,-6.708,-6.7125,-6.717,-6.6587,-6.5551,-6.5228,-6.458,-6.3612,-6.3732,-6.3844,-6.3972,-6.4653,-6.5839,-6.7261,-6.7635,-6.853,-6.9703,-6.8699,-6.8237,-6.8285,-6.7212,-6.6859,-6.7113,-6.6844,-6.6815,-6.6957,-6.5519,-6.4786,-6.4925,-6.8133,-7.012,-7.0759,-7.2398,-7.3446,-7.3795,-7.396,-7.3895,-7.37,-7.2475,-7.0738,-6.8328,-6.7088,-6.3897,-5.8655,-5.7914,-5.5038,-4.9314,-4.7197,0.0,0.0,0.0,0.0,0.0,0.0,0.0,0.0,0.0,-4.3004,-4.4024,0.0,-4.9837,0.0,-5.2298,-5.3471,-5.3484,-5.3371,0.0,0.0,-5.23,-5.2136,-5.1865,-5.3073,-5.4104,-5.4358,-5.5776,-5.7255,-5.8395,-5.8994,-5.9831,-6.1219,-6.306,-6.4459,-6.5245,-6.7119,-6.8441,-6.885,-6.9572,-7.0153,-7.0013,-7.0114,-7.0047,-7.0192,-6.9479,-6.9029,-6.9248,-6.7268,-6.5651,-6.575,-6.4806,-6.4091,-6.4223,-6.4492,-6.4601,-6.4366,-6.4776,-6.5801,-6.772,-6.8588,-6.9355,-6.7199,-6.721,-6.5412,-6.4776,-6.4984,-6.4984,-6.4984,-6.4984,-6.5232,-6.5281,-6.5051,-6.3893,-6.3312,-6.3152,-6.2014,0.0,-6.1792,-6.374,-6.4672,-6.5053,-6.6592,-6.7381,-6.7519,-6.7496,-6.7533,-6.7569,-6.7749,-6.7923,-6.7785,-6.6678,-6.6254,-6.624,-6.1285,-5.9601,-6.1179,-6.4322,-6.7353,-7.0163,-7.1817,-7.3374,-7.4877,-7.4907,-7.4882,-7.4698,-7.4592,-7.2913,-6.9609,-6.921,-6.6058,-5.9752,-5.7893,-5.4799,-4.997,0.0,0.0,0.0,0.0,0.0,0.0,0.0,0.0,0.0,0.0,0.0,0.0,0.0,0.0,0.0,-5.1059,0.0,-5.4573,-5.4685,0.0,0.0,0.0,-5.0999,-4.9409,-5.0622,-5.1718,-5.1961,0.0,0.0,-5.6452,-5.8807,-6.0739,-6.1382,-6.1488,-6.256,-6.5275,-6.5826,-6.6478,-6.7784,-6.7951,-6.7981,-6.8184,-6.7971,-6.7971,-6.8259,-6.8023,-6.7991,-6.8162,-6.7045,-6.6408,-6.6092,-6.5239,-6.4274,-6.4621,-6.4693,-6.441,-6.2403,-6.216,-6.2843,-6.4805,-6.6426,-6.7567,-6.5666,-6.4729,-6.3293,-6.2782,-6.3005,-6.308,-6.3622,-6.4494,-6.4608,-6.4145,-6.3312,-6.289,-6.1182,-5.8597,-5.8126,0.0,0.0,0.0,-6.0898,-6.277,-6.4414,-6.5617,-6.6443,-6.5615,-6.5365,-6.5458,-6.3814,-6.3098,-6.3312,-6.1771,-6.0385,-5.9053,0.0,0.0,-5.8614,-6.2732,-6.6379,-6.9512,-7.2036,-7.4095,-7.5688,-7.564,-7.5584,-7.5492,-7.4602,-7.2948,-7.0381,-6.8285,-6.4533,-5.8917,-5.6156,-5.255,0.0,0.0,0.0,0.0,0.0,0.0,0.0,0.0,0.0,0.0,0.0,-3.7568,-3.9316,0.0,0.0,0.0,-4.9067,-5.1431,-5.3892,-5.3957,0.0,0.0,0.0,0.0,0.0,0.0,0.0,-5.2052,-5.325,-5.4627,-5.6447,-5.8016,-5.9097,-5.9175,-6.0714,-6.2228,-6.3424,0.0,-6.6389,-6.6908,-6.7644,-6.8094,-6.8129,-6.8026,-6.7991,-6.8163,-6.6846,-6.573,-6.5754,-6.4019,-6.2667,-6.2556,-6.2266,-6.2067,-6.2347,-6.2746,-6.2689,-6.212,-6.2043,-6.245,-6.3346,-6.4213,-6.4855,-6.2392,0.0,0.0,0.0,0.0,-5.9806,-6.0481,-6.1566,-6.1599,-6.102,-6.0065,-5.9816,0.0,0.0,0.0,0.0,0.0,0.0,-5.7561,-5.9822,-6.1835,-6.3336,-6.4354,-6.3302,-6.2719,-6.2503,-6.0373,-5.927,-5.8975,-5.6261,-5.3871,-5.1887,0.0,0.0,0.0,0.0,-6.5072,-6.8735,-7.1837,-7.4442,-7.6465,-7.6374,-7.6323,-7.6302,-7.4775,-7.262,-6.9854,-6.7408,-6.3573,-5.8104,-5.4751,0.0,0.0,0.0,0.0,0.0,0.0,0.0,0.0,0.0,0.0,0.0,0.0,0.0,0.0,0.0,0.0,0.0,0.0,0.0,-5.171,-5.2552,-5.2909,0.0,0.0,0.0,0.0,0.0,0.0,0.0,0.0,0.0,-5.582,-5.6488,-5.698,0.0,0.0,-6.1768,-6.228,-6.4438,-6.6024,-6.6055,-6.6842,0.0,-6.6819,-6.6747,-6.6576,-6.613,-6.4372,-6.3057,-6.3086,-6.153,-6.0219,-6.0317,-6.0484,-6.0057,-5.8901,-5.8801,-5.9128,-5.9554,-6.0089,-6.0676,-6.1383,-6.2048,-6.2396,0.0,0.0,0.0,0.0,0.0,0.0,0.0,0.0,-5.5112,-5.513,0.0,-5.3808,0.0,0.0,0.0,0.0,-4.8979,-5.3258,0.0,0.0,-5.8959,-6.0361,-6.043,-6.052,-5.9761,-5.8421,-5.8433,-5.7681,-5.5957,-5.0784,0.0,0.0,0.0,0.0,0.0,0.0,-6.298,-6.7781,-7.0875,-7.3924,-7.6952,-7.6998,-7.6998,-7.7099,-7.5497,-7.2364,-6.7707,-6.7068,-6.3906,-5.7486,-5.4003,0.0,0.0,0.0,0.0,0.0,0.0,0.0,0.0,0.0,0.0,0.0,0.0,0.0,0.0,0.0,0.0,0.0,0.0,0.0,0.0,-5.0388,0.0,0.0,0.0,0.0,0.0,0.0,0.0,0.0,0.0,0.0,-5.3947,-5.3978,-5.4904,-5.7878,0.0,0.0,0.0,0.0,-6.4988,-6.5052,-6.5023,-6.4566,-6.3088,-6.2877,-6.2364,-6.0731,0.0,0.0,-6.0573,-6.0587,-6.0503,-6.0746,-6.0657,-5.9255,-5.3857,-5.3244,-5.3364,-5.3592,-5.5067,-5.6509,-5.8128,-5.9692,-6.0429,0.0,0.0,0.0,0.0,0.0,0.0,0.0,0.0,0.0,-5.1029,0.0,-5.0554,0.0,0.0,0.0,0.0,0.0,0.0,0.0,0.0,-5.5783,-5.7218,-5.6283,-5.7289,-5.7097,0.0,-5.4756,-5.2097,0.0,0.0,0.0,0.0,0.0,0.0,0.0,0.0,-6.1729,-6.6634,-7.0712,-7.3909,-7.6073,-7.7033,-7.7501,-7.7507,-7.5908,-7.2736,-6.7829,-6.3423,-5.9066,0.0,0.0,0.0,0.0,0.0,0.0,0.0,0.0,0.0,0.0,0.0,0.0,0.0,0.0,0.0,0.0,0.0,0.0,0.0,0.0,0.0,0.0,0.0,-4.9895,0.0,0.0,0.0,0.0,0.0,0.0,0.0,0.0,0.0,-4.9699,-5.2354,-5.5055,-5.7068,-5.9471,-6.1588,-6.301,0.0,0.0,0.0,0.0,0.0,0.0,0.0,-6.4083,-6.2443,-6.2282,-6.1659,-5.9623,-5.7726,-5.6529,-5.666,0.0,0.0,-5.3156,-5.2986,-5.3089,-5.3282,-5.3903,-5.4581,-5.5257,-5.5966,-5.6337,0.0,0.0,0.0,0.0,0.0,0.0,0.0,0.0,0.0,-4.6989,-4.6989,0.0,0.0,0.0,0.0,0.0,0.0,0.0,0.0,0.0,0.0,0.0,-5.2789,-5.3794,0.0,0.0,0.0,0.0,0.0,0.0,0.0,0.0,0.0,0.0,0.0,0.0,-6.1607,-6.7085,-7.1785,-7.5279,-7.7488,-7.8951,-7.9191,-7.8022,-7.6335,-7.3097,-6.8166,0.0,0.0,0.0,0.0,0.0,0.0,0.0,0.0,0.0,0.0,0.0,0.0,0.0,0.0,0.0,0.0,0.0,0.0,0.0,0.0,0.0,0.0,0.0,0.0,0.0,-4.8578,0.0,0.0,0.0,0.0,0.0,0.0,0.0,0.0,0.0,0.0,0.0,-5.4093,-5.6693,-5.9658,-6.2165,-6.362,-6.5094,-6.6087,0.0,0.0,0.0,0.0,0.0,0.0,0.0,0.0,0.0,0.0,0.0,0.0,0.0,0.0,-4.957,-4.9915,-5.0066,-5.0185,-5.0298,0.0,0.0,0.0,0.0,0.0,0.0,0.0,0.0,0.0,0.0,0.0,0.0,0.0,0.0,0.0,-4.2834,0.0,0.0,-4.0308,0.0,0.0,0.0,0.0,0.0,0.0,0.0,0.0,0.0,0.0,0.0,0.0,0.0,0.0,0.0,0.0,0.0,0.0,0.0,0.0,0.0,0.0,-6.2508,-6.9067,-7.382,-7.7885,-8.0993,-8.2741,-8.1881,-7.8669,-7.6777,-7.344,-6.841,0.0,0.0,0.0,0.0,0.0,0.0,0.0,0.0,0.0,0.0,0.0,0.0,0.0,0.0,0.0,0.0,0.0,0.0,0.0,0.0,0.0,0.0,0.0,0.0,0.0,0.0,-4.6612,-4.7512,-4.6946,0.0,0.0,0.0,0.0,0.0,0.0,0.0,0.0,0.0,0.0,-6.0147,-6.2587,-6.4227,-6.5853,-6.6818,-6.6705,-6.6796,-6.631,-6.4749,-6.4437,-6.3169,0.0,0.0,0.0,0.0,0.0,0.0,0.0,0.0,0.0,0.0,0.0,0.0,0.0,0.0,0.0,0.0,0.0,0.0,0.0,0.0,0.0,0.0,0.0,0.0,0.0,0.0,0.0,0.0,0.0,0.0,0.0,0.0,0.0,0.0,0.0,0.0,0.0,0.0,0.0,0.0,0.0,0.0,0.0,0.0,0.0,0.0,0.0,0.0,0.0,0.0,0.0,0.0,0.0,0.0,-6.218,-6.7641,-7.3636,-7.7725,-7.9842,-8.2467,-8.2257,-7.8934,-7.7146,-7.2773,0.0,0.0,0.0,0.0,0.0,0.0,0.0,0.0,0.0,0.0,0.0,0.0,0.0,0.0,0.0,0.0,0.0,0.0,0.0,0.0,0.0,0.0,0.0,0.0,0.0,0.0,0.0,0.0,-4.8554,-4.7364,-4.3912,0.0,0.0,0.0,0.0,0.0,0.0,0.0,0.0,0.0,0.0,-6.3569,-6.6278,-6.6987,-6.7275,-6.7255,-6.7275,-6.7108,-6.6603,-6.5441,-6.3865,-6.171,0.0,0.0,0.0,0.0,0.0,0.0,0.0,0.0,0.0,0.0,0.0,0.0,0.0,0.0,0.0,0.0,0.0,0.0,0.0,0.0,0.0,0.0,0.0,0.0,0.0,0.0,0.0,0.0,0.0,0.0,0.0,0.0,0.0,0.0,0.0,0.0,0.0,0.0,0.0,0.0,0.0,0.0,0.0,0.0,0.0,0.0,0.0,0.0,0.0,0.0,0.0,0.0,0.0,-6.2421,-6.8061,-7.4529,-7.8939,-8.1303,-8.4412,-8.3839,-7.9216,-7.8138,-7.3041,0.0,0.0,0.0,0.0,0.0,0.0,0.0,0.0,0.0,0.0,0.0,0.0,0.0,0.0,0.0,0.0,0.0,0.0,0.0,0.0,0.0,0.0,0.0,0.0,0.0,0.0,0.0,0.0,-4.6809,-4.6345,-4.4128,0.0,0.0,0.0,0.0,0.0,0.0,0.0,0.0,0.0,0.0,-6.4221,-6.745,-6.7855,0.0,0.0,-6.7726,-6.7726,-6.7742,-6.6195,-6.4266,-6.1993,-5.8975,0.0,0.0,0.0,0.0,0.0,0.0,0.0,0.0,0.0,0.0,0.0,0.0,0.0,0.0,0.0,0.0,0.0,0.0,0.0,0.0,0.0,0.0,0.0,0.0,0.0,0.0,0.0,0.0,0.0,0.0,0.0,0.0,0.0,0.0,0.0,0.0,0.0,0.0,0.0,0.0,0.0,0.0,0.0,0.0,0.0,0.0,0.0,0.0,0.0,0.0,0.0,0.0,0.0,-6.9755,-7.6218,-8.112,-8.4521,-8.7731,-8.6274,-7.9779,-7.9497,-7.3963,0.0,0.0,0.0,0.0,0.0,0.0,0.0,0.0,0.0,0.0,0.0,0.0,0.0,0.0,0.0,0.0,0.0,0.0,0.0,0.0,0.0,0.0,0.0,0.0,0.0,0.0,0.0,0.0,0.0,0.0,0.0,0.0,0.0,0.0,0.0,0.0,0.0,0.0,0.0,0.0,0.0,-6.4735,-6.7784,-6.8345,-6.8389,0.0,-6.8254,-6.8184,-6.8063,-6.6536,-6.4238,-6.0883,0.0,0.0,0.0,0.0,0.0,0.0,0.0,0.0,0.0,0.0,0.0,0.0,0.0,0.0,0.0,0.0,0.0,0.0,0.0,0.0,0.0,0.0,0.0,0.0,0.0,0.0,0.0,0.0,0.0,0.0,0.0,0.0,0.0,0.0,0.0,0.0,0.0,0.0,0.0,0.0,0.0,0.0,0.0,0.0,0.0,0.0,0.0,0.0,0.0,0.0,0.0,0.0,0.0,0.0,-6.9708,-7.6416,-8.1408,-8.4675,-8.7968,-8.7059,-8.1712,-8.0302,0.0,0.0,0.0,0.0,0.0,0.0,0.0,0.0,0.0,0.0,0.0,0.0,0.0,0.0,0.0,0.0,0.0,0.0,0.0,0.0,0.0,0.0,0.0,0.0,0.0,0.0,0.0,-4.1983,0.0,0.0,0.0,0.0,0.0,0.0,0.0,0.0,0.0,0.0,0.0,0.0,0.0,0.0,-6.4888,-6.8082,-6.8559,-6.8574,0.0,0.0,-6.8067,-6.6823,-6.5165,-6.2931,0.0,0.0,0.0,0.0,0.0,0.0,0.0,0.0,0.0,0.0,0.0,0.0,0.0,0.0,0.0,0.0,0.0,0.0,0.0,0.0,0.0,0.0,0.0,0.0,0.0,0.0,0.0,0.0,0.0,0.0,0.0,0.0,0.0,0.0,0.0,0.0,0.0,0.0,0.0,0.0,0.0,0.0,0.0,0.0,0.0,0.0,0.0,0.0,0.0,0.0,0.0,0.0,0.0,0.0,-6.3164,-6.982,-7.6501,-8.15,-8.4711,-8.8058,-8.7359,-8.2368,-8.0613,-7.461,0.0,0.0,0.0,0.0,0.0,0.0,0.0,0.0,0.0,0.0,0.0,0.0,0.0,0.0,0.0,0.0,0.0,0.0,0.0,0.0,0.0,0.0,0.0,0.0,0.0,0.0,0.0,0.0,0.0,0.0,0.0,0.0,0.0,0.0,0.0,0.0,0.0,0.0,0.0,0.0,0.0,0.0,-6.641,-6.7309,0.0,0.0,0.0,-6.6373,-6.5386,0.0,0.0,0.0,0.0,0.0,0.0,0.0,0.0,0.0,0.0,0.0,0.0,0.0,0.0,0.0,0.0,0.0,0.0,0.0,0.0,0.0,0.0,0.0,0.0,0.0,0.0,0.0,0.0,0.0,0.0,0.0,0.0,0.0,0.0,0.0,0.0,0.0,0.0,0.0,0.0,0.0,0.0,0.0,0.0,0.0,0.0,0.0,0.0,0.0,0.0,0.0,0.0,0.0,0.0,0.0,0.0,0.0,-6.9914,-7.6518,-8.1449,-8.4712,-8.8106,-8.753,-8.2678,-8.0826,-7.53,0.0,0.0,0.0,0.0,0.0,0.0,0.0,0.0,0.0,0.0,0.0,0.0,0.0,0.0,0.0,0.0,0.0,0.0,0.0,0.0,0.0,0.0,0.0,0.0,0.0,0.0,0.0,0.0,0.0,0.0,0.0,0.0,0.0,0.0,0.0,0.0,0.0,0.0,0.0,0.0,0.0,-6.393,-6.4143,-6.5276,-6.5659,0.0,0.0,-6.3881,-6.3855,-6.1234,0.0,0.0,0.0,0.0,0.0,0.0,0.0,0.0,0.0,0.0,0.0,0.0,0.0,0.0,0.0,0.0,0.0,0.0,0.0,0.0,0.0,0.0,0.0,0.0,0.0,0.0,0.0,0.0,0.0,0.0,0.0,0.0,0.0,0.0,0.0,0.0,0.0,0.0,0.0,0.0,0.0,0.0,0.0,0.0,0.0,0.0,0.0,0.0,0.0,0.0,0.0,0.0,0.0,0.0,0.0,0.0,-6.9867,-7.6548,-8.1527,-8.488,-8.8223,-8.8184,-8.4499,-8.147,-7.5817,0.0,0.0,0.0,0.0,0.0,0.0,0.0,0.0,0.0,0.0,0.0,0.0,0.0,0.0,0.0,0.0,0.0,0.0,0.0,0.0,0.0,0.0,0.0,0.0,0.0,0.0,0.0,0.0,0.0,0.0,0.0,0.0,0.0,0.0,0.0,0.0,0.0,0.0,0.0,0.0,0.0,-6.26,-6.3919,-6.3367,0.0,0.0,0.0,0.0,-6.225,-6.0661,0.0,0.0,0.0,0.0,0.0,0.0,0.0,0.0,0.0,0.0,0.0,0.0,0.0,0.0,0.0,0.0,0.0,0.0,0.0,0.0,0.0,0.0,0.0,0.0,0.0,0.0,0.0,0.0,0.0,0.0,0.0,0.0,0.0,0.0,0.0,0.0,0.0,0.0,0.0,0.0,0.0,0.0,0.0,0.0,0.0,0.0,0.0,0.0,0.0,0.0,0.0,0.0,0.0,0.0,0.0,0.0,-6.8703,-7.6106,-8.1543,-8.4891,-8.827,-8.8422,-8.5041,-8.1657,-7.6336,0.0,0.0,0.0,0.0,0.0,0.0,0.0,0.0,0.0,0.0,0.0,0.0,0.0,0.0,0.0,0.0,0.0,0.0,0.0,0.0,0.0,0.0,0.0,0.0,0.0,0.0,0.0,0.0,0.0,0.0,0.0,0.0,0.0,0.0,0.0,0.0,0.0,0.0,0.0,0.0,-5.7797,-5.9712,-6.0633,0.0,0.0,0.0,0.0,0.0,0.0,-5.7011,-5.546,0.0,0.0,0.0,0.0,0.0,0.0,0.0,0.0,0.0,0.0,0.0,0.0,0.0,0.0,0.0,0.0,0.0,0.0,0.0,0.0,0.0,0.0,0.0,0.0,0.0,0.0,0.0,0.0,0.0,0.0,0.0,0.0,0.0,0.0,0.0,0.0,0.0,0.0,0.0,0.0,0.0,0.0,0.0,0.0,0.0,0.0,0.0,0.0,0.0,0.0,0.0,0.0,0.0,0.0,0.0,-6.7382,-7.5696,-8.1549,-8.4925,-8.8265,-8.8372,-8.5011,-8.1655,-7.6697,-6.9925,0.0,0.0,0.0,0.0,0.0,0.0,0.0,0.0,0.0,0.0,0.0,0.0,0.0,0.0,0.0,0.0,0.0,0.0,0.0,0.0,0.0,0.0,0.0,0.0,0.0,0.0,0.0,0.0,0.0,0.0,0.0,0.0,0.0,0.0,0.0,0.0,0.0,0.0,0.0,-5.5555,-5.6633,0.0,0.0,0.0,0.0,0.0,0.0,0.0,0.0,-5.2201,0.0,0.0,0.0,0.0,0.0,0.0,0.0,0.0,0.0,0.0,0.0,0.0,0.0,0.0,0.0,0.0,0.0,0.0,0.0,0.0,0.0,0.0,0.0,0.0,0.0,0.0,0.0,0.0,0.0,0.0,0.0,0.0,0.0,0.0,0.0,0.0,0.0,0.0,0.0,0.0,0.0,0.0,0.0,0.0,0.0,0.0,0.0,0.0,0.0,0.0,0.0,0.0,0.0,0.0,0.0,0.0,-7.5737,-8.1626,-8.4918,-8.8251,-8.8386,-8.5012,-8.1675,-7.6661,-6.9785,0.0,0.0,0.0,0.0,0.0,0.0,0.0,0.0,0.0,0.0,0.0,0.0,0.0,0.0,0.0,0.0,0.0,0.0,0.0,0.0,0.0,0.0,0.0,0.0,0.0,0.0,0.0,0.0,0.0,0.0,0.0,0.0,0.0,0.0,0.0,0.0,0.0,0.0,-5.2267,-5.3819,0.0,0.0,0.0,0.0,0.0,0.0,0.0,0.0,-5.4042,0.0,0.0,0.0,0.0,0.0,0.0,0.0,0.0,0.0,0.0,0.0,0.0,0.0,0.0,0.0,0.0,0.0,0.0,0.0,0.0,0.0,0.0,0.0,0.0,0.0,0.0,0.0,0.0,0.0,0.0,0.0,0.0,0.0,0.0,0.0,0.0,0.0,0.0,0.0,0.0,0.0,0.0,0.0,0.0,0.0,0.0,0.0,0.0,0.0,0.0,0.0,0.0,0.0,0.0,0.0,0.0,0.0,0.0,-8.0791,-8.4877,-8.8245,-8.8333,-8.4931,-8.1547,-7.6172,0.0,0.0,0.0,0.0,0.0,0.0,0.0,0.0,0.0,0.0,0.0,0.0,0.0,0.0,0.0,0.0,0.0,0.0,0.0,0.0,0.0,0.0,0.0,0.0,0.0,0.0,0.0,0.0,0.0,0.0,0.0,0.0,0.0,0.0,0.0,0.0,0.0,0.0,0.0,0.0,0.0,0.0,0.0,0.0,0.0,0.0,0.0,0.0,0.0,0.0,0.0,0.0,0.0,0.0,0.0,0.0,0.0,0.0,0.0,0.0,0.0,0.0,0.0,0.0,0.0,0.0,0.0,0.0,0.0,0.0,0.0,0.0,0.0,0.0,0.0,0.0,0.0,0.0,0.0,0.0,0.0,0.0,0.0,0.0,0.0,0.0,0.0,0.0,0.0,0.0,0.0,0.0,0.0,0.0,0.0,0.0,0.0,0.0,0.0,0.0,0.0,0.0,0.0,0.0,0.0,0.0,0.0,0.0,-7.9804,-8.4347,-8.8053,-8.8282,-8.482,-8.0785,-7.4815,0.0,0.0,0.0,0.0,0.0,0.0,0.0,0.0,0.0,0.0,0.0,0.0,0.0,0.0,0.0,0.0,0.0,0.0,0.0,0.0,0.0,0.0,0.0,0.0,0.0,0.0,0.0,0.0,0.0,0.0,0.0,0.0,0.0,0.0,0.0,0.0,0.0,0.0,0.0,0.0,0.0,0.0,0.0,0.0,0.0,0.0,0.0,0.0,-4.9962,0.0,0.0,0.0,0.0,0.0,0.0,0.0,0.0,0.0,0.0,0.0,0.0,0.0,0.0,0.0,0.0,0.0,0.0,0.0,0.0,0.0,0.0,0.0,0.0,0.0,0.0,0.0,0.0,0.0,0.0,0.0,0.0,0.0,0.0,0.0,0.0,0.0,0.0,0.0,0.0,0.0,0.0,0.0,0.0,0.0,0.0,0.0,0.0,0.0,0.0,0.0,0.0,0.0,0.0,0.0,0.0,0.0,0.0,0.0,-7.9195,-8.2637,-8.7362,-8.8194,-8.4776,-7.8532,-7.1831,0.0,0.0,0.0,0.0,0.0,0.0,0.0,0.0,0.0,0.0,0.0,0.0,0.0,0.0,0.0,0.0,0.0,0.0,0.0,0.0,0.0,0.0,0.0,0.0,0.0,0.0,0.0,0.0,0.0,0.0,0.0,0.0,0.0,0.0,0.0,0.0,0.0,0.0,0.0,0.0,0.0,0.0,0.0,0.0,0.0,0.0,0.0,0.0,0.0,0.0,0.0,0.0,0.0,0.0,0.0,0.0,0.0,0.0,0.0,0.0,0.0,0.0,0.0,0.0,0.0,0.0,0.0,0.0,0.0,0.0,0.0,0.0,0.0,0.0,0.0,0.0,0.0,0.0,0.0,0.0,0.0,0.0,0.0,0.0,0.0,0.0,0.0,0.0,0.0,0.0,0.0,0.0,0.0,0.0,0.0,0.0,0.0,0.0,0.0,0.0,0.0,0.0,0.0,0.0,0.0,0.0,0.0,0.0,-7.7141,-8.2362,-8.5364,-8.5263,-8.1894,-7.7085,-7.09,0.0,0.0,0.0,0.0,0.0,0.0,0.0,0.0,0.0,0.0,0.0,0.0,0.0,0.0,0.0,0.0,0.0,0.0,0.0,0.0,0.0,0.0,0.0,0.0,0.0,0.0,0.0,0.0,0.0,0.0,0.0,0.0,0.0,0.0,0.0,0.0,0.0,0.0,0.0,0.0,0.0,0.0,0.0,0.0,0.0,0.0,0.0,0.0,0.0,0.0,0.0,0.0,0.0,0.0,0.0,0.0,0.0,0.0,0.0,0.0,0.0,0.0,0.0,0.0,0.0,0.0,0.0,0.0,0.0,0.0,0.0,0.0,0.0,0.0,0.0,0.0,0.0,0.0,0.0,0.0,0.0,0.0,0.0,0.0,0.0,0.0,0.0,0.0,0.0,0.0,0.0,0.0,0.0,0.0,0.0,0.0,0.0,0.0,0.0,0.0,0.0,0.0,0.0,0.0,0.0,0.0,0.0,0.0,0.0,-8.0192,-8.1578,-8.0737,-7.7768,-7.3866,-6.8253,0.0,0.0,0.0,0.0,0.0,0.0,0.0,0.0,0.0,0.0,0.0,0.0,0.0,0.0,0.0,0.0,0.0,0.0,0.0,0.0,0.0,0.0,0.0,0.0,0.0,0.0,0.0,0.0,0.0,0.0,0.0,0.0,0.0,0.0,0.0,0.0,0.0,0.0,0.0,0.0,0.0,0.0,0.0,0.0,0.0,0.0,0.0,0.0,0.0,0.0,0.0,0.0,0.0,0.0,0.0,0.0,0.0,0.0,0.0,0.0,0.0,0.0,0.0,0.0,0.0,0.0,0.0,0.0,0.0,0.0,0.0,0.0,0.0,0.0,0.0,0.0,0.0,0.0,0.0,0.0,0.0,0.0,0.0,0.0,0.0,0.0,0.0,0.0,0.0,0.0,0.0,0.0,0.0,0.0,0.0,0.0,0.0,0.0,0.0,0.0,0.0,0.0,0.0,0.0,0.0,0.0,0.0,0.0,0.0,-7.5226,-7.533,-7.4505,-7.2558,-6.7656,-6.241,0.0,0.0,0.0,0.0,0.0,0.0,0.0,0.0,0.0,0.0,0.0,0.0,0.0,0.0,0.0,0.0,0.0,0.0,0.0,0.0,0.0,0.0,0.0,0.0,0.0,0.0,0.0,0.0,0.0,0.0,0.0,0.0,0.0,0.0,0.0,0.0,0.0,0.0,0.0,0.0,0.0,0.0,0.0,0.0,0.0,0.0,0.0,0.0,0.0,0.0,0.0,0.0,0.0,0.0,0.0,0.0,0.0,0.0,0.0,0.0,0.0,0.0,0.0,0.0,0.0,0.0,0.0,0.0,0.0,0.0,0.0,0.0,0.0,0.0,0.0,0.0,0.0,0.0,0.0,0.0,0.0,0.0,0.0,0.0,0.0,0.0,0.0,0.0,0.0,0.0,0.0,0.0,0.0,0.0,0.0,0.0,0.0,0.0,0.0,0.0,0.0,0.0,0.0,0.0,0.0,0.0,0.0,0.0,0.0,-6.8669,-6.9571,-6.9717,-6.899,-6.4927,-6.0829,-5.6725,0.0,0.0,0.0,0.0,0.0,0.0,0.0,0.0,0.0,0.0,0.0,0.0,0.0,0.0,0.0,0.0,0.0,0.0,0.0,0.0,0.0,0.0,0.0,0.0,0.0,0.0,0.0,0.0,0.0,0.0,0.0,0.0,0.0,0.0,0.0,0.0,0.0,0.0,0.0,0.0,0.0,0.0,0.0,0.0,0.0,0.0,0.0,0.0,0.0,0.0,0.0,0.0,0.0,0.0,0.0,0.0,0.0,0.0,0.0,0.0,0.0,0.0,0.0,0.0,0.0,0.0,0.0,0.0,0.0,0.0,0.0,0.0,0.0,0.0,0.0,0.0,0.0,0.0,0.0,0.0,0.0,0.0,0.0,0.0,0.0,0.0,0.0,0.0,0.0,0.0,0.0,0.0,0.0,0.0,0.0,0.0,0.0,0.0,0.0,0.0,0.0,0.0,0.0,0.0,0.0,0.0,0.0,0.0,-6.4121,-6.5674,-6.6159,-6.5474,-6.2122,-5.8875,0.0,0.0,0.0,0.0,0.0,0.0,0.0,0.0,0.0,0.0,0.0,0.0,0.0,0.0,0.0,0.0,0.0,0.0,0.0,0.0,0.0,0.0,0.0,0.0,0.0,0.0,0.0,0.0,0.0,0.0,0.0,0.0,0.0,0.0,0.0,0.0,0.0,0.0,0.0,0.0,0.0,0.0,0.0,0.0,0.0,0.0,0.0,0.0,0.0,0.0,0.0,0.0,0.0,0.0,0.0,0.0,0.0,0.0,0.0,0.0,0.0,0.0,0.0,0.0,0.0,0.0,0.0,0.0,0.0,0.0,0.0,0.0,0.0,0.0,0.0,0.0,0.0,0.0,0.0,0.0,0.0,0.0,0.0,0.0,0.0,0.0,0.0,0.0,0.0,0.0,0.0,0.0,0.0,0.0,0.0,0.0,0.0,0.0,0.0,0.0,0.0,0.0,0.0,0.0,0.0,0.0,0.0,0.0,-5.7656,-6.2226,-6.3905,-6.391,-6.2233,-5.8906,-5.6098,0.0,0.0,0.0,0.0,0.0,0.0,0.0,0.0,0.0,0.0,0.0,0.0,0.0,0.0,0.0,0.0,0.0,0.0,0.0,0.0,0.0,0.0,0.0,0.0,0.0,0.0,0.0,0.0,0.0,0.0,0.0,0.0,0.0,0.0,0.0,0.0,0.0,0.0,0.0,0.0,0.0,0.0,0.0,0.0,0.0,0.0,0.0,0.0,0.0,0.0,0.0,0.0,0.0,0.0,0.0,0.0,0.0,0.0,0.0,0.0,0.0,0.0,0.0,0.0,0.0,0.0,0.0,0.0,0.0,0.0,0.0,0.0,0.0,0.0,0.0,0.0,0.0,0.0,0.0,0.0,0.0,0.0,0.0,0.0,0.0,0.0,0.0,0.0,0.0,0.0,0.0,0.0,0.0,0.0,0.0,0.0,0.0,0.0,0.0,0.0,0.0,0.0,0.0,0.0,0.0,0.0,0.0,0.0,0.0,-6.0706,0.0,-6.1141,0.0,-5.7082,-5.486,0.0,0.0,0.0,0.0,0.0,0.0,0.0,0.0,0.0,0.0,0.0,0.0,0.0,0.0,0.0,0.0,0.0,0.0,0.0,0.0,0.0,0.0,0.0,0.0,0.0,0.0,0.0,0.0,0.0,0.0,0.0,0.0,0.0,0.0,0.0,0.0,0.0,0.0,0.0,0.0,0.0,0.0,0.0,0.0,0.0,0.0,0.0,0.0,0.0,0.0,0.0,0.0,0.0,0.0,0.0,0.0,0.0,0.0,0.0,0.0,0.0,0.0,0.0,0.0,0.0,0.0,0.0,0.0,0.0,0.0,0.0,0.0,0.0,0.0,0.0,0.0,0.0,0.0,0.0,0.0,0.0,0.0,0.0,0.0,0.0,0.0,0.0,0.0,0.0,0.0,0.0,0.0,0.0,0.0,0.0,0.0,0.0,0.0,0.0,0.0,0.0,0.0,0.0,0.0,0.0,0.0,0.0,0.0,0.0,-5.9983,-5.9901,-5.9815,-5.9545,-5.6275,-5.4316,0.0,0.0,0.0,0.0,0.0,0.0,0.0,0.0,0.0,0.0,0.0,0.0,0.0,0.0,0.0,0.0,0.0,0.0,0.0,0.0,0.0,0.0,0.0,0.0,0.0,0.0,0.0,0.0,0.0,0.0,0.0,0.0,0.0,0.0,0.0,0.0,0.0,0.0,0.0,0.0,0.0,0.0,0.0,0.0,0.0,0.0,0.0,0.0,0.0,0.0,0.0,0.0,0.0,0.0,0.0,0.0,0.0,0.0,0.0,0.0,0.0,0.0,0.0,0.0,0.0,0.0,0.0,0.0,0.0,0.0,0.0,0.0,0.0,0.0,0.0,0.0,0.0,0.0,0.0,0.0,0.0,0.0,0.0,0.0,0.0,0.0,0.0,0.0,0.0,0.0,0.0,0.0,0.0,0.0,0.0,0.0,0.0,0.0,0.0,0.0,0.0,0.0,0.0,0.0,0.0,0.0,0.0,0.0,0.0,0.0,-5.9933,-5.98,-5.964,-5.6297,-5.4241,0.0,0.0,0.0,0.0,0.0,0.0,0.0,0.0,0.0,0.0,0.0,0.0,0.0,0.0,0.0,0.0,0.0,0.0,0.0,0.0,0.0,0.0,0.0,0.0,0.0,0.0,0.0,0.0,0.0,0.0,0.0,0.0,0.0,0.0,0.0,0.0,0.0,0.0,0.0,0.0,0.0,0.0,0.0,0.0,0.0,0.0,0.0,0.0,0.0,0.0,0.0,0.0,0.0,0.0,0.0,0.0,0.0,0.0,0.0,0.0,0.0,0.0,0.0,0.0,0.0,0.0,0.0,0.0,0.0,0.0,0.0,0.0,0.0,0.0,0.0,0.0,0.0,0.0,0.0,0.0,0.0,0.0,0.0,0.0,0.0,0.0,0.0,0.0,0.0,0.0,0.0,0.0,0.0,0.0,0.0,0.0,0.0,0.0,0.0,0.0,0.0,0.0,0.0,0.0,0.0,0.0,0.0,0.0,0.0,0.0,-5.9927,0.0,-5.9649,-5.6313,-5.3707,-5.2228,0.0,0.0,0.0,0.0,0.0,0.0,0.0,0.0,0.0,0.0,0.0,0.0,0.0,0.0,0.0,0.0,0.0,0.0,0.0,0.0,0.0,0.0,0.0,0.0,0.0,0.0,0.0,0.0,0.0,0.0,0.0,0.0,0.0,0.0,0.0,0.0,0.0,0.0,0.0,0.0,0.0,0.0,0.0,0.0,0.0,0.0,0.0,0.0,0.0,0.0,0.0,0.0,0.0,0.0,0.0,0.0,0.0,0.0,0.0,0.0,0.0,0.0,0.0,0.0,0.0,0.0,0.0,0.0,0.0,0.0,0.0,0.0,0.0,0.0,0.0,0.0,0.0,0.0,0.0,0.0,0.0,0.0,0.0,0.0,0.0,0.0,0.0,0.0,0.0,0.0,0.0,0.0,0.0,0.0,0.0,0.0,0.0,0.0,0.0,0.0,0.0,0.0,0.0,0.0,0.0,0.0,0.0,0.0,0.0,0.0,0.0,-5.8855,-5.6699,-5.4238,0.0,0.0,0.0,0.0,0.0,0.0,0.0,0.0,0.0,0.0,0.0,0.0,0.0,0.0,0.0,0.0,0.0,0.0,0.0,0.0,0.0,0.0,0.0,0.0,0.0,0.0,0.0,0.0,0.0,0.0,0.0,0.0,0.0,0.0,0.0,0.0,0.0,0.0,0.0,0.0,0.0,0.0,0.0,0.0,0.0,0.0,0.0,0.0,0.0,0.0,0.0,0.0,0.0,0.0,0.0,0.0,0.0,0.0,0.0,0.0,0.0,0.0,0.0,0.0,0.0,0.0,0.0,0.0,0.0,0.0,0.0,0.0,0.0,0.0,0.0,0.0,0.0,0.0,0.0,0.0,0.0,0.0,0.0,0.0,0.0,0.0,0.0,0.0,0.0,0.0,0.0,0.0,0.0,0.0,0.0,0.0,0.0,0.0,0.0,0.0,0.0,0.0,0.0,0.0,0.0,0.0,0.0,0.0,0.0,0.0,0.0,-5.8828,-5.7197,-5.6791,0.0,-5.1651,0.0,0.0,0.0,0.0,0.0,0.0,0.0,0.0,0.0,0.0,0.0,0.0,0.0,0.0,0.0,0.0,0.0,0.0,0.0,0.0,0.0,0.0,0.0,0.0,0.0,0.0,0.0,0.0,0.0,0.0,0.0,0.0,0.0,0.0,0.0,0.0,0.0,0.0,0.0,0.0,0.0,0.0,0.0,0.0,0.0,0.0,0.0,0.0,0.0,0.0,0.0,0.0,0.0,0.0,0.0,0.0,0.0,0.0,0.0,0.0,0.0,0.0,0.0,0.0,0.0,0.0,0.0,0.0,0.0,0.0,0.0,0.0,0.0,0.0,0.0,0.0,0.0,0.0,0.0,0.0,0.0,0.0,0.0,0.0,0.0,0.0,0.0,0.0,0.0,0.0,0.0,0.0,0.0,0.0,0.0,0.0,0.0,0.0,0.0,0.0,0.0,0.0,0.0,0.0,0.0,0.0,0.0,0.0,0.0,0.0,0.0,0.0,-5.4009,-5.2786,-5.1783,0.0,0.0,0.0,0.0,0.0,0.0,0.0,0.0,0.0,0.0,0.0,0.0,0.0,0.0,0.0,0.0,0.0,0.0,0.0,0.0,0.0,0.0,0.0,0.0,0.0,0.0,0.0,0.0,0.0,0.0,0.0,0.0,0.0,0.0,0.0,0.0,0.0,0.0,0.0,0.0,0.0,0.0,0.0,0.0,0.0,0.0,0.0,0.0,0.0,0.0,0.0,0.0,0.0,0.0,0.0,0.0,0.0,0.0,0.0,0.0,0.0,0.0,0.0,0.0,0.0,0.0,0.0,0.0,0.0,0.0,0.0,0.0,0.0,0.0,0.0,0.0,0.0,0.0,0.0,0.0,0.0,0.0,0.0,0.0,0.0,0.0,0.0,0.0,0.0,0.0,0.0,0.0,0.0,0.0,0.0,0.0,0.0,0.0,0.0,0.0,0.0,0.0,0.0,0.0,0.0,0.0,0.0,0.0,0.0,0.0,-5.5395,-5.3687,-5.2631,-5.1707,-5.0844,0.0,0.0,0.0,0.0,0.0,0.0,0.0,0.0,0.0,0.0,0.0,0.0,0.0,0.0,0.0,0.0,0.0,0.0,0.0,0.0,0.0,0.0,0.0,0.0,0.0,0.0,0.0,0.0,0.0,0.0,0.0,0.0,0.0,0.0,0.0,0.0,0.0,0.0,0.0,0.0,0.0,0.0,0.0,0.0,0.0,0.0,0.0,0.0,0.0,0.0,0.0,0.0,0.0,0.0,0.0,0.0,0.0,0.0,0.0,0.0,0.0,0.0,0.0,0.0,0.0,0.0,0.0,0.0,0.0,0.0,0.0,0.0,0.0,0.0,0.0,0.0,0.0,0.0,0.0,0.0,0.0,0.0,0.0,0.0,0.0,0.0,0.0,0.0,0.0,0.0,0.0,0.0,0.0,0.0,0.0,0.0,0.0,0.0,0.0,0.0,0.0,0.0,0.0,0.0,0.0,0.0,0.0,0.0,0.0,0.0,0.0,0.0,0.0,0.0,-4.9582,0.0,0.0,0.0,0.0,0.0,0.0,0.0,0.0,0.0,0.0,0.0,0.0,0.0,0.0,0.0,0.0,0.0,0.0,0.0,0.0,0.0,0.0,0.0,0.0,0.0,0.0,0.0,0.0,0.0,0.0,0.0,0.0,0.0,0.0,0.0,0.0,0.0,0.0,0.0,0.0,0.0,0.0,0.0,0.0,0.0,0.0,0.0,0.0,0.0,0.0,0.0,0.0,0.0,0.0,0.0,0.0,0.0,0.0,0.0,0.0,0.0,0.0,0.0,0.0,0.0,0.0,0.0,0.0,0.0,0.0,0.0,0.0,0.0,0.0,0.0,0.0,0.0,0.0,0.0,0.0,0.0,0.0,0.0,0.0,0.0,0.0,0.0,0.0,0.0,0.0,0.0,0.0,0.0,0.0,0.0,0.0,0.0,0.0,0.0,0.0,0.0,0.0,0.0,0.0,0.0,0.0,0.0,0.0,0.0,0.0,0.0,0.0,0.0,0.0,0.0,0.0,0.0,0.0,0.0,0.0,0.0,0.0,0.0,0.0,0.0,0.0,0.0,0.0,0.0,0.0,0.0,0.0,0.0,0.0,0.0,0.0,0.0,0.0,0.0,0.0,0.0,0.0,0.0,0.0,0.0,0.0,0.0,0.0,0.0,0.0,0.0,0.0,0.0,0.0,0.0,0.0,0.0,0.0,0.0,0.0,0.0,0.0,0.0,0.0,0.0,0.0,0.0,0.0,0.0,0.0,0.0,0.0,0.0,0.0,0.0,0.0,0.0,0.0,0.0,0.0,0.0,0.0,0.0,0.0,0.0,0.0,0.0,0.0,0.0,0.0,0.0,0.0,0.0,0.0,0.0,0.0,0.0,0.0,0.0,0.0,0.0,0.0,0.0,0.0,0.0,0.0,0.0,0.0,0.0,0.0,0.0,0.0,0.0,0.0,0.0,0.0,0.0,0.0,0.0,0.0,0.0,0.0,0.0,0.0,0.0,0.0,0.0,0.0,0.0,0.0,0.0,0.0,0.0,0.0,0.0,0.0,0.0,0.0,0.0,0.0,0.0,0.0,0.0,0.0,0.0,0.0,0.0,0.0,0.0,0.0,0.0,0.0,0.0,0.0,0.0,0.0,0.0,0.0,0.0,0.0,0.0,0.0,0.0,0.0,0.0,0.0,0.0,0.0,0.0,0.0,0.0,0.0,0.0,0.0,0.0,0.0,0.0,0.0,0.0,0.0,0.0,0.0,0.0,0.0,0.0,0.0,0.0,0.0,0.0,0.0,0.0,0.0,0.0,0.0,0.0,0.0,0.0,0.0,0.0,0.0,0.0,0.0,0.0,0.0,0.0,0.0,0.0,0.0,0.0,0.0,0.0,0.0,0.0,0.0,0.0,0.0,0.0,0.0,0.0,0.0,0.0,0.0,0.0,0.0,0.0,0.0,0.0,0.0,0.0,0.0,0.0,0.0,0.0,0.0,0.0,0.0,0.0,0.0,0.0,0.0,0.0,0.0,0.0,0.0,0.0,0.0,0.0,0.0,0.0,0.0,0.0,0.0,0.0,0.0,0.0,0.0,0.0,0.0,0.0,0.0,0.0,0.0,0.0,0.0,0.0,0.0,0.0,0.0,0.0,0.0,0.0,0.0,0.0,0.0,0.0,0.0,0.0,0.0,0.0,0.0,0.0,0.0,0.0,0.0,0.0,0.0,0.0,0.0,0.0,0.0,0.0,0.0,0.0,0.0,0.0,0.0,0.0,0.0,0.0,0.0,0.0,0.0,0.0,0.0,0.0,0.0,0.0,0.0,0.0,0.0,0.0,0.0,0.0,0.0,0.0,0.0,0.0,0.0,0.0,0.0,0.0,0.0,0.0,0.0,0.0,0.0,0.0,0.0,0.0,0.0,0.0,0.0,0.0,0.0,0.0,0.0,0.0,0.0,0.0,0.0,0.0,0.0,0.0,0.0,0.0,0.0,0.0,0.0,0.0,0.0,0.0,0.0,0.0,0.0,0.0,0.0,0.0,0.0,0.0,0.0,0.0,0.0,0.0,0.0,0.0,0.0,0.0,0.0,0.0,0.0,0.0,0.0,0.0,0.0,0.0,0.0,0.0,0.0,0.0,0.0,0.0,0.0,0.0,0.0,0.0,0.0,0.0,0.0,0.0,0.0,0.0,0.0,0.0,0.0,0.0,0.0,0.0,0.0,0.0,0.0,0.0,0.0,0.0,0.0,0.0,0.0,0.0,0.0,0.0,0.0,0.0,0.0,0.0,0.0,0.0,0.0,0.0,0.0,0.0,0.0,0.0,0.0,0.0,0.0,0.0,0.0,0.0,0.0,0.0,0.0,0.0,0.0,0.0,0.0,0.0,0.0,0.0,0.0,0.0,0.0,0.0,0.0,0.0,0.0,0.0,0.0,0.0,0.0,0.0,0.0,0.0,0.0,0.0,0.0,0.0,0.0,0.0,0.0,0.0,0.0,0.0,0.0,0.0,0.0,0.0,0.0,0.0,0.0,0.0,0.0,0.0,0.0,0.0,0.0,0.0,0.0,0.0,0.0,0.0,0.0,0.0,0.0,0.0,0.0,0.0,0.0,0.0,0.0,0.0,0.0,0.0,0.0,0.0,0.0,0.0,0.0,0.0,0.0,0.0,0.0,0.0,0.0,0.0,0.0,0.0,0.0,0.0,0.0,0.0,0.0,0.0,0.0,0.0,0.0,0.0,0.0,0.0,0.0,0.0,0.0,0.0,0.0,0.0,0.0,0.0,0.0,0.0,0.0,0.0,0.0,0.0,0.0,0.0,0.0,0.0,0.0,0.0,0.0,0.0,0.0,0.0,0.0,0.0,0.0,0.0,0.0,0.0,0.0,0.0,0.0,0.0,0.0,0.0,0.0,0.0,0.0,0.0,0.0,0.0,0.0,0.0,0.0,0.0,0.0,0.0,0.0,0.0,0.0,0.0,0.0,0.0,0.0,0.0,0.0,0.0,0.0,0.0,0.0,0.0,0.0,0.0,0.0,0.0,0.0,0.0,0.0,0.0,0.0,0.0,0.0,0.0,0.0,0.0,0.0,0.0,0.0,0.0,0.0,0.0,0.0,0.0,0.0,0.0,0.0,0.0,0.0,0.0,0.0,0.0,0.0,0.0,0.0,0.0,0.0,0.0,0.0,0.0,0.0,0.0,0.0,0.0,0.0,0.0,0.0,0.0,0.0,0.0,0.0,0.0,0.0,0.0,0.0,0.0,0.0,0.0,0.0,0.0,0.0,0.0,0.0,0.0,0.0,0.0,0.0,0.0,0.0,0.0,0.0,0.0,0.0,0.0,0.0,0.0,0.0,0.0,0.0,0.0,0.0,0.0,0.0,0.0,0.0,0.0,0.0,0.0,0.0,0.0,0.0,0.0,0.0,0.0,0.0,0.0,0.0,0.0,0.0,0.0,0.0,0.0,0.0,0.0,0.0,0.0,0.0,0.0,0.0,0.0,0.0,0.0,0.0,0.0,0.0,0.0,0.0,0.0,0.0,0.0,0.0,0.0,0.0,0.0,0.0,0.0,0.0,0.0,0.0,0.0,0.0,0.0,0.0,0.0,0.0,0.0,0.0,0.0,0.0,0.0,0.0,0.0,0.0,0.0,0.0,0.0,0.0,0.0,0.0,0.0,0.0,0.0,0.0,0.0,0.0,0.0,0.0,0.0,0.0,0.0,0.0,0.0,0.0,0.0,0.0,0.0,0.0,0.0,0.0,0.0,0.0,0.0,0.0,0.0,0.0,0.0,0.0,0.0,0.0,0.0,0.0,0.0,0.0,0.0,0.0,0.0,0.0,0.0,0.0,0.0,0.0,0.0,0.0,0.0,0.0,0.0,0.0,0.0,0.0,0.0,0.0,0.0,0.0,0.0,0.0,0.0,0.0,0.0,0.0,0.0,0.0,0.0,0.0,0.0,0.0,0.0,0.0,0.0,0.0,0.0,0.0,0.0,0.0,0.0,0.0,0.0,0.0,0.0,0.0,0.0,0.0,0.0,0.0,0.0,0.0,0.0,0.0,0.0,0.0,0.0,0.0,0.0,0.0,0.0,0.0,0.0,0.0,0.0,0.0,0.0,0.0,0.0,0.0,0.0,0.0,0.0,0.0,0.0,0.0,0.0,0.0,0.0,0.0,0.0,0.0,0.0,0.0,0.0,0.0,0.0,0.0,0.0,0.0,0.0,0.0,0.0,0.0,0.0,0.0,0.0,0.0,0.0,0.0,0.0,0.0,0.0,0.0,0.0,0.0,0.0,0.0,0.0,0.0,0.0,0.0,0.0,0.0,0.0,0.0,0.0,0.0,0.0,0.0,0.0,0.0,0.0,0.0,0.0,0.0,0.0,0.0]}],[{"header":{"parameterUnit":"kt","parameterCategory":2,"dx":1,"dy":1,"la1":29.587661999999998,"la2":31.0,"lo1":-88.76705300000003,"lo2":-86.6583820000003,"nx":115,"ny":88,"refTime":"2022-10-16T18:00:00:Z","depth":0,"parameterNumber":2,"parameterNumberName":"V-component_of_WINDS"},"data":[9.808,9.8043,9.8101,9.8164,9.8267,9.8292,9.8351,9.8501,9.8609,9.8729,9.8828,9.8844,9.8779,9.8661,9.8698,9.8733,9.8729,9.8767,9.8821,9.8908,9.8913,9.8991,9.905,9.9184,9.9226,9.924,9.9202,9.916,9.9036,9.9036,9.8991,9.8769,9.8731,9.768,9.6343,9.4931,9.4007,9.2735,9.1574,9.0839,8.966,8.9371,8.9119,8.9145,8.9159,8.9008,8.8818,8.8853,8.8737,8.8661,8.8586,8.8966,8.9621,9.0452,9.1393,9.2712,9.4018,9.5311,9.6517,9.7572,9.812,9.8289,9.8953,9.8785,9.757,9.6685,9.5006,9.3268,9.129,8.948,8.9014,8.8399,8.8212,8.8211,8.7522,8.7369,8.7347,8.7513,8.7992,8.8746,8.9239,8.93,8.9426,8.9465,8.9962,8.912,8.7736,8.6855,8.5739,8.4117,8.2527,8.1435,8.0419,7.8914,7.7759,7.7603,7.7129,7.756,7.7891,7.817,7.8174,7.785,7.7134,7.5984,7.4884,7.3792,7.2857,7.2011,7.1582,7.1304,7.1227,7.1457,7.1935,7.2361,7.2586,9.7613,9.7687,9.7779,9.7891,9.7978,9.8,9.8127,9.8347,9.8407,9.8463,9.8555,9.8464,9.8407,9.8389,9.8426,9.8481,9.8537,9.8519,9.8646,9.8716,9.875,9.88,9.8903,9.8951,9.8945,9.8922,9.8938,9.8897,9.8763,9.8483,9.8266,9.8145,9.736,9.6237,9.5245,9.3615,9.1848,9.0902,9.0139,8.9351,8.9059,8.8826,8.8639,8.8759,8.8854,8.8276,8.7414,8.6824,8.6183,8.622,8.6484,8.7502,8.8594,8.9369,9.0221,9.1095,9.2411,9.3328,9.4395,9.581,9.6479,9.7057,9.827,9.7986,9.6592,9.5211,9.362,9.1767,8.9715,8.8333,8.8296,8.8073,8.8073,8.7979,8.679,8.5933,8.5913,8.595,8.6854,8.7888,8.7997,8.7879,8.7711,8.733,8.7095,8.6504,8.5633,8.4762,8.393,8.294,8.1889,8.0804,7.9654,7.8535,7.7396,7.6749,7.5958,7.6301,7.6601,7.7123,7.7445,7.743,7.6926,7.5771,7.4695,7.3673,7.2736,7.1783,7.1277,7.092,7.0997,7.115,7.1582,7.1859,7.2135,9.5873,9.5972,9.6982,9.7523,9.7641,9.7733,9.7847,9.8037,9.809,9.811,9.8027,9.8043,9.8043,9.8048,9.811,9.8209,9.8229,9.8309,9.8407,9.8501,9.8539,9.8556,9.8573,9.8609,9.8606,9.8606,9.8606,9.8534,9.8295,9.7903,9.708,9.6574,9.5266,9.3997,9.2783,9.1869,9.0617,8.9716,8.9057,8.87,8.8574,8.7619,8.7149,8.6808,8.6514,8.5758,8.517,8.5089,8.4691,8.4717,8.4717,8.6031,8.7263,8.8383,8.9239,8.9958,9.0783,9.1555,9.253,9.3638,9.4654,9.4753,9.5489,9.5809,9.4537,9.3096,9.1537,9.0513,8.8441,8.8124,8.8049,8.7992,8.7992,8.76,8.6524,8.5501,8.5204,8.537,8.6067,8.7019,8.7384,8.7276,8.7137,8.6784,8.6347,8.5793,8.5163,8.4488,8.3608,8.264,8.1479,8.0393,7.9101,7.7989,7.6942,7.6047,7.5178,7.5043,7.5193,7.5791,7.6476,7.6742,7.6827,7.5771,7.4695,7.3599,7.2511,7.1555,7.0997,7.0533,7.0611,7.0792,7.0997,7.1304,7.0943,9.4322,9.4533,9.6294,9.7125,9.7252,9.734,9.7462,9.7604,9.7687,9.7594,9.7437,9.7533,9.7627,9.7687,9.7779,9.7847,9.7928,9.7978,9.8122,9.8185,9.8206,9.8192,9.8215,9.8215,9.8235,9.8254,9.8292,9.8272,9.7954,9.6737,9.5596,9.4861,9.3371,9.2234,9.1191,9.026,8.9536,8.881,8.8325,8.8158,8.7543,8.6368,8.549,8.4928,8.4603,8.3917,8.3247,8.3173,8.3082,8.2951,8.3026,8.4154,8.5664,8.7556,8.8442,8.8764,8.9624,9.0052,9.0837,9.1809,9.2633,9.2802,9.3138,9.2909,9.2119,9.0695,8.9535,8.8701,8.8049,8.8029,8.8029,8.8008,8.7897,8.7225,8.6462,8.5609,8.4756,8.5103,8.5464,8.6164,8.6856,8.6952,8.6865,8.6537,8.6125,8.5563,8.4908,8.4139,8.3251,8.1742,8.0501,7.9633,7.845,7.7464,7.65,7.5558,7.4713,7.4419,7.4311,7.4798,7.5357,7.5873,7.6352,7.5496,7.4667,7.3599,7.2511,7.1479,7.0661,7.0119,7.0145,7.0354,7.0509,7.0223,6.9702,9.3888,9.4099,9.5897,9.6624,9.6843,9.6861,9.702,9.7165,9.702,9.6898,9.6978,9.715,9.7215,9.7277,9.7377,9.7499,9.7547,9.7618,9.7711,9.7802,9.7802,9.7824,9.7809,9.7809,9.7898,9.7978,9.7888,9.75,9.7431,9.5862,9.3934,9.3047,9.145,9.0542,8.9968,8.9151,8.8653,8.808,8.7818,8.7258,8.6235,8.553,8.5029,8.367,8.2998,8.2618,8.164,8.1055,8.0638,8.0214,8.0566,8.224,8.4196,8.6309,8.771,8.84,8.8624,8.8885,8.9332,9.019,9.0804,9.1399,9.2197,9.1747,9.0793,8.939,8.8883,8.8103,8.7971,8.7988,8.7925,8.7867,8.7824,8.7353,8.6294,8.5184,8.4496,8.4359,8.4938,8.5888,8.6535,8.6805,8.6706,8.6439,8.6018,8.5303,8.46,8.3752,8.2504,8.0569,7.9584,7.8843,7.7847,7.6906,7.6036,7.5248,7.431,7.3752,7.3642,7.3918,7.4031,7.4772,7.5689,7.5122,7.4396,7.3459,7.2408,7.1479,7.0584,6.9963,6.9755,6.9913,6.9599,6.9073,6.8545,9.263,9.3607,9.4419,9.537,9.6239,9.6594,9.6678,9.6706,9.6622,9.6622,9.6706,9.6779,9.6871,9.6834,9.6968,9.7047,9.7088,9.7165,9.7277,9.7315,9.7364,9.7426,9.7474,9.7486,9.7496,9.7149,9.6862,9.6352,9.5439,9.3858,9.219,9.1122,8.9668,8.9059,8.8783,8.8396,8.8012,8.7674,8.7023,8.6149,8.4813,8.346,8.2624,8.1418,8.0342,7.9917,7.9321,7.9302,7.9057,7.8737,7.8717,8.0487,8.3298,8.4415,8.5586,8.8041,8.8153,8.8115,8.819,8.8934,8.9045,8.9286,8.96,8.9691,8.8945,8.8569,8.8231,8.793,8.7909,8.7888,8.7803,8.7738,8.7613,8.7524,8.6171,8.482,8.4259,8.3808,8.4543,8.5617,8.6156,8.6513,8.6493,8.6189,8.5705,8.4562,8.3533,8.2549,8.0846,7.9066,7.8093,7.7601,7.6878,7.6202,7.5764,7.5,7.3986,7.3271,7.3007,7.2678,7.2583,7.3177,7.4025,7.4073,7.3942,7.3007,7.1956,7.1173,7.0429,6.9754,6.9362,6.9179,6.8732,6.8229,6.764,9.1965,9.3051,9.3744,9.4699,9.5769,9.6085,9.6247,9.6224,9.6187,9.6247,9.6299,9.6357,9.6394,9.6386,9.6501,9.6521,9.6605,9.666,9.6743,9.6861,9.6914,9.6994,9.7073,9.7077,9.6858,9.6354,9.559,9.4923,9.3789,9.1829,9.0276,8.944,8.8479,8.8115,8.7973,8.7883,8.7846,8.7491,8.6284,8.5284,8.395,8.2135,8.0744,7.9853,7.8853,7.8577,7.8338,7.8301,7.8302,7.8339,7.8543,7.9934,8.2827,8.3606,8.4739,8.7559,8.7967,8.7951,8.7971,8.7971,8.8124,8.8293,8.821,8.7988,8.7967,8.7962,8.7941,8.7803,8.776,8.7672,8.7583,8.7456,8.734,8.7135,8.6524,8.5335,8.4516,8.421,8.4468,8.5418,8.6021,8.6256,8.61,8.5706,8.4545,8.3246,8.1962,8.0533,7.8987,7.7369,7.6327,7.6106,7.551,7.493,7.4537,7.4101,7.3314,7.2725,7.2158,7.1745,7.1597,7.1843,7.2492,7.2874,7.3063,7.2458,7.1477,7.0916,7.0247,6.9597,6.8549,6.8235,6.7864,6.7486,6.6944,9.2277,9.2633,9.4412,9.5192,9.5264,9.5297,9.5431,9.5627,9.5695,9.5695,9.5659,9.578,9.5878,9.5872,9.5964,9.5988,9.6018,9.6085,9.6174,9.6328,9.6415,9.6309,9.643,9.6385,9.5673,9.5068,9.4222,9.3104,9.2279,9.0227,8.8788,8.7972,8.7708,8.7598,8.7538,8.7538,8.7538,8.714,8.6053,8.4759,8.3577,8.1564,7.9971,7.8969,7.8173,7.7861,7.7844,7.7938,7.7995,7.8589,7.9366,8.1051,8.2678,8.4232,8.5844,8.7139,8.7679,8.7781,8.7846,8.7846,8.7888,8.7867,8.7819,8.7716,8.7657,8.7694,8.765,8.7606,8.7538,8.7446,8.7329,8.721,8.7088,8.6791,8.648,8.5854,8.4924,8.4711,8.4877,8.5172,8.58,8.5914,8.5721,8.4568,8.3403,8.1887,8.0096,7.8632,7.6815,7.5249,7.4724,7.4456,7.4065,7.3564,7.3107,7.2658,7.2105,7.214,7.1492,7.0725,7.0647,7.0748,7.1124,7.1491,7.1955,7.1797,7.0792,7.0157,6.9637,6.8702,6.7503,6.6958,6.6077,6.5917,6.5307,9.244,9.3407,9.4371,9.4726,9.476,9.4726,9.4795,9.4899,9.5172,9.5271,9.5235,9.5268,9.5301,9.5301,9.5366,9.5362,9.5398,9.5495,9.5623,9.5654,9.5872,9.5288,9.488,9.4657,9.399,9.2804,9.1891,9.1145,9.0361,8.8654,8.7663,8.7247,8.7234,8.7186,8.7051,8.7026,8.7088,8.6816,8.5795,8.4469,8.3475,8.1743,7.9821,7.9078,7.8246,7.7621,7.7489,7.7599,7.7915,7.9033,8.007,8.1308,8.3461,8.4945,8.5824,8.7029,8.7606,8.7657,8.7694,8.7657,8.7569,8.7583,8.7478,8.7409,8.7409,8.7363,8.7377,8.7329,8.7258,8.7113,8.6963,8.6913,8.6758,8.6483,8.6202,8.6027,8.5333,8.5155,8.525,8.5322,8.5676,8.5623,8.54,8.3919,8.2302,8.0322,7.8306,7.6311,7.4404,7.3616,7.3009,7.2749,7.2392,7.215,7.1824,7.1247,7.1171,7.1402,7.0678,6.9738,6.9604,6.9296,6.9611,6.9924,6.987,6.9809,6.945,6.8741,6.7527,6.6592,6.5727,6.4932,6.4343,6.3406,6.2443,9.2748,9.3711,9.4048,9.4121,9.4011,9.4121,9.4194,9.4266,9.4517,9.4657,9.4657,9.4657,9.4657,9.4622,9.4622,9.4692,9.4654,9.4683,9.431,9.4196,9.3699,9.3298,9.3001,9.2602,9.2089,9.0804,8.9933,8.9238,8.8416,8.7458,8.6763,8.6643,8.6722,8.6653,8.6402,8.6456,8.6627,8.6543,8.5384,8.4358,8.4138,8.2048,8.0461,8.0376,7.9508,7.9092,7.9128,7.9308,7.9698,8.0501,8.1626,8.2665,8.4183,8.5628,8.6251,8.6937,8.7353,8.7386,8.7386,8.7269,8.7173,8.7076,8.6977,8.6977,8.7002,8.7002,8.6952,8.6876,8.6836,8.6669,8.6483,8.6429,8.6329,8.6068,8.5895,8.5682,8.5563,8.5447,8.5324,8.5324,8.5391,8.5365,8.4691,8.3308,8.1355,7.9337,7.699,7.4882,7.3532,7.2671,7.1948,7.1678,7.112,7.085,7.0397,6.9732,6.9498,6.9778,6.9347,6.8752,6.8271,6.791,6.7941,6.7735,6.7654,6.7542,6.6582,6.5745,6.4975,6.4008,6.278,6.1878,6.1531,6.087,5.9864,9.3253,9.3363,9.3556,9.3473,9.3233,9.355,9.3669,9.3745,9.3825,9.3937,9.3937,9.3937,9.3937,9.3937,9.3974,9.3833,9.3657,9.2726,9.2186,9.2174,9.1513,9.0662,9.0521,9.0482,8.9985,8.8931,8.8324,8.7559,8.6519,8.629,8.6282,8.6273,8.6125,8.5953,8.5599,8.58,8.6116,8.6156,8.4907,8.436,8.3959,8.2656,8.1781,8.1526,8.1092,8.0741,8.0729,8.0815,8.1218,8.1926,8.3013,8.3978,8.4871,8.6032,8.6583,8.6876,8.6913,8.6876,8.685,8.6627,8.652,8.6466,8.6466,8.6466,8.6502,8.6502,8.6439,8.6375,8.6356,8.6144,8.6003,8.5793,8.5712,8.5569,8.5386,8.523,8.5136,8.5008,8.4912,8.4847,8.498,8.4869,8.3837,8.2706,8.0722,7.8405,7.5815,7.4121,7.3076,7.2276,7.1667,7.1092,7.0131,6.9896,6.9402,6.8506,6.8005,6.8179,6.807,6.7645,6.7212,6.6656,6.5998,6.552,6.5181,6.4619,6.3718,6.2819,6.1565,6.0463,5.9464,5.9138,5.8905,5.8411,5.7418,9.2923,9.2923,9.3158,9.3114,9.2877,9.3154,9.3273,9.3316,9.3366,9.3482,9.3482,9.3482,9.3482,9.3482,9.3411,9.3059,9.2139,9.1505,9.0974,9.0294,8.9677,8.9335,8.881,8.836,8.7912,8.6768,8.6423,8.6489,8.5748,8.5695,8.5665,8.5569,8.5319,8.5163,8.5036,8.5319,8.5599,8.5742,8.5228,8.5083,8.4822,8.3626,8.2793,8.2684,8.1953,8.1681,8.1735,8.1915,8.2348,8.3166,8.3849,8.4705,8.5561,8.6271,8.6564,8.6637,8.6637,8.66,8.6493,8.6217,8.5837,8.5837,8.5873,8.5873,8.5844,8.5844,8.5902,8.5837,8.5807,8.5689,8.5539,8.5447,8.5293,8.5036,8.488,8.4817,8.465,8.4583,8.4519,8.4451,8.4383,8.4381,8.3671,8.3457,8.1344,7.8947,7.639,7.4439,7.3137,7.2057,7.1443,7.0563,6.96,6.902,6.8511,6.7689,6.7099,6.7148,6.6615,6.6327,6.6003,6.5229,6.4609,6.3844,6.2938,6.1871,6.1199,6.0646,5.9063,5.7294,5.6828,5.6719,5.6439,5.6058,5.4964,9.2597,9.2597,9.2638,9.2555,9.2437,9.2597,9.2638,9.2679,9.2731,9.2777,9.2777,9.2892,9.2972,9.2875,9.2557,9.1677,9.0905,9.0067,8.8902,8.8228,8.7586,8.7008,8.6712,8.6131,8.5981,8.5356,8.5167,8.5131,8.5167,8.5072,8.5076,8.485,8.4586,8.4415,8.4481,8.4713,8.4973,8.5127,8.5324,8.5355,8.5175,8.4346,8.3919,8.3853,8.2784,8.2758,8.2548,8.2723,8.3445,8.4183,8.4465,8.5103,8.5821,8.5959,8.6104,8.6104,8.6104,8.6068,8.6018,8.5593,8.5324,8.5324,8.5355,8.5391,8.5422,8.5391,8.5391,8.536,8.5329,8.5199,8.504,8.4944,8.4847,8.4583,8.4381,8.4279,8.4246,8.4211,8.4142,8.4176,8.4072,8.3967,8.3967,8.3967,8.1775,7.9413,7.6991,7.4715,7.3126,7.1906,7.1281,7.0473,6.9642,6.9032,6.8235,6.7247,6.6269,6.5691,6.5068,6.5096,6.5084,6.4156,6.3,6.2155,6.1238,6.0053,5.9031,5.8444,5.762,5.6416,5.556,5.4879,5.4131,5.3625,5.3982,9.2271,9.2194,9.2024,9.1939,9.1939,9.1897,9.1939,9.2024,9.1982,9.2024,9.2116,9.2158,9.2374,9.211,9.1131,9.0436,9.0034,8.7354,8.6476,8.5737,8.4817,8.4498,8.4531,8.4494,8.442,8.4414,8.4449,8.4483,8.4449,8.4347,8.4072,8.3789,8.3825,8.3896,8.4002,8.4106,8.431,8.465,8.485,8.4915,8.4912,8.484,8.4668,8.46,8.4901,8.51,8.4833,8.4794,8.502,8.4984,8.502,8.5375,8.5339,8.5442,8.5478,8.5478,8.5478,8.5416,8.5324,8.4941,8.4847,8.4948,8.4984,8.4915,8.4915,8.4984,8.5016,8.4951,8.4782,8.465,8.4516,8.4347,8.4279,8.4107,8.4072,8.3967,8.3896,8.3861,8.3861,8.3896,8.3896,8.379,8.3825,8.3645,8.1878,7.9166,7.6671,7.5301,7.3669,7.1749,7.1082,7.0473,6.9676,6.8848,6.8023,6.7073,6.6149,6.5373,6.4507,6.4252,6.3991,6.2674,6.1401,6.0604,5.9925,5.8259,5.6964,5.6813,5.6375,5.54,5.4758,5.4351,5.3693,5.2959,5.3271,9.1768,9.1365,9.1419,9.1463,9.1498,9.1498,9.1585,9.1759,9.1794,9.1846,9.1939,9.1947,9.1437,9.0541,8.9946,8.8591,8.6738,8.5752,8.4925,8.4195,8.3601,8.3465,8.3539,8.3575,8.3611,8.3647,8.3718,8.3647,8.3575,8.3428,8.3279,8.3054,8.3167,8.3242,8.3353,8.3538,8.3754,8.4037,8.4211,8.428,8.4315,8.4315,8.4245,8.4244,8.4276,8.4412,8.4412,8.4647,8.4814,8.4814,8.4814,8.4847,8.4811,8.4847,8.4847,8.4847,8.4814,8.4716,8.4516,8.4381,8.4245,8.421,8.4246,8.4383,8.4385,8.428,8.428,8.4349,8.421,8.4176,8.4107,8.4037,8.3861,8.3789,8.3718,8.3682,8.3574,8.3538,8.3538,8.3538,8.3538,8.3538,8.3465,8.3244,8.1652,7.8945,7.7185,7.588,7.3896,7.1657,7.0921,7.0424,6.9633,6.8848,6.799,6.7136,6.6073,6.5166,6.4126,6.3527,6.2842,6.1629,6.0515,5.9499,5.8689,5.7482,5.6537,5.5828,5.5049,5.4695,5.4312,5.3863,5.3281,5.2546,5.2385,9.0803,9.0517,9.0655,9.0655,9.0701,9.0701,9.0838,9.1019,9.1098,9.1198,9.134,9.1428,9.0672,8.9228,8.7974,8.6619,8.5188,8.4363,8.3672,8.3156,8.3086,8.3016,8.2984,8.2946,8.2908,8.2908,8.2908,8.2908,8.2637,8.2477,8.2398,8.2437,8.2594,8.271,8.2864,8.3019,8.3279,8.3462,8.3608,8.3753,8.386,8.3896,8.3896,8.3932,8.4001,8.4072,8.4072,8.4211,8.4279,8.4315,8.4279,8.4279,8.4315,8.4315,8.4279,8.4315,8.4141,8.4037,8.3896,8.3932,8.3967,8.3967,8.4002,8.3967,8.4002,8.4002,8.4002,8.3896,8.3789,8.3718,8.3645,8.3538,8.3427,8.3353,8.3279,8.3204,8.3169,8.3132,8.3171,8.3134,8.3132,8.3132,8.3094,8.2768,8.1603,7.9071,7.7243,7.5586,7.3461,7.1641,7.0921,7.0341,6.9547,6.8759,6.7944,6.7183,6.6122,6.5023,6.3982,6.3107,6.2192,6.1166,6.0257,5.9241,5.8265,5.7333,5.6449,5.5641,5.4822,5.4312,5.3888,5.3241,5.2653,5.1952,5.1626,8.9635,8.96,8.9635,8.9635,8.9635,8.9683,8.9826,9.0063,9.011,9.0251,9.0529,9.0425,8.9733,8.8234,8.598,8.4727,8.4003,8.3242,8.2729,8.2624,8.259,8.2477,8.2363,8.2324,8.2205,8.2205,8.2244,8.1958,8.1672,8.1713,8.1754,8.1802,8.2045,8.2249,8.2279,8.2481,8.2822,8.3013,8.3054,8.3277,8.3499,8.3572,8.3643,8.3645,8.3682,8.3718,8.3609,8.3789,8.3825,8.3896,8.3896,8.3896,8.3896,8.3896,8.3896,8.3754,8.3574,8.3391,8.3537,8.3572,8.3573,8.3682,8.3754,8.3825,8.3754,8.3682,8.3682,8.368,8.3463,8.3281,8.3167,8.2978,8.2864,8.2902,8.294,8.2902,8.2864,8.2943,8.2943,8.2905,8.2598,8.2598,8.2598,8.2214,8.1583,7.9297,7.7124,7.5007,7.3101,7.1884,7.1002,7.0183,6.9417,6.858,6.7792,6.7151,6.609,6.4921,6.4034,6.3213,6.2108,6.0941,6.0027,5.9067,5.8118,5.715,5.6139,5.5327,5.4567,5.3863,5.3241,5.2653,5.2018,5.1595,5.1194,8.8551,8.8551,8.8551,8.8551,8.8601,8.8802,8.9,8.9246,8.949,8.9683,8.975,8.8887,8.8215,8.7176,8.5056,8.3147,8.2237,8.2141,8.1905,8.1905,8.1905,8.1864,8.1707,8.1624,8.1548,8.159,8.1507,8.1213,8.0829,8.0915,8.1009,8.1094,8.134,8.1507,8.1555,8.1842,8.2039,8.2205,8.2363,8.2598,8.2714,8.2867,8.3016,8.3016,8.3016,8.3019,8.3054,8.3277,8.3316,8.3355,8.3428,8.3502,8.3538,8.3538,8.3355,8.3094,8.3016,8.2978,8.2911,8.2806,8.2563,8.2568,8.2879,8.2949,8.2951,8.2849,8.2951,8.3016,8.294,8.2902,8.2822,8.2822,8.2787,8.2749,8.2749,8.2787,8.271,8.2671,8.2633,8.2398,8.2114,8.1918,8.1877,8.1497,8.0288,7.8152,7.6442,7.436,7.2224,7.1263,7.08,6.9973,6.9287,6.849,6.7667,6.7009,6.6041,6.487,6.393,6.3053,6.1943,6.0771,5.9883,5.8949,5.7938,5.6845,5.5828,5.4885,5.421,5.3436,5.2718,5.206,5.1595,5.1127,5.0656,8.7902,8.7868,8.7868,8.7902,8.7868,8.8023,8.8229,8.845,8.8568,8.8397,8.785,8.7237,8.6221,8.4642,8.3096,8.2149,8.1377,8.1197,8.1282,8.1282,8.1282,8.1239,8.1035,8.0958,8.0915,8.0709,8.0437,8.0082,8.0037,8.0171,8.0171,8.0305,8.0569,8.0709,8.0761,8.1137,8.134,8.1465,8.1638,8.1842,8.1849,8.2165,8.2437,8.2442,8.252,8.252,8.2633,8.2752,8.2829,8.2978,8.3092,8.3094,8.2811,8.2348,8.1562,8.127,8.0639,8.0329,8.0363,8.036,8.043,8.043,8.0329,8.0639,8.1123,8.1471,8.1719,8.2202,8.2477,8.2319,8.2274,8.2194,8.2234,8.2234,8.2234,8.2229,8.2269,8.2269,8.2033,8.1754,8.1465,8.1256,8.1171,8.0204,7.8896,7.7371,7.57,7.3528,7.1184,7.0638,7.0466,6.9837,6.9331,6.8445,6.7481,6.6818,6.5974,6.4819,6.3803,6.2839,6.1777,6.0628,5.971,5.8685,5.7609,5.6475,5.5542,5.4593,5.3824,5.3136,5.2324,5.1595,5.1127,5.0588,4.9978,8.7164,8.7164,8.7164,8.7164,8.7164,8.7218,8.7344,8.7555,8.7241,8.6749,8.5883,8.5331,8.3591,8.2114,8.1599,8.1082,8.0453,8.0437,8.0569,8.0612,8.0569,8.0559,8.0349,8.0216,8.0004,7.9654,7.9274,7.9121,7.9168,7.9261,7.9308,7.94,7.9767,7.9959,8.0093,8.0359,8.0612,8.0656,8.0881,8.1052,8.1137,8.1431,8.1795,8.1918,8.1918,8.2039,8.2125,8.221,8.2368,8.2598,8.2671,8.2284,8.1255,8.001,7.9404,7.9088,7.8362,7.7981,7.7985,7.7747,7.7608,7.7542,7.7816,7.8331,7.8954,7.933,7.9671,8.0535,8.0898,8.1321,8.1423,8.1534,8.1534,8.1534,8.1534,8.1534,8.1492,8.1332,8.1044,8.0795,8.0743,8.0569,8.0083,7.9326,7.784,7.6247,7.455,7.2491,7.06,7.0015,6.9879,6.958,6.9233,6.8264,6.7261,6.6577,6.5726,6.451,6.3592,6.2598,6.1582,6.0515,5.936,5.821,5.7123,5.6166,5.529,5.4402,5.3566,5.2834,5.2018,5.1127,5.0439,4.971,4.9103,8.5998,8.5998,8.5965,8.5965,8.6053,8.6242,8.6374,8.6199,8.533,8.485,8.4256,8.2181,8.1355,8.0525,7.9947,7.9536,7.9387,7.9538,7.9676,7.9721,7.9721,7.963,7.9538,7.9308,7.8934,7.8329,7.8216,7.8168,7.8313,7.841,7.8506,7.8602,7.8981,7.9168,7.9308,7.9572,7.9721,7.9767,8.0093,8.0237,8.0359,8.0752,8.1001,8.1086,8.1086,8.1213,8.1389,8.1555,8.1651,8.1964,8.2199,8.05,7.8371,7.6993,7.6918,7.6918,7.6473,7.6136,7.6068,7.6273,7.6342,7.661,7.6507,7.6679,7.6815,7.6987,7.726,7.7774,7.8554,7.9531,8.0787,8.0915,8.0915,8.0949,8.0958,8.0992,8.0829,8.026,7.9902,7.9676,7.9676,7.9676,7.9171,7.8028,7.6619,7.5102,7.3413,7.1711,7.0261,6.932,6.9145,6.8836,6.8613,6.7806,6.7056,6.6286,6.5225,6.4147,6.3357,6.2381,6.1415,6.02,5.9008,5.785,5.6729,5.5792,5.4911,5.4017,5.3331,5.2637,5.1679,5.0453,4.9634,4.8859,4.7888,8.5718,8.5718,8.5718,8.5718,8.5718,8.5853,8.5485,8.479,8.4115,8.3122,8.1637,8.051,7.9432,7.8695,7.84,7.8265,7.8395,7.8554,7.8664,7.8664,7.8664,7.8664,7.8602,7.8119,7.7759,7.7461,7.7428,7.7528,7.7578,7.7677,7.7727,7.7776,7.8103,7.8265,7.8346,7.8554,7.8745,7.8934,7.9181,7.9459,7.9596,7.9947,8.0171,8.0127,8.0171,8.0271,8.0544,8.0675,8.0488,7.9938,7.8992,7.7423,7.5892,7.4962,7.4556,7.4319,7.388,7.3304,7.3304,7.3304,7.3304,7.3237,7.3271,7.371,7.4319,7.4522,7.4827,7.5647,7.6357,7.7339,7.8707,7.9451,8.0093,8.0127,8.0093,8.0127,7.9992,7.9274,7.8664,7.8664,7.8697,7.8697,7.7867,7.6194,7.4796,7.4088,7.2441,7.0219,6.8792,6.8535,6.831,6.8128,6.7931,6.7481,6.6722,6.5795,6.4716,6.3886,6.3006,6.2053,6.0764,5.9598,5.8515,5.7494,5.6341,5.54,5.4089,5.372,5.2965,5.1804,5.0604,4.971,4.8553,4.7117,4.6021,8.529,8.529,8.529,8.516,8.4869,8.4869,8.4026,8.2698,8.2342,8.0884,7.9265,7.8689,7.7878,7.6905,7.721,7.7361,7.7461,7.766,7.7776,7.7743,7.7727,7.7628,7.7245,7.6873,7.6546,7.6513,7.6719,7.6771,7.6822,7.6789,7.684,7.6891,7.7177,7.7278,7.7411,7.766,7.7825,7.8071,7.8362,7.8602,7.8792,7.9028,7.9168,7.9168,7.9168,7.9233,7.9329,7.9026,7.8325,7.7041,7.5483,7.4298,7.3366,7.2263,7.1519,7.1151,7.0182,6.9347,6.9347,6.9347,6.9381,6.9347,6.9414,7.0015,7.1418,7.1552,7.2263,7.3466,7.4134,7.4736,7.5794,7.7531,7.8366,7.8634,7.8868,7.9075,7.8711,7.8005,7.7612,7.7562,7.7562,7.7562,7.7431,7.509,7.357,7.2869,7.1069,6.8718,6.799,6.7714,6.7527,6.7387,6.7104,6.6722,6.5992,6.5345,6.4325,6.3486,6.2598,6.1637,5.9883,5.8512,5.7048,5.6119,5.5518,5.4274,5.268,5.2192,5.136,5.0329,4.9261,4.8143,4.6839,4.5243,4.3959,8.3982,8.3982,8.3982,8.3339,8.2285,8.2221,8.148,8.005,7.902,7.8189,7.755,7.6624,7.627,7.5992,7.6294,7.6533,7.6803,7.6854,7.7058,7.7076,7.6924,7.6462,7.5876,7.5612,7.5558,7.5558,7.559,7.5644,7.5749,7.5908,7.596,7.6013,7.6242,7.6481,7.67,7.6803,7.7058,7.7228,7.7478,7.7677,7.7776,7.794,7.8053,7.8053,7.802,7.7568,7.6963,7.5972,7.4382,7.241,7.2045,7.1065,6.9703,6.8494,6.7835,6.7539,6.6723,6.5866,6.5635,6.5932,6.5734,6.5866,6.5833,6.6162,6.744,6.7934,6.8527,6.9978,7.1098,7.1868,7.2681,7.4625,7.5911,7.6537,7.728,7.7398,7.6826,7.6468,7.6365,7.6365,7.6333,7.6333,7.5687,7.4203,7.2203,7.1316,6.9403,6.7644,6.7072,6.677,6.6529,6.6481,6.6189,6.5844,6.5345,6.487,6.393,6.303,6.2192,6.1048,5.9229,5.7401,5.581,5.4357,5.3639,5.2564,5.1386,5.0315,4.9302,4.8368,4.7561,4.6426,4.5194,4.3684,4.2068,8.3003,8.2064,8.2123,8.1332,8.0097,8.0034,7.9274,7.8071,7.7287,7.6686,7.5918,7.547,7.5377,7.5377,7.5612,7.5855,7.596,7.596,7.6065,7.6118,7.6013,7.5484,7.4806,7.4642,7.4642,7.4611,7.4837,7.4955,7.4978,7.5086,7.514,7.514,7.5216,7.5409,7.5601,7.5707,7.5887,7.617,7.6378,7.6636,7.6789,7.6859,7.6928,7.683,7.6133,7.5761,7.5385,7.44,7.2005,6.9028,6.8133,6.7438,6.6073,6.5293,6.5033,6.5,6.4523,6.409,6.409,6.4123,6.4165,6.4132,6.4123,6.448,6.4838,6.5033,6.5618,6.695,6.7698,6.8978,7.0344,7.1645,7.3141,7.4393,7.4257,7.3593,7.2979,7.3595,7.3956,7.4052,7.4052,7.402,7.3956,7.1603,7.0332,6.9501,6.7712,6.6727,6.6059,6.5695,6.5427,6.5427,6.5225,6.4941,6.4449,6.4034,6.3267,6.252,6.164,6.0514,5.8739,5.6723,5.497,5.3147,5.1969,5.1001,5.0305,4.9442,4.8065,4.6716,4.5748,4.4745,4.3536,4.2189,4.0555,8.152,8.0146,8.0083,7.9267,7.8042,7.7948,7.7194,7.6039,7.5944,7.5317,7.4626,7.4564,7.4674,7.4674,7.4892,7.5,7.5023,7.5077,7.5077,7.5194,7.4914,7.4281,7.3781,7.3669,7.37,7.3725,7.3924,7.4129,7.4098,7.4098,7.4098,7.4154,7.4122,7.4154,7.4296,7.4486,7.4728,7.5023,7.5238,7.5505,7.5718,7.5738,7.561,7.5247,7.4286,7.3606,7.304,7.2511,6.9939,6.5659,6.491,6.4155,6.3355,6.2855,6.2631,6.2546,6.229,6.1958,6.1958,6.2001,6.2034,6.2098,6.1766,6.2247,6.2567,6.2674,6.3379,6.4558,6.4943,6.5951,6.7956,6.8646,7.0093,7.2066,7.1336,7.0186,6.9908,7.0243,7.0692,7.0921,7.0974,7.1194,7.0921,6.9606,6.8146,6.7732,6.646,6.5062,6.493,6.4603,6.4242,6.4273,6.4251,6.393,6.3584,6.316,6.2623,6.1917,6.0826,5.9653,5.7972,5.6038,5.4045,5.1864,5.0516,4.9004,4.8508,4.8081,4.6787,4.5363,4.4246,4.3041,4.1868,4.1003,3.9446,7.93,7.8148,7.8086,7.7217,7.6034,7.5883,7.5168,7.4048,7.3867,7.3836,7.3743,7.3706,7.3737,7.3762,7.3787,7.3899,7.4091,7.4091,7.4233,7.4011,7.3362,7.276,7.2587,7.2587,7.2587,7.2644,7.2702,7.2733,7.2733,7.2733,7.276,7.279,7.2821,7.2993,7.3227,7.3341,7.3562,7.3949,7.406,7.4195,7.447,7.4556,7.4043,7.2719,7.2362,7.1394,6.9782,6.906,6.7244,6.411,6.2592,6.1946,6.1631,6.0854,6.0237,6.0174,5.8976,5.8586,5.8334,5.8649,5.8586,5.8649,5.8681,5.8755,6.006,6.0313,6.0938,6.249,6.2757,6.3437,6.4813,6.5464,6.6611,6.8791,6.8231,6.7589,6.7331,6.6412,6.6782,6.7284,6.7284,6.7601,6.8772,6.7641,6.6757,6.6335,6.508,6.4126,6.3847,6.3532,6.319,6.3083,6.3083,6.2868,6.2598,6.2217,6.1748,6.0855,5.9595,5.8452,5.7028,5.5322,5.3473,5.0967,4.8906,4.7336,4.6294,4.5966,4.5072,4.4496,4.3372,4.1462,4.0455,3.9829,3.872,7.6787,7.544,7.5378,7.4643,7.342,7.3359,7.3053,7.2596,7.2566,7.2624,7.2593,7.2736,7.2852,7.2821,7.2821,7.2848,7.2932,7.2963,7.2471,7.1561,7.1025,7.0845,7.0845,7.0845,7.0845,7.0815,7.0905,7.0845,7.0905,7.1115,7.1205,7.1265,7.1474,7.1682,7.1831,7.2008,7.2154,7.2327,7.2467,7.2241,7.1797,7.1812,7.1275,7.0062,6.9264,6.8491,6.764,6.4606,6.24,6.1142,6.0173,5.9236,5.857,5.8181,5.7796,5.7582,5.7136,5.6738,5.6649,5.6783,5.6858,5.6902,5.6947,5.7345,5.7699,5.7885,5.8609,6.0018,6.0421,6.1044,6.2544,6.3439,6.383,6.4028,6.4154,6.4214,6.4071,6.4499,6.5196,6.5294,6.5627,6.599,6.6111,6.5301,6.4454,6.431,6.3597,6.303,6.2922,6.246,6.2272,6.2137,6.1998,6.1777,6.1529,6.1193,6.0799,5.9681,5.842,5.7279,5.6183,5.454,5.319,5.0708,4.8647,4.727,4.6367,4.5459,4.4343,4.4173,4.3833,4.1889,4.019,3.9314,3.8225,7.4437,7.3043,7.2983,7.2379,7.1684,7.1624,7.1624,7.1624,7.1624,7.1624,7.1684,7.1801,7.1889,7.1889,7.174,7.1681,7.1622,7.1145,7.0238,6.9221,6.9188,6.9188,6.9158,6.9188,6.9188,6.9188,6.9312,6.9404,6.9437,6.9744,6.9838,6.9929,7.0143,7.0266,7.0327,7.042,7.0394,7.0186,7.0306,6.9823,6.8794,6.8541,6.7807,6.6529,6.5441,6.4764,6.4529,6.093,5.8756,5.8269,5.7463,5.6681,5.6216,5.6095,5.6019,5.5805,5.5759,5.5636,5.5391,5.5467,5.556,5.5606,5.582,5.5973,5.6019,5.6125,5.678,5.7805,5.8066,5.8804,6.0272,6.156,6.1275,5.9743,6.0627,6.1187,6.0613,6.1345,6.2403,6.2633,6.3054,6.3499,6.3559,6.3291,6.2524,6.2495,6.2276,6.2027,6.1972,6.1585,6.125,6.1279,6.0968,6.077,6.0486,6.0171,5.9449,5.8269,5.7184,5.6166,5.5185,5.3934,5.28,5.108,4.9231,4.7856,4.7081,4.611,4.4693,4.4027,4.3253,4.1984,4.0381,3.9072,3.7877,7.2162,7.1113,7.0964,7.0933,7.0873,7.0844,7.0904,7.0873,7.0844,7.0844,7.0813,7.0904,7.0844,7.0873,7.051,7.0297,6.9929,6.8743,6.785,6.7442,6.7693,6.7857,6.7886,6.7857,6.7857,6.7886,6.8206,6.8362,6.8334,6.8559,6.8685,6.8811,6.869,6.8579,6.8782,6.8525,6.8212,6.764,6.7438,6.7033,6.6119,6.5169,6.41,6.2652,6.1451,6.0556,5.9693,5.8133,5.6764,5.5789,5.4762,5.437,5.4742,5.5026,5.5056,5.4837,5.4807,5.4635,5.4307,5.4259,5.4307,5.4278,5.4587,5.4807,5.4807,5.5026,5.5368,5.5892,5.6031,5.6596,5.825,5.8648,5.8271,5.7475,5.8299,5.8478,5.7394,5.676,5.6793,5.7883,5.9001,5.9854,6.0869,6.1128,6.1213,6.1245,6.1193,6.1025,6.1025,6.0714,6.0515,6.0401,6.0142,5.9825,5.9535,5.9067,5.7998,5.6906,5.5917,5.519,5.4171,5.3194,5.2017,5.124,4.9353,4.8017,4.728,4.5816,4.4576,4.3875,4.2443,4.1346,4.0212,3.9059,3.7757,6.9881,6.9558,6.9466,6.9558,6.9528,6.9496,6.9528,6.9466,6.9528,6.9558,6.9528,6.9528,6.9466,6.9496,6.915,6.8582,6.7528,6.6867,6.6433,6.6339,6.65,6.6566,6.6538,6.65,6.6566,6.6538,6.6698,6.6698,6.6736,6.697,6.7073,6.7053,6.6544,6.6301,6.613,6.5389,6.4881,6.469,6.4576,6.4007,6.3101,6.2848,6.2271,6.0767,5.8362,5.6865,5.6562,5.5561,5.4814,5.4353,5.3438,5.2921,5.3148,5.3601,5.3777,5.3581,5.3679,5.3581,5.3156,5.3177,5.3198,5.2992,5.3218,5.3366,5.3366,5.365,5.3942,5.4222,5.4557,5.5086,5.5724,5.5413,5.49,5.4782,5.5849,5.6407,5.5869,5.6379,5.6673,5.6766,5.7174,5.7951,5.9072,5.9331,5.9792,6.0656,6.0629,6.0572,6.0515,6.0171,5.9796,5.9738,5.9271,5.8918,5.8389,5.7427,5.629,5.539,5.453,5.3979,5.3151,5.2142,5.1308,5.0781,4.971,4.8348,4.697,4.5505,4.4664,4.425,4.28,4.116,4.0228,3.9159,3.8081,6.8078,6.8078,6.8078,6.8107,6.8078,6.8078,6.8142,6.8078,6.8142,6.8107,6.8078,6.8078,6.8078,6.8107,6.7426,6.651,6.5577,6.5363,6.5228,6.5065,6.5065,6.4845,6.4516,6.4434,6.4269,6.3857,6.3802,6.3869,6.3974,6.4276,6.4473,6.44,6.3954,6.372,6.358,6.2882,6.2302,6.2028,6.1973,6.1446,6.0537,6.027,5.9757,5.8692,5.6835,5.5636,5.5249,5.4311,5.3613,5.3249,5.2256,5.1737,5.1789,5.2225,5.2354,5.2151,5.223,5.218,5.1952,5.1998,5.2049,5.1891,5.2145,5.2269,5.232,5.2578,5.2829,5.3041,5.3464,5.3473,5.3326,5.2879,5.2477,5.2591,5.3394,5.3902,5.408,5.4491,5.5151,5.5391,5.5369,5.5797,5.6789,5.7158,5.7668,5.866,5.8885,5.8967,5.9161,5.9095,5.8741,5.8682,5.8297,5.7697,5.7096,5.5766,5.4784,5.4017,5.3241,5.2743,5.2018,5.106,5.0202,4.9581,4.8833,4.757,4.6674,4.5208,4.4314,4.3769,4.2329,4.0964,4.0456,3.8501,3.7627,6.683,6.6895,6.6801,6.683,6.683,6.683,6.683,6.6867,6.683,6.6858,6.683,6.6801,6.6707,6.6369,6.5088,6.433,6.3906,6.3798,6.3539,6.3264,6.3249,6.2765,6.1731,6.1678,6.1115,6.0457,6.0403,6.0454,6.0673,6.0944,6.112,6.111,6.1056,6.0974,6.1011,6.082,6.0483,5.9657,5.9636,5.9237,5.8376,5.7214,5.6445,5.6253,5.6526,5.6203,5.5231,5.4305,5.3252,5.2134,5.1176,5.065,5.0702,5.0885,5.0909,5.0727,5.0702,5.0702,5.065,5.065,5.0755,5.0965,5.117,5.1377,5.1325,5.1611,5.184,5.2168,5.2038,5.1658,5.0937,5.0909,5.1038,5.1014,5.1093,5.1277,5.1433,5.1528,5.1834,5.2831,5.303,5.3339,5.4339,5.4644,5.5141,5.5827,5.618,5.6507,5.7263,5.7521,5.7515,5.7394,5.715,5.6483,5.5175,5.4248,5.363,5.2915,5.2126,5.1461,5.068,4.9865,4.9041,4.8258,4.7537,4.6785,4.6003,4.5094,4.4008,4.3008,4.165,4.0501,3.9811,3.7847,3.7057,6.6224,6.6196,6.6129,6.6129,6.6129,6.6196,6.6157,6.6129,6.5862,6.5728,6.5728,6.547,6.4341,6.2634,6.2078,6.1393,6.0565,6.0512,6.0418,6.0351,6.0284,6.0125,5.9859,5.9606,5.938,5.9049,5.8718,5.8651,5.8811,5.8944,5.8944,5.8812,5.8153,5.7796,5.7859,5.7064,5.6687,5.6762,5.6771,5.6637,5.6255,5.551,5.5084,5.5311,5.5489,5.5509,5.5439,5.3593,5.2401,5.2081,5.0219,4.926,4.9477,4.9369,4.9423,4.9718,4.9718,4.9719,4.9477,4.945,4.9531,4.9558,4.9611,4.9799,5.0094,5.0333,5.0517,5.0542,5.0012,4.9531,4.9206,4.9396,4.9558,4.9611,4.9772,4.9879,4.9958,4.9905,5.0068,5.0393,5.0529,5.0529,5.0909,5.175,5.27,5.3755,5.4591,5.5344,5.5495,5.6034,5.636,5.6387,5.6166,5.5201,5.3605,5.2824,5.2233,5.1595,5.0829,5.0154,5.0046,4.8812,4.7839,4.6603,4.6205,4.5438,4.435,4.36,4.2683,4.2288,4.1607,4.0696,3.94,3.8741,3.7916,6.4929,6.4957,6.4929,6.4929,6.4929,6.4957,6.4929,6.4957,6.463,6.4452,6.4138,6.2319,6.07,5.9275,5.9249,5.8842,5.7989,5.7963,5.7896,5.7854,5.7854,5.7595,5.7114,5.6954,5.6604,5.6151,5.5874,5.5833,5.5808,5.5808,5.5808,5.5705,5.5153,5.4926,5.5085,5.4467,5.4414,5.4937,5.4975,5.453,5.3734,5.3281,5.3125,5.3295,5.3425,5.3504,5.3297,5.1948,5.0879,5.0368,4.8818,4.7972,4.8083,4.7972,4.8028,4.8307,4.8362,4.8307,4.8304,4.8304,4.8304,4.8414,4.8443,4.8524,4.8715,4.9016,4.8962,4.8553,4.792,4.7724,4.7887,4.8054,4.8057,4.8138,4.8278,4.8417,4.8445,4.85,4.8555,4.861,4.8664,4.8691,4.877,4.9381,5.0229,5.1284,5.2363,5.3135,5.3592,5.4378,5.4881,5.4859,5.4286,5.3281,5.2233,5.1528,5.0992,5.0222,4.9283,4.8323,4.7934,4.6862,4.5561,4.4758,4.3927,4.3106,4.2299,4.1465,4.1094,4.0617,4.025,4.0148,3.9201,3.8585,3.7551,6.3501,6.3475,6.3501,6.3432,6.3405,6.3362,6.3336,6.3336,6.3202,6.287,6.1792,5.8388,5.6734,5.6539,5.6445,5.6181,5.5729,5.5804,5.5666,5.5439,5.5445,5.4897,5.4018,5.3808,5.3268,5.2407,5.2266,5.2274,5.234,5.2266,5.2192,5.2167,5.2142,5.2324,5.2628,5.2603,5.2995,5.3734,5.3605,5.2537,5.0767,5.0632,5.0699,5.0791,5.0938,5.0711,5.0453,4.9616,4.8849,4.7965,4.7116,4.6655,4.6737,4.6681,4.6605,4.656,4.6661,4.6718,4.6842,4.6975,4.7108,4.7389,4.7445,4.7419,4.7501,4.7612,4.722,4.632,4.6035,4.6206,4.6624,4.6624,4.6624,4.6681,4.6712,4.6712,4.6995,4.6995,4.7082,4.7332,4.7307,4.7363,4.7307,4.741,4.7739,4.8573,4.9684,5.0798,5.1454,5.2497,5.3281,5.2849,5.1969,5.1078,5.0699,5.0409,4.9865,4.9063,4.7706,4.6635,4.5797,4.447,4.2761,4.2508,4.132,4.0692,3.9656,3.8985,3.9246,3.8896,3.8904,3.8881,3.7903,3.7466,3.6428,6.3083,6.3083,6.2803,6.2452,6.2169,6.1904,6.1735,6.1657,6.0541,5.8961,5.7146,5.5872,5.4619,5.351,5.3159,5.2559,5.1787,5.1714,5.1739,5.1602,5.1602,5.1481,5.1196,5.0901,5.0601,5.0385,5.009,4.9863,4.9931,4.9931,4.9931,4.9931,4.9931,5.027,5.0925,5.0925,5.1236,5.1745,5.0222,4.9132,4.8674,4.865,4.8949,4.9474,4.8832,4.8842,4.9427,4.7842,4.6904,4.6876,4.5951,4.55,4.5732,4.55,4.5081,4.4728,4.5064,4.5015,4.4389,4.5007,4.5616,4.5905,4.5962,4.6052,4.6117,4.5277,4.4424,4.4247,4.4376,4.4611,4.4952,4.5059,4.5151,4.5302,4.5326,4.536,4.5418,4.5418,4.5476,4.5534,4.5534,4.5534,4.5534,4.5534,4.5657,4.6127,4.75,4.8685,4.9228,5.0654,5.1206,5.0473,4.9634,4.9224,4.911,4.8812,4.8443,4.8072,4.6746,4.5613,4.4596,4.3277,4.1904,4.0693,4.0028,3.9138,3.842,3.796,3.7641,3.764,3.7473,3.752,3.7376,3.6842,3.5537,6.2027,6.1982,6.1554,6.0912,6.011,5.9871,5.9447,5.8647,5.6337,5.4464,5.3225,5.2322,5.1447,5.0739,5.0345,4.9739,4.9087,4.911,4.8996,4.8858,4.8835,4.8927,4.9088,4.8904,4.8835,4.8997,4.8859,4.8628,4.8489,4.8466,4.8397,4.8188,4.8188,4.8535,4.9088,4.9088,4.9339,4.9703,4.798,4.6952,4.6811,4.6811,4.6799,4.6768,4.6227,4.5997,4.6086,4.5009,4.4441,4.4361,4.3428,4.3118,4.341,4.2815,4.2428,4.2237,4.2493,4.2428,4.1853,4.2242,4.2768,4.3468,4.3608,4.3468,4.293,4.2189,4.2004,4.2587,4.2768,4.3008,4.3331,4.3331,4.351,4.3808,4.3808,4.3891,4.4058,4.4141,4.4117,4.4117,4.4093,4.4117,4.4117,4.4117,4.4117,4.4237,4.5409,4.6869,4.7873,4.8824,4.8996,4.8188,4.7747,4.7514,4.7163,4.6926,4.6714,4.6381,4.5217,4.406,4.2927,4.1275,3.9709,3.8425,3.759,3.6862,3.607,3.5696,3.5792,3.605,3.5966,3.6211,3.6443,3.5988,3.4517,6.0567,6.0341,5.9833,5.8813,5.7496,5.7399,5.6661,5.5248,5.1735,5.0252,5.0111,4.8881,4.8281,4.8281,4.7911,4.7562,4.7374,4.7326,4.7138,4.6807,4.6736,4.6878,4.7182,4.7253,4.7394,4.7675,4.7697,4.7534,4.7253,4.7182,4.7041,4.6714,4.6736,4.6855,4.7163,4.7234,4.7211,4.7118,4.5982,4.5215,4.4783,4.4855,4.4479,4.3702,4.3531,4.304,4.2024,4.2103,4.1886,4.1234,4.0619,4.037,4.0525,3.9836,3.9373,3.9448,3.9481,3.9481,3.9481,3.929,3.9616,4.0631,4.0955,4.0467,3.9038,3.9224,3.9863,4.0932,4.1178,4.1391,4.1591,4.1736,4.1919,4.2223,4.2368,4.2512,4.2823,4.2884,4.2884,4.2884,4.2884,4.2884,4.2884,4.286,4.2884,4.3023,4.3775,4.4959,4.6432,4.6814,4.6457,4.6239,4.6097,4.5861,4.5553,4.5194,4.5071,4.4617,4.3548,4.2377,4.1244,3.9457,3.7675,3.5965,3.5184,3.4234,3.3478,3.3488,3.3747,3.4002,3.4177,3.4365,3.496,3.4167,3.2983,5.8947,5.8047,5.6983,5.5788,5.4455,5.4143,5.3615,5.2847,0.0,0.0,0.0,4.7086,4.6785,4.6763,4.6408,4.6217,4.6146,4.5839,4.5624,4.5574,4.5287,4.5143,4.5215,4.5215,4.5287,4.5359,4.5359,4.5287,4.5215,4.5237,4.5215,4.5143,4.5071,4.5122,4.5266,4.5553,4.4762,4.3013,4.296,4.2813,4.2464,4.2739,4.2605,4.199,4.1618,4.1202,4.092,4.0468,3.9894,3.92,3.9101,3.8721,3.8147,3.7983,3.754,3.6787,3.681,3.6899,3.6988,3.6844,3.7266,3.8396,3.852,3.8138,3.7153,3.7658,3.8152,3.8363,3.9116,3.9693,4.0006,4.0255,4.0548,4.092,4.1251,4.1475,4.1497,4.1581,4.1475,4.1581,4.1497,4.1581,4.152,4.152,4.1581,4.1632,4.2358,4.3392,4.4385,4.4471,4.4276,4.4472,4.4493,4.4566,4.4711,4.4493,4.4203,4.3672,4.2587,4.1502,4.0478,3.8801,3.7134,3.5768,3.453,3.3307,3.2241,3.1904,3.18,3.1876,3.206,3.2331,3.2489,3.1425,2.9909,5.6128,5.5253,5.4455,5.318,0.0,5.1516,5.0566,4.9032,4.7207,4.643,4.6453,4.5882,4.5574,4.5503,4.4927,4.4711,4.4711,4.4493,4.4255,4.413,4.3912,4.3839,4.3839,4.3839,4.3912,4.411,4.413,4.3912,4.3579,4.3579,4.3359,4.294,4.316,4.3254,4.3254,4.3641,4.2625,4.0241,4.0392,4.0392,4.0241,4.0392,4.0286,3.9837,3.921,0.0,0.0,0.0,0.0,0.0,0.0,0.0,0.0,0.0,0.0,3.3055,3.3065,3.3128,3.3181,3.3012,3.3472,3.4776,3.5184,3.469,3.3185,3.4378,3.5405,3.6039,3.6331,3.6682,3.7277,3.7399,3.7705,3.817,3.8433,3.8532,3.8658,3.8966,3.9209,3.9024,3.9496,3.9924,3.9946,4.0071,4.0049,4.0011,4.1117,4.2109,4.2378,4.2419,4.2404,4.2625,4.2665,4.2739,4.2813,4.2592,4.2276,4.2034,4.14,4.0398,3.9186,3.7648,3.6175,3.4809,3.3521,3.2377,3.163,3.1016,3.0768,3.0929,3.0696,3.0306,2.9469,2.8635,2.7629,5.3214,5.2297,5.1885,5.0702,4.9115,4.8806,4.7424,4.5431,4.5431,4.5431,4.5359,4.4783,4.4493,4.4421,4.3766,4.3401,4.3401,4.3181,4.296,4.2612,4.2518,4.237,4.2444,4.2444,4.2571,4.2887,4.2793,4.2404,4.1791,4.1697,4.14,4.0748,4.1011,4.1255,4.133,0.0,0.0,0.0,3.8003,3.7984,3.7984,3.8079,3.7868,3.7401,3.6904,0.0,3.617,3.5641,3.5159,3.4716,3.3889,0.0,0.0,0.0,0.0,0.0,0.0,0.0,0.0,0.0,0.0,0.0,3.1127,3.0821,2.9697,3.0987,3.2476,3.3763,3.3682,3.3781,3.4363,3.4503,3.4783,3.5418,3.5537,3.5575,3.5617,3.6262,3.6577,3.6168,3.7178,3.7946,3.7946,3.8282,3.8366,3.8299,3.9747,4.0461,3.9792,4.0015,4.033,4.0503,4.0636,4.0825,4.0975,4.075,4.0561,4.026,3.9978,3.9186,3.7824,3.6522,3.5024,3.3852,3.2317,3.1289,3.0879,3.0277,2.9817,3.0057,2.9291,2.8191,2.6543,2.6152,2.5702,5.0604,4.9642,4.8867,4.7946,4.6771,4.5459,4.4454,4.3839,4.3839,4.3839,4.3839,4.3766,4.3693,4.3693,4.3254,4.3054,4.2981,4.202,4.1444,4.1369,4.0731,4.043,4.0411,4.0411,4.043,4.0486,4.0034,3.9789,3.9713,3.9373,3.9127,3.8994,3.907,3.924,3.9467,3.6957,3.5745,3.5937,3.5625,3.5452,3.5452,3.5781,3.5655,3.4918,3.5438,3.5251,3.4253,3.4456,3.3874,3.2411,3.2167,3.1521,3.0277,2.9452,2.9008,0.0,2.68,0.0,0.0,0.0,0.0,0.0,0.0,0.0,0.0,2.9094,2.9876,3.1305,3.1763,3.2116,3.2423,3.2728,3.3216,3.38,3.4142,3.4243,3.4243,3.4403,3.4302,3.4019,3.4729,3.5263,3.5386,3.5915,3.635,3.6423,3.7697,3.7934,3.6405,3.6594,3.7373,3.789,3.8611,3.9296,3.9827,3.9827,3.9391,3.8992,3.8592,3.8133,3.7535,3.5666,3.41,3.3476,3.1696,3.0172,2.9379,2.8877,2.8421,2.7982,2.7358,2.623,2.4608,2.4127,2.3757,4.7856,4.6687,4.6325,4.5384,4.413,4.3474,4.3034,4.2887,4.2907,4.2622,4.2226,4.2246,4.1868,4.1095,4.0524,4.0165,3.9949,3.9319,3.8931,3.8923,3.855,3.8491,3.865,3.8209,3.7932,3.7764,3.7159,3.6553,3.6108,3.5942,3.5719,3.5587,3.5811,3.5193,3.3779,3.273,3.2444,3.301,3.3,3.2936,3.2936,3.2841,3.2858,3.2966,3.2937,3.2771,3.2554,3.2596,3.1903,3.0576,3.0479,2.9554,2.761,2.6699,2.5843,0.0,0.0,0.0,0.0,0.0,0.0,0.0,0.0,0.0,0.0,0.0,2.7643,2.7987,2.8578,2.916,2.956,2.9916,3.0331,3.0781,3.1075,3.1154,3.0978,3.1474,3.1638,3.1314,3.2129,3.2931,3.3338,3.3907,3.4332,3.4579,3.4655,3.4418,3.3687,3.4477,3.5491,3.5897,3.6946,3.7845,3.8228,3.817,3.8016,3.7655,3.6875,3.6043,3.561,3.3887,3.2382,3.1988,3.0631,2.924,2.846,2.7886,2.7255,2.6452,2.5207,2.3886,2.2775,2.229,2.1967,4.5348,4.4234,4.3484,4.2473,4.1308,4.1328,4.1308,4.1235,4.1162,4.0805,4.017,3.9972,3.9284,3.8317,3.7447,3.6953,3.6655,3.63,3.612,3.6046,3.6152,3.6247,3.6382,3.5762,3.5333,3.5075,3.4339,3.3608,3.3097,3.2783,3.2498,3.2116,3.1339,2.9953,2.8062,2.8571,2.9134,2.9672,3.0081,3.0329,3.0379,2.9976,3.0137,3.0905,3.0391,3.0209,3.0511,3.0397,2.9796,2.8529,2.8403,2.7366,2.5059,2.4113,0.0,0.0,0.0,0.0,0.0,0.0,0.0,0.0,0.0,2.1382,2.189,0.0,2.512,0.0,2.5366,2.608,2.6739,2.7048,0.0,0.0,2.7955,2.794,2.7722,2.8442,2.8768,2.8448,2.9423,3.0443,3.1049,3.1699,3.2148,3.2124,3.1527,3.1178,3.1558,3.2827,3.3751,3.3953,3.4972,3.5841,3.5866,3.5918,3.5883,3.5765,3.4735,3.3761,3.3308,3.1815,3.0614,3.0311,2.9363,2.8451,2.7676,2.7044,2.6182,2.4708,2.2938,2.1459,2.119,2.0561,1.9969,4.3536,4.2817,3.9888,3.8442,3.8088,3.8088,3.8088,3.8088,3.7662,3.7501,3.7368,3.6333,3.582,3.5639,3.4641,0.0,3.355,3.3447,3.3219,3.3057,3.3292,3.3412,3.3389,3.292,3.2756,3.2682,3.1953,3.1493,3.1429,3.0475,2.9845,2.9319,2.5463,2.3553,2.3791,2.4289,2.5182,2.6233,2.7119,2.7616,2.7716,2.7635,2.7811,2.8301,2.826,2.808,2.7771,2.8051,2.7531,2.6058,2.5851,2.5046,2.3368,0.0,0.0,0.0,0.0,0.0,0.0,0.0,0.0,0.0,0.0,0.0,0.0,0.0,0.0,0.0,2.2533,0.0,2.444,2.4562,0.0,0.0,0.0,2.5427,2.504,2.5585,2.5856,2.5624,0.0,0.0,2.7762,2.908,2.9625,2.8541,2.8672,2.9338,3.0612,3.0958,3.1176,3.1879,3.2502,3.279,3.298,3.3244,3.3244,3.2649,3.2173,3.1795,3.1063,2.9938,2.922,2.8995,2.8197,2.7365,2.6932,2.6056,2.4805,2.1792,2.0497,1.9739,1.9427,1.889,1.8183,4.0635,3.8223,3.6083,3.498,3.4655,3.4518,3.4634,3.5018,3.4806,3.4466,3.393,3.3351,3.2275,3.0993,3.042,0.0,0.0,0.0,2.921,2.9604,3.0123,3.0598,3.0983,3.0423,2.9875,2.9487,2.8328,2.7599,2.7201,2.6459,2.4858,2.2447,0.0,0.0,1.9968,2.1066,2.213,2.3174,2.4365,2.5152,2.5417,2.5676,2.5841,2.5994,2.5779,2.5564,2.553,2.5616,2.5014,2.3729,2.3261,2.2239,0.0,0.0,0.0,0.0,0.0,0.0,0.0,0.0,0.0,0.0,0.0,1.5753,1.6689,0.0,0.0,0.0,2.0136,2.0975,2.1979,2.2419,0.0,0.0,0.0,0.0,0.0,0.0,0.0,2.4203,2.4689,2.5328,2.6097,2.6134,2.585,2.5577,2.6321,2.7219,2.799,0.0,2.9732,2.9965,3.0827,3.1392,3.1408,3.154,3.1525,3.1243,3.0288,2.9437,2.9104,2.767,2.6681,2.6553,2.5871,2.5156,2.4559,2.3304,2.1662,1.9885,1.9117,1.8424,1.7642,1.7056,1.6396,3.6204,0.0,0.0,0.0,0.0,3.0308,3.0402,3.0696,3.0628,3.0258,2.9621,2.9093,0.0,0.0,0.0,0.0,0.0,0.0,2.5477,2.6089,2.6886,2.7622,2.8233,2.7606,2.6946,2.629,2.5084,2.4173,2.338,2.1879,1.9607,1.6734,0.0,0.0,0.0,0.0,1.9198,2.0197,2.1621,2.2582,2.3104,2.3532,2.3699,2.351,2.3308,2.3071,2.2866,2.2882,2.2356,2.1076,2.0403,0.0,0.0,0.0,0.0,0.0,0.0,0.0,0.0,0.0,0.0,0.0,0.0,0.0,0.0,0.0,0.0,0.0,0.0,0.0,1.8885,1.9779,2.0442,0.0,0.0,0.0,0.0,0.0,0.0,0.0,0.0,0.0,2.3766,2.3254,2.2949,0.0,0.0,2.5585,2.6036,2.7269,2.8196,2.8124,2.889,0.0,2.9227,2.9109,2.9121,2.9098,2.7906,2.6928,2.686,2.5565,2.456,2.4523,2.3901,2.2903,2.1438,1.9889,1.8643,1.7641,1.7159,1.6613,1.5875,1.5255,1.462,0.0,0.0,0.0,0.0,0.0,0.0,0.0,0.0,2.4537,2.4402,0.0,2.3257,0.0,0.0,0.0,0.0,2.035,2.1924,0.0,0.0,2.3522,2.4311,2.4646,2.4222,2.3767,2.3234,2.2577,2.1781,2.0644,1.6808,0.0,0.0,0.0,0.0,0.0,0.0,1.6068,1.7214,1.8743,1.9981,2.0709,2.1263,2.1263,2.0749,2.0849,2.0494,1.9655,1.9946,1.9386,1.7919,1.7222,0.0,0.0,0.0,0.0,0.0,0.0,0.0,0.0,0.0,0.0,0.0,0.0,0.0,0.0,0.0,0.0,0.0,0.0,0.0,0.0,1.6433,0.0,0.0,0.0,0.0,0.0,0.0,0.0,0.0,0.0,0.0,2.017,2.0518,2.1282,2.2435,0.0,0.0,0.0,0.0,2.6339,2.6283,2.6354,2.6168,2.5569,2.5484,2.5434,2.5311,0.0,0.0,2.4089,2.3637,2.3225,2.3014,2.2603,2.1129,1.7305,1.6342,1.568,1.4737,1.4369,1.4089,1.4022,1.3507,1.2982,0.0,0.0,0.0,0.0,0.0,0.0,0.0,0.0,0.0,2.0552,0.0,2.0105,0.0,0.0,0.0,0.0,0.0,0.0,0.0,0.0,2.0787,2.1393,2.1183,2.142,2.1064,0.0,1.939,1.7432,0.0,0.0,0.0,0.0,0.0,0.0,0.0,0.0,1.3614,1.4468,1.6406,1.7573,1.7825,1.9028,1.9503,1.9325,1.9454,1.898,1.7937,1.7217,1.6311,0.0,0.0,0.0,0.0,0.0,0.0,0.0,0.0,0.0,0.0,0.0,0.0,0.0,0.0,0.0,0.0,0.0,0.0,0.0,0.0,0.0,0.0,0.0,1.4957,0.0,0.0,0.0,0.0,0.0,0.0,0.0,0.0,0.0,1.7173,1.8091,1.9226,2.0139,2.1426,2.2492,2.3246,0.0,0.0,0.0,0.0,0.0,0.0,0.0,2.4279,2.3891,2.3674,2.3283,2.2441,2.1225,2.0296,1.9925,0.0,0.0,1.5305,1.4508,1.3977,1.3223,1.2755,1.2351,1.1934,1.1514,1.1015,0.0,0.0,0.0,0.0,0.0,0.0,0.0,0.0,0.0,1.6755,1.6755,0.0,0.0,0.0,0.0,0.0,0.0,0.0,0.0,0.0,0.0,0.0,1.8112,1.8457,0.0,0.0,0.0,0.0,0.0,0.0,0.0,0.0,0.0,0.0,0.0,0.0,1.1349,1.2206,1.4116,1.523,1.5413,1.6782,1.7466,1.7476,1.7536,1.7212,1.6287,0.0,0.0,0.0,0.0,0.0,0.0,0.0,0.0,0.0,0.0,0.0,0.0,0.0,0.0,0.0,0.0,0.0,0.0,0.0,0.0,0.0,0.0,0.0,0.0,0.0,1.262,0.0,0.0,0.0,0.0,0.0,0.0,0.0,0.0,0.0,0.0,0.0,1.7315,1.8284,1.96,2.0725,2.1519,2.2255,2.2755,0.0,0.0,0.0,0.0,0.0,0.0,0.0,0.0,0.0,0.0,0.0,0.0,0.0,0.0,1.4448,1.2909,1.2309,1.1817,1.1324,0.0,0.0,0.0,0.0,0.0,0.0,0.0,0.0,0.0,0.0,0.0,0.0,0.0,0.0,0.0,1.2994,0.0,0.0,1.2806,0.0,0.0,0.0,0.0,0.0,0.0,0.0,0.0,0.0,0.0,0.0,0.0,0.0,0.0,0.0,0.0,0.0,0.0,0.0,0.0,0.0,0.0,0.9412,1.0476,1.2022,1.3034,1.3554,1.459,1.5083,1.5114,1.5098,1.4941,1.4697,0.0,0.0,0.0,0.0,0.0,0.0,0.0,0.0,0.0,0.0,0.0,0.0,0.0,0.0,0.0,0.0,0.0,0.0,0.0,0.0,0.0,0.0,0.0,0.0,0.0,0.0,1.0922,1.2343,1.313,0.0,0.0,0.0,0.0,0.0,0.0,0.0,0.0,0.0,0.0,1.8174,1.9284,2.002,2.029,2.0508,2.0872,2.0581,2.0352,2.026,2.024,2.022,0.0,0.0,0.0,0.0,0.0,0.0,0.0,0.0,0.0,0.0,0.0,0.0,0.0,0.0,0.0,0.0,0.0,0.0,0.0,0.0,0.0,0.0,0.0,0.0,0.0,0.0,0.0,0.0,0.0,0.0,0.0,0.0,0.0,0.0,0.0,0.0,0.0,0.0,0.0,0.0,0.0,0.0,0.0,0.0,0.0,0.0,0.0,0.0,0.0,0.0,0.0,0.0,0.0,0.0,0.791,0.8905,1.0185,1.1096,1.131,1.2509,1.312,1.3209,1.3083,1.275,0.0,0.0,0.0,0.0,0.0,0.0,0.0,0.0,0.0,0.0,0.0,0.0,0.0,0.0,0.0,0.0,0.0,0.0,0.0,0.0,0.0,0.0,0.0,0.0,0.0,0.0,0.0,0.0,1.0598,1.1044,1.1254,0.0,0.0,0.0,0.0,0.0,0.0,0.0,0.0,0.0,0.0,1.7405,1.8147,1.8577,1.8815,1.8889,1.8815,1.8848,1.9098,1.9152,1.8994,1.8646,0.0,0.0,0.0,0.0,0.0,0.0,0.0,0.0,0.0,0.0,0.0,0.0,0.0,0.0,0.0,0.0,0.0,0.0,0.0,0.0,0.0,0.0,0.0,0.0,0.0,0.0,0.0,0.0,0.0,0.0,0.0,0.0,0.0,0.0,0.0,0.0,0.0,0.0,0.0,0.0,0.0,0.0,0.0,0.0,0.0,0.0,0.0,0.0,0.0,0.0,0.0,0.0,0.0,0.6492,0.7304,0.8574,0.943,0.9803,1.0645,1.1224,1.1662,1.1156,1.059,0.0,0.0,0.0,0.0,0.0,0.0,0.0,0.0,0.0,0.0,0.0,0.0,0.0,0.0,0.0,0.0,0.0,0.0,0.0,0.0,0.0,0.0,0.0,0.0,0.0,0.0,0.0,0.0,0.9099,0.9482,1.0036,0.0,0.0,0.0,0.0,0.0,0.0,0.0,0.0,0.0,0.0,1.5641,1.6661,1.6761,0.0,0.0,1.6965,1.7122,1.7519,1.7582,1.7446,1.7119,1.6355,0.0,0.0,0.0,0.0,0.0,0.0,0.0,0.0,0.0,0.0,0.0,0.0,0.0,0.0,0.0,0.0,0.0,0.0,0.0,0.0,0.0,0.0,0.0,0.0,0.0,0.0,0.0,0.0,0.0,0.0,0.0,0.0,0.0,0.0,0.0,0.0,0.0,0.0,0.0,0.0,0.0,0.0,0.0,0.0,0.0,0.0,0.0,0.0,0.0,0.0,0.0,0.0,0.0,0.5949,0.7003,0.799,0.8697,0.9027,0.9448,1.0061,0.9233,0.8509,0.0,0.0,0.0,0.0,0.0,0.0,0.0,0.0,0.0,0.0,0.0,0.0,0.0,0.0,0.0,0.0,0.0,0.0,0.0,0.0,0.0,0.0,0.0,0.0,0.0,0.0,0.0,0.0,0.0,0.0,0.0,0.0,0.0,0.0,0.0,0.0,0.0,0.0,0.0,0.0,0.0,1.3908,1.5416,1.4995,1.4614,0.0,1.5054,1.5194,1.5557,1.5591,1.557,1.5533,0.0,0.0,0.0,0.0,0.0,0.0,0.0,0.0,0.0,0.0,0.0,0.0,0.0,0.0,0.0,0.0,0.0,0.0,0.0,0.0,0.0,0.0,0.0,0.0,0.0,0.0,0.0,0.0,0.0,0.0,0.0,0.0,0.0,0.0,0.0,0.0,0.0,0.0,0.0,0.0,0.0,0.0,0.0,0.0,0.0,0.0,0.0,0.0,0.0,0.0,0.0,0.0,0.0,0.0,0.5104,0.5511,0.596,0.6571,0.6827,0.7234,0.7778,0.6937,0.0,0.0,0.0,0.0,0.0,0.0,0.0,0.0,0.0,0.0,0.0,0.0,0.0,0.0,0.0,0.0,0.0,0.0,0.0,0.0,0.0,0.0,0.0,0.0,0.0,0.0,0.0,0.6743,0.0,0.0,0.0,0.0,0.0,0.0,0.0,0.0,0.0,0.0,0.0,0.0,0.0,0.0,1.2981,1.3852,1.3793,1.3718,0.0,0.0,1.3926,1.4128,1.4074,1.3807,0.0,0.0,0.0,0.0,0.0,0.0,0.0,0.0,0.0,0.0,0.0,0.0,0.0,0.0,0.0,0.0,0.0,0.0,0.0,0.0,0.0,0.0,0.0,0.0,0.0,0.0,0.0,0.0,0.0,0.0,0.0,0.0,0.0,0.0,0.0,0.0,0.0,0.0,0.0,0.0,0.0,0.0,0.0,0.0,0.0,0.0,0.0,0.0,0.0,0.0,0.0,0.0,0.0,0.0,0.331,0.3965,0.4177,0.4539,0.4903,0.4904,0.5152,0.585,0.4754,0.3992,0.0,0.0,0.0,0.0,0.0,0.0,0.0,0.0,0.0,0.0,0.0,0.0,0.0,0.0,0.0,0.0,0.0,0.0,0.0,0.0,0.0,0.0,0.0,0.0,0.0,0.0,0.0,0.0,0.0,0.0,0.0,0.0,0.0,0.0,0.0,0.0,0.0,0.0,0.0,0.0,0.0,0.0,1.2308,1.2247,0.0,0.0,0.0,1.2301,1.2414,0.0,0.0,0.0,0.0,0.0,0.0,0.0,0.0,0.0,0.0,0.0,0.0,0.0,0.0,0.0,0.0,0.0,0.0,0.0,0.0,0.0,0.0,0.0,0.0,0.0,0.0,0.0,0.0,0.0,0.0,0.0,0.0,0.0,0.0,0.0,0.0,0.0,0.0,0.0,0.0,0.0,0.0,0.0,0.0,0.0,0.0,0.0,0.0,0.0,0.0,0.0,0.0,0.0,0.0,0.0,0.0,0.0,0.2823,0.3006,0.32,0.3328,0.298,0.3152,0.3791,0.2558,0.189,0.0,0.0,0.0,0.0,0.0,0.0,0.0,0.0,0.0,0.0,0.0,0.0,0.0,0.0,0.0,0.0,0.0,0.0,0.0,0.0,0.0,0.0,0.0,0.0,0.0,0.0,0.0,0.0,0.0,0.0,0.0,0.0,0.0,0.0,0.0,0.0,0.0,0.0,0.0,0.0,0.0,1.0627,1.0734,1.0631,1.0399,0.0,0.0,1.069,1.0614,1.0178,0.0,0.0,0.0,0.0,0.0,0.0,0.0,0.0,0.0,0.0,0.0,0.0,0.0,0.0,0.0,0.0,0.0,0.0,0.0,0.0,0.0,0.0,0.0,0.0,0.0,0.0,0.0,0.0,0.0,0.0,0.0,0.0,0.0,0.0,0.0,0.0,0.0,0.0,0.0,0.0,0.0,0.0,0.0,0.0,0.0,0.0,0.0,0.0,0.0,0.0,0.0,0.0,0.0,0.0,0.0,0.0,0.1982,0.2088,0.1957,0.1389,0.1251,0.1347,0.1475,0.08,0.0331,0.0,0.0,0.0,0.0,0.0,0.0,0.0,0.0,0.0,0.0,0.0,0.0,0.0,0.0,0.0,0.0,0.0,0.0,0.0,0.0,0.0,0.0,0.0,0.0,0.0,0.0,0.0,0.0,0.0,0.0,0.0,0.0,0.0,0.0,0.0,0.0,0.0,0.0,0.0,0.0,0.0,1.0055,0.9981,0.9824,0.0,0.0,0.0,0.0,0.8818,0.866,0.0,0.0,0.0,0.0,0.0,0.0,0.0,0.0,0.0,0.0,0.0,0.0,0.0,0.0,0.0,0.0,0.0,0.0,0.0,0.0,0.0,0.0,0.0,0.0,0.0,0.0,0.0,0.0,0.0,0.0,0.0,0.0,0.0,0.0,0.0,0.0,0.0,0.0,0.0,0.0,0.0,0.0,0.0,0.0,0.0,0.0,0.0,0.0,0.0,0.0,0.0,0.0,0.0,0.0,0.0,0.0,0.1424,0.1495,0.1067,0.0093,0.0,-0.0193,-0.0649,-0.1069,-0.1416,0.0,0.0,0.0,0.0,0.0,0.0,0.0,0.0,0.0,0.0,0.0,0.0,0.0,0.0,0.0,0.0,0.0,0.0,0.0,0.0,0.0,0.0,0.0,0.0,0.0,0.0,0.0,0.0,0.0,0.0,0.0,0.0,0.0,0.0,0.0,0.0,0.0,0.0,0.0,0.0,0.8573,0.8857,0.8319,0.0,0.0,0.0,0.0,0.0,0.0,0.637,0.589,0.0,0.0,0.0,0.0,0.0,0.0,0.0,0.0,0.0,0.0,0.0,0.0,0.0,0.0,0.0,0.0,0.0,0.0,0.0,0.0,0.0,0.0,0.0,0.0,0.0,0.0,0.0,0.0,0.0,0.0,0.0,0.0,0.0,0.0,0.0,0.0,0.0,0.0,0.0,0.0,0.0,0.0,0.0,0.0,0.0,0.0,0.0,0.0,0.0,0.0,0.0,0.0,0.0,0.0,0.0,0.0956,0.1073,0.0445,-0.0834,-0.0963,-0.1446,-0.2319,-0.2762,-0.3265,-0.4124,0.0,0.0,0.0,0.0,0.0,0.0,0.0,0.0,0.0,0.0,0.0,0.0,0.0,0.0,0.0,0.0,0.0,0.0,0.0,0.0,0.0,0.0,0.0,0.0,0.0,0.0,0.0,0.0,0.0,0.0,0.0,0.0,0.0,0.0,0.0,0.0,0.0,0.0,0.0,0.7622,0.7582,0.0,0.0,0.0,0.0,0.0,0.0,0.0,0.0,0.3479,0.0,0.0,0.0,0.0,0.0,0.0,0.0,0.0,0.0,0.0,0.0,0.0,0.0,0.0,0.0,0.0,0.0,0.0,0.0,0.0,0.0,0.0,0.0,0.0,0.0,0.0,0.0,0.0,0.0,0.0,0.0,0.0,0.0,0.0,0.0,0.0,0.0,0.0,0.0,0.0,0.0,0.0,0.0,0.0,0.0,0.0,0.0,0.0,0.0,0.0,0.0,0.0,0.0,0.0,0.0,0.0,0.0826,0.0,-0.139,-0.1829,-0.2507,-0.3433,-0.4102,-0.5277,-0.6873,0.0,0.0,0.0,0.0,0.0,0.0,0.0,0.0,0.0,0.0,0.0,0.0,0.0,0.0,0.0,0.0,0.0,0.0,0.0,0.0,0.0,0.0,0.0,0.0,0.0,0.0,0.0,0.0,0.0,0.0,0.0,0.0,0.0,0.0,0.0,0.0,0.0,0.0,0.7287,0.7145,0.0,0.0,0.0,0.0,0.0,0.0,0.0,0.0,0.2537,0.0,0.0,0.0,0.0,0.0,0.0,0.0,0.0,0.0,0.0,0.0,0.0,0.0,0.0,0.0,0.0,0.0,0.0,0.0,0.0,0.0,0.0,0.0,0.0,0.0,0.0,0.0,0.0,0.0,0.0,0.0,0.0,0.0,0.0,0.0,0.0,0.0,0.0,0.0,0.0,0.0,0.0,0.0,0.0,0.0,0.0,0.0,0.0,0.0,0.0,0.0,0.0,0.0,0.0,0.0,0.0,0.0,0.0,-0.0088,-0.1574,-0.2118,-0.2988,-0.4358,-0.5613,-0.6664,0.0,0.0,0.0,0.0,0.0,0.0,0.0,0.0,0.0,0.0,0.0,0.0,0.0,0.0,0.0,0.0,0.0,0.0,0.0,0.0,0.0,0.0,0.0,0.0,0.0,0.0,0.0,0.0,0.0,0.0,0.0,0.0,0.0,0.0,0.0,0.0,0.0,0.0,0.0,0.0,0.0,0.0,0.0,0.0,0.0,0.0,0.0,0.0,0.0,0.0,0.0,0.0,0.0,0.0,0.0,0.0,0.0,0.0,0.0,0.0,0.0,0.0,0.0,0.0,0.0,0.0,0.0,0.0,0.0,0.0,0.0,0.0,0.0,0.0,0.0,0.0,0.0,0.0,0.0,0.0,0.0,0.0,0.0,0.0,0.0,0.0,0.0,0.0,0.0,0.0,0.0,0.0,0.0,0.0,0.0,0.0,0.0,0.0,0.0,0.0,0.0,0.0,0.0,0.0,0.0,0.0,0.0,0.0,-0.0174,-0.1472,-0.221,-0.3372,-0.5002,-0.6624,-0.7698,0.0,0.0,0.0,0.0,0.0,0.0,0.0,0.0,0.0,0.0,0.0,0.0,0.0,0.0,0.0,0.0,0.0,0.0,0.0,0.0,0.0,0.0,0.0,0.0,0.0,0.0,0.0,0.0,0.0,0.0,0.0,0.0,0.0,0.0,0.0,0.0,0.0,0.0,0.0,0.0,0.0,0.0,0.0,0.0,0.0,0.0,0.0,0.0,0.0218,0.0,0.0,0.0,0.0,0.0,0.0,0.0,0.0,0.0,0.0,0.0,0.0,0.0,0.0,0.0,0.0,0.0,0.0,0.0,0.0,0.0,0.0,0.0,0.0,0.0,0.0,0.0,0.0,0.0,0.0,0.0,0.0,0.0,0.0,0.0,0.0,0.0,0.0,0.0,0.0,0.0,0.0,0.0,0.0,0.0,0.0,0.0,0.0,0.0,0.0,0.0,0.0,0.0,0.0,0.0,0.0,0.0,0.0,0.0,-0.0432,-0.1533,-0.2478,-0.3658,-0.5092,-0.6698,-0.8105,0.0,0.0,0.0,0.0,0.0,0.0,0.0,0.0,0.0,0.0,0.0,0.0,0.0,0.0,0.0,0.0,0.0,0.0,0.0,0.0,0.0,0.0,0.0,0.0,0.0,0.0,0.0,0.0,0.0,0.0,0.0,0.0,0.0,0.0,0.0,0.0,0.0,0.0,0.0,0.0,0.0,0.0,0.0,0.0,0.0,0.0,0.0,0.0,0.0,0.0,0.0,0.0,0.0,0.0,0.0,0.0,0.0,0.0,0.0,0.0,0.0,0.0,0.0,0.0,0.0,0.0,0.0,0.0,0.0,0.0,0.0,0.0,0.0,0.0,0.0,0.0,0.0,0.0,0.0,0.0,0.0,0.0,0.0,0.0,0.0,0.0,0.0,0.0,0.0,0.0,0.0,0.0,0.0,0.0,0.0,0.0,0.0,0.0,0.0,0.0,0.0,0.0,0.0,0.0,0.0,0.0,0.0,0.0,-0.0926,-0.1977,-0.3167,-0.4562,-0.6086,-0.7507,-0.8548,0.0,0.0,0.0,0.0,0.0,0.0,0.0,0.0,0.0,0.0,0.0,0.0,0.0,0.0,0.0,0.0,0.0,0.0,0.0,0.0,0.0,0.0,0.0,0.0,0.0,0.0,0.0,0.0,0.0,0.0,0.0,0.0,0.0,0.0,0.0,0.0,0.0,0.0,0.0,0.0,0.0,0.0,0.0,0.0,0.0,0.0,0.0,0.0,0.0,0.0,0.0,0.0,0.0,0.0,0.0,0.0,0.0,0.0,0.0,0.0,0.0,0.0,0.0,0.0,0.0,0.0,0.0,0.0,0.0,0.0,0.0,0.0,0.0,0.0,0.0,0.0,0.0,0.0,0.0,0.0,0.0,0.0,0.0,0.0,0.0,0.0,0.0,0.0,0.0,0.0,0.0,0.0,0.0,0.0,0.0,0.0,0.0,0.0,0.0,0.0,0.0,0.0,0.0,0.0,0.0,0.0,0.0,0.0,0.0,-0.2187,-0.374,-0.5203,-0.6718,-0.8008,-0.891,0.0,0.0,0.0,0.0,0.0,0.0,0.0,0.0,0.0,0.0,0.0,0.0,0.0,0.0,0.0,0.0,0.0,0.0,0.0,0.0,0.0,0.0,0.0,0.0,0.0,0.0,0.0,0.0,0.0,0.0,0.0,0.0,0.0,0.0,0.0,0.0,0.0,0.0,0.0,0.0,0.0,0.0,0.0,0.0,0.0,0.0,0.0,0.0,0.0,0.0,0.0,0.0,0.0,0.0,0.0,0.0,0.0,0.0,0.0,0.0,0.0,0.0,0.0,0.0,0.0,0.0,0.0,0.0,0.0,0.0,0.0,0.0,0.0,0.0,0.0,0.0,0.0,0.0,0.0,0.0,0.0,0.0,0.0,0.0,0.0,0.0,0.0,0.0,0.0,0.0,0.0,0.0,0.0,0.0,0.0,0.0,0.0,0.0,0.0,0.0,0.0,0.0,0.0,0.0,0.0,0.0,0.0,0.0,0.0,-0.1806,-0.403,-0.5618,-0.6587,-0.7858,-0.8771,0.0,0.0,0.0,0.0,0.0,0.0,0.0,0.0,0.0,0.0,0.0,0.0,0.0,0.0,0.0,0.0,0.0,0.0,0.0,0.0,0.0,0.0,0.0,0.0,0.0,0.0,0.0,0.0,0.0,0.0,0.0,0.0,0.0,0.0,0.0,0.0,0.0,0.0,0.0,0.0,0.0,0.0,0.0,0.0,0.0,0.0,0.0,0.0,0.0,0.0,0.0,0.0,0.0,0.0,0.0,0.0,0.0,0.0,0.0,0.0,0.0,0.0,0.0,0.0,0.0,0.0,0.0,0.0,0.0,0.0,0.0,0.0,0.0,0.0,0.0,0.0,0.0,0.0,0.0,0.0,0.0,0.0,0.0,0.0,0.0,0.0,0.0,0.0,0.0,0.0,0.0,0.0,0.0,0.0,0.0,0.0,0.0,0.0,0.0,0.0,0.0,0.0,0.0,0.0,0.0,0.0,0.0,0.0,0.0,-0.1199,-0.3646,-0.5487,-0.6415,-0.7972,-0.9091,-0.9747,0.0,0.0,0.0,0.0,0.0,0.0,0.0,0.0,0.0,0.0,0.0,0.0,0.0,0.0,0.0,0.0,0.0,0.0,0.0,0.0,0.0,0.0,0.0,0.0,0.0,0.0,0.0,0.0,0.0,0.0,0.0,0.0,0.0,0.0,0.0,0.0,0.0,0.0,0.0,0.0,0.0,0.0,0.0,0.0,0.0,0.0,0.0,0.0,0.0,0.0,0.0,0.0,0.0,0.0,0.0,0.0,0.0,0.0,0.0,0.0,0.0,0.0,0.0,0.0,0.0,0.0,0.0,0.0,0.0,0.0,0.0,0.0,0.0,0.0,0.0,0.0,0.0,0.0,0.0,0.0,0.0,0.0,0.0,0.0,0.0,0.0,0.0,0.0,0.0,0.0,0.0,0.0,0.0,0.0,0.0,0.0,0.0,0.0,0.0,0.0,0.0,0.0,0.0,0.0,0.0,0.0,0.0,0.0,-0.063,-0.3298,-0.5207,-0.6088,-0.7765,-0.9062,0.0,0.0,0.0,0.0,0.0,0.0,0.0,0.0,0.0,0.0,0.0,0.0,0.0,0.0,0.0,0.0,0.0,0.0,0.0,0.0,0.0,0.0,0.0,0.0,0.0,0.0,0.0,0.0,0.0,0.0,0.0,0.0,0.0,0.0,0.0,0.0,0.0,0.0,0.0,0.0,0.0,0.0,0.0,0.0,0.0,0.0,0.0,0.0,0.0,0.0,0.0,0.0,0.0,0.0,0.0,0.0,0.0,0.0,0.0,0.0,0.0,0.0,0.0,0.0,0.0,0.0,0.0,0.0,0.0,0.0,0.0,0.0,0.0,0.0,0.0,0.0,0.0,0.0,0.0,0.0,0.0,0.0,0.0,0.0,0.0,0.0,0.0,0.0,0.0,0.0,0.0,0.0,0.0,0.0,0.0,0.0,0.0,0.0,0.0,0.0,0.0,0.0,0.0,0.0,0.0,0.0,0.0,0.0,0.1258,-0.0068,-0.293,-0.4749,-0.524,-0.7168,-0.8634,0.0,0.0,0.0,0.0,0.0,0.0,0.0,0.0,0.0,0.0,0.0,0.0,0.0,0.0,0.0,0.0,0.0,0.0,0.0,0.0,0.0,0.0,0.0,0.0,0.0,0.0,0.0,0.0,0.0,0.0,0.0,0.0,0.0,0.0,0.0,0.0,0.0,0.0,0.0,0.0,0.0,0.0,0.0,0.0,0.0,0.0,0.0,0.0,0.0,0.0,0.0,0.0,0.0,0.0,0.0,0.0,0.0,0.0,0.0,0.0,0.0,0.0,0.0,0.0,0.0,0.0,0.0,0.0,0.0,0.0,0.0,0.0,0.0,0.0,0.0,0.0,0.0,0.0,0.0,0.0,0.0,0.0,0.0,0.0,0.0,0.0,0.0,0.0,0.0,0.0,0.0,0.0,0.0,0.0,0.0,0.0,0.0,0.0,0.0,0.0,0.0,0.0,0.0,0.0,0.0,0.0,0.0,0.0,0.0,-0.0397,0.0,-0.4611,0.0,-0.7072,-0.8689,0.0,0.0,0.0,0.0,0.0,0.0,0.0,0.0,0.0,0.0,0.0,0.0,0.0,0.0,0.0,0.0,0.0,0.0,0.0,0.0,0.0,0.0,0.0,0.0,0.0,0.0,0.0,0.0,0.0,0.0,0.0,0.0,0.0,0.0,0.0,0.0,0.0,0.0,0.0,0.0,0.0,0.0,0.0,0.0,0.0,0.0,0.0,0.0,0.0,0.0,0.0,0.0,0.0,0.0,0.0,0.0,0.0,0.0,0.0,0.0,0.0,0.0,0.0,0.0,0.0,0.0,0.0,0.0,0.0,0.0,0.0,0.0,0.0,0.0,0.0,0.0,0.0,0.0,0.0,0.0,0.0,0.0,0.0,0.0,0.0,0.0,0.0,0.0,0.0,0.0,0.0,0.0,0.0,0.0,0.0,0.0,0.0,0.0,0.0,0.0,0.0,0.0,0.0,0.0,0.0,0.0,0.0,0.0,0.0,-0.0589,-0.2354,-0.3986,-0.5471,-0.7097,-0.8724,0.0,0.0,0.0,0.0,0.0,0.0,0.0,0.0,0.0,0.0,0.0,0.0,0.0,0.0,0.0,0.0,0.0,0.0,0.0,0.0,0.0,0.0,0.0,0.0,0.0,0.0,0.0,0.0,0.0,0.0,0.0,0.0,0.0,0.0,0.0,0.0,0.0,0.0,0.0,0.0,0.0,0.0,0.0,0.0,0.0,0.0,0.0,0.0,0.0,0.0,0.0,0.0,0.0,0.0,0.0,0.0,0.0,0.0,0.0,0.0,0.0,0.0,0.0,0.0,0.0,0.0,0.0,0.0,0.0,0.0,0.0,0.0,0.0,0.0,0.0,0.0,0.0,0.0,0.0,0.0,0.0,0.0,0.0,0.0,0.0,0.0,0.0,0.0,0.0,0.0,0.0,0.0,0.0,0.0,0.0,0.0,0.0,0.0,0.0,0.0,0.0,0.0,0.0,0.0,0.0,0.0,0.0,0.0,0.0,0.0,-0.1308,-0.2938,-0.5677,-0.7224,-0.8712,0.0,0.0,0.0,0.0,0.0,0.0,0.0,0.0,0.0,0.0,0.0,0.0,0.0,0.0,0.0,0.0,0.0,0.0,0.0,0.0,0.0,0.0,0.0,0.0,0.0,0.0,0.0,0.0,0.0,0.0,0.0,0.0,0.0,0.0,0.0,0.0,0.0,0.0,0.0,0.0,0.0,0.0,0.0,0.0,0.0,0.0,0.0,0.0,0.0,0.0,0.0,0.0,0.0,0.0,0.0,0.0,0.0,0.0,0.0,0.0,0.0,0.0,0.0,0.0,0.0,0.0,0.0,0.0,0.0,0.0,0.0,0.0,0.0,0.0,0.0,0.0,0.0,0.0,0.0,0.0,0.0,0.0,0.0,0.0,0.0,0.0,0.0,0.0,0.0,0.0,0.0,0.0,0.0,0.0,0.0,0.0,0.0,0.0,0.0,0.0,0.0,0.0,0.0,0.0,0.0,0.0,0.0,0.0,0.0,0.0,-0.1569,0.0,-0.4695,-0.679,-0.8687,-1.027,0.0,0.0,0.0,0.0,0.0,0.0,0.0,0.0,0.0,0.0,0.0,0.0,0.0,0.0,0.0,0.0,0.0,0.0,0.0,0.0,0.0,0.0,0.0,0.0,0.0,0.0,0.0,0.0,0.0,0.0,0.0,0.0,0.0,0.0,0.0,0.0,0.0,0.0,0.0,0.0,0.0,0.0,0.0,0.0,0.0,0.0,0.0,0.0,0.0,0.0,0.0,0.0,0.0,0.0,0.0,0.0,0.0,0.0,0.0,0.0,0.0,0.0,0.0,0.0,0.0,0.0,0.0,0.0,0.0,0.0,0.0,0.0,0.0,0.0,0.0,0.0,0.0,0.0,0.0,0.0,0.0,0.0,0.0,0.0,0.0,0.0,0.0,0.0,0.0,0.0,0.0,0.0,0.0,0.0,0.0,0.0,0.0,0.0,0.0,0.0,0.0,0.0,0.0,0.0,0.0,0.0,0.0,0.0,0.0,0.0,0.0,-0.4116,-0.6084,-0.7985,0.0,0.0,0.0,0.0,0.0,0.0,0.0,0.0,0.0,0.0,0.0,0.0,0.0,0.0,0.0,0.0,0.0,0.0,0.0,0.0,0.0,0.0,0.0,0.0,0.0,0.0,0.0,0.0,0.0,0.0,0.0,0.0,0.0,0.0,0.0,0.0,0.0,0.0,0.0,0.0,0.0,0.0,0.0,0.0,0.0,0.0,0.0,0.0,0.0,0.0,0.0,0.0,0.0,0.0,0.0,0.0,0.0,0.0,0.0,0.0,0.0,0.0,0.0,0.0,0.0,0.0,0.0,0.0,0.0,0.0,0.0,0.0,0.0,0.0,0.0,0.0,0.0,0.0,0.0,0.0,0.0,0.0,0.0,0.0,0.0,0.0,0.0,0.0,0.0,0.0,0.0,0.0,0.0,0.0,0.0,0.0,0.0,0.0,0.0,0.0,0.0,0.0,0.0,0.0,0.0,0.0,0.0,0.0,0.0,0.0,0.0,-0.334,-0.3874,-0.5156,0.0,-0.9224,0.0,0.0,0.0,0.0,0.0,0.0,0.0,0.0,0.0,0.0,0.0,0.0,0.0,0.0,0.0,0.0,0.0,0.0,0.0,0.0,0.0,0.0,0.0,0.0,0.0,0.0,0.0,0.0,0.0,0.0,0.0,0.0,0.0,0.0,0.0,0.0,0.0,0.0,0.0,0.0,0.0,0.0,0.0,0.0,0.0,0.0,0.0,0.0,0.0,0.0,0.0,0.0,0.0,0.0,0.0,0.0,0.0,0.0,0.0,0.0,0.0,0.0,0.0,0.0,0.0,0.0,0.0,0.0,0.0,0.0,0.0,0.0,0.0,0.0,0.0,0.0,0.0,0.0,0.0,0.0,0.0,0.0,0.0,0.0,0.0,0.0,0.0,0.0,0.0,0.0,0.0,0.0,0.0,0.0,0.0,0.0,0.0,0.0,0.0,0.0,0.0,0.0,0.0,0.0,0.0,0.0,0.0,0.0,0.0,0.0,0.0,0.0,-0.5141,-0.654,-0.797,0.0,0.0,0.0,0.0,0.0,0.0,0.0,0.0,0.0,0.0,0.0,0.0,0.0,0.0,0.0,0.0,0.0,0.0,0.0,0.0,0.0,0.0,0.0,0.0,0.0,0.0,0.0,0.0,0.0,0.0,0.0,0.0,0.0,0.0,0.0,0.0,0.0,0.0,0.0,0.0,0.0,0.0,0.0,0.0,0.0,0.0,0.0,0.0,0.0,0.0,0.0,0.0,0.0,0.0,0.0,0.0,0.0,0.0,0.0,0.0,0.0,0.0,0.0,0.0,0.0,0.0,0.0,0.0,0.0,0.0,0.0,0.0,0.0,0.0,0.0,0.0,0.0,0.0,0.0,0.0,0.0,0.0,0.0,0.0,0.0,0.0,0.0,0.0,0.0,0.0,0.0,0.0,0.0,0.0,0.0,0.0,0.0,0.0,0.0,0.0,0.0,0.0,0.0,0.0,0.0,0.0,0.0,0.0,0.0,0.0,-0.3509,-0.399,-0.5184,-0.6292,-0.7315,0.0,0.0,0.0,0.0,0.0,0.0,0.0,0.0,0.0,0.0,0.0,0.0,0.0,0.0,0.0,0.0,0.0,0.0,0.0,0.0,0.0,0.0,0.0,0.0,0.0,0.0,0.0,0.0,0.0,0.0,0.0,0.0,0.0,0.0,0.0,0.0,0.0,0.0,0.0,0.0,0.0,0.0,0.0,0.0,0.0,0.0,0.0,0.0,0.0,0.0,0.0,0.0,0.0,0.0,0.0,0.0,0.0,0.0,0.0,0.0,0.0,0.0,0.0,0.0,0.0,0.0,0.0,0.0,0.0,0.0,0.0,0.0,0.0,0.0,0.0,0.0,0.0,0.0,0.0,0.0,0.0,0.0,0.0,0.0,0.0,0.0,0.0,0.0,0.0,0.0,0.0,0.0,0.0,0.0,0.0,0.0,0.0,0.0,0.0,0.0,0.0,0.0,0.0,0.0,0.0,0.0,0.0,0.0,0.0,0.0,0.0,0.0,0.0,0.0,-0.7023,0.0,0.0,0.0,0.0,0.0,0.0,0.0,0.0,0.0,0.0,0.0,0.0,0.0,0.0,0.0,0.0,0.0,0.0,0.0,0.0,0.0,0.0,0.0,0.0,0.0,0.0,0.0,0.0,0.0,0.0,0.0,0.0,0.0,0.0,0.0,0.0,0.0,0.0,0.0,0.0,0.0,0.0,0.0,0.0,0.0,0.0,0.0,0.0,0.0,0.0,0.0,0.0,0.0,0.0,0.0,0.0,0.0,0.0,0.0,0.0,0.0,0.0,0.0,0.0,0.0,0.0,0.0,0.0,0.0,0.0,0.0,0.0,0.0,0.0,0.0,0.0,0.0,0.0,0.0,0.0,0.0,0.0,0.0,0.0,0.0,0.0,0.0,0.0,0.0,0.0,0.0,0.0,0.0,0.0,0.0,0.0,0.0,0.0,0.0,0.0,0.0,0.0,0.0,0.0,0.0,0.0,0.0,0.0,0.0,0.0,0.0,0.0,0.0,0.0,0.0,0.0,0.0,0.0,0.0,0.0,0.0,0.0,0.0,0.0,0.0,0.0,0.0,0.0,0.0,0.0,0.0,0.0,0.0,0.0,0.0,0.0,0.0,0.0,0.0,0.0,0.0,0.0,0.0,0.0,0.0,0.0,0.0,0.0,0.0,0.0,0.0,0.0,0.0,0.0,0.0,0.0,0.0,0.0,0.0,0.0,0.0,0.0,0.0,0.0,0.0,0.0,0.0,0.0,0.0,0.0,0.0,0.0,0.0,0.0,0.0,0.0,0.0,0.0,0.0,0.0,0.0,0.0,0.0,0.0,0.0,0.0,0.0,0.0,0.0,0.0,0.0,0.0,0.0,0.0,0.0,0.0,0.0,0.0,0.0,0.0,0.0,0.0,0.0,0.0,0.0,0.0,0.0,0.0,0.0,0.0,0.0,0.0,0.0,0.0,0.0,0.0,0.0,0.0,0.0,0.0,0.0,0.0,0.0,0.0,0.0,0.0,0.0,0.0,0.0,0.0,0.0,0.0,0.0,0.0,0.0,0.0,0.0,0.0,0.0,0.0,0.0,0.0,0.0,0.0,0.0,0.0,0.0,0.0,0.0,0.0,0.0,0.0,0.0,0.0,0.0,0.0,0.0,0.0,0.0,0.0,0.0,0.0,0.0,0.0,0.0,0.0,0.0,0.0,0.0,0.0,0.0,0.0,0.0,0.0,0.0,0.0,0.0,0.0,0.0,0.0,0.0,0.0,0.0,0.0,0.0,0.0,0.0,0.0,0.0,0.0,0.0,0.0,0.0,0.0,0.0,0.0,0.0,0.0,0.0,0.0,0.0,0.0,0.0,0.0,0.0,0.0,0.0,0.0,0.0,0.0,0.0,0.0,0.0,0.0,0.0,0.0,0.0,0.0,0.0,0.0,0.0,0.0,0.0,0.0,0.0,0.0,0.0,0.0,0.0,0.0,0.0,0.0,0.0,0.0,0.0,0.0,0.0,0.0,0.0,0.0,0.0,0.0,0.0,0.0,0.0,0.0,0.0,0.0,0.0,0.0,0.0,0.0,0.0,0.0,0.0,0.0,0.0,0.0,0.0,0.0,0.0,0.0,0.0,0.0,0.0,0.0,0.0,0.0,0.0,0.0,0.0,0.0,0.0,0.0,0.0,0.0,0.0,0.0,0.0,0.0,0.0,0.0,0.0,0.0,0.0,0.0,0.0,0.0,0.0,0.0,0.0,0.0,0.0,0.0,0.0,0.0,0.0,0.0,0.0,0.0,0.0,0.0,0.0,0.0,0.0,0.0,0.0,0.0,0.0,0.0,0.0,0.0,0.0,0.0,0.0,0.0,0.0,0.0,0.0,0.0,0.0,0.0,0.0,0.0,0.0,0.0,0.0,0.0,0.0,0.0,0.0,0.0,0.0,0.0,0.0,0.0,0.0,0.0,0.0,0.0,0.0,0.0,0.0,0.0,0.0,0.0,0.0,0.0,0.0,0.0,0.0,0.0,0.0,0.0,0.0,0.0,0.0,0.0,0.0,0.0,0.0,0.0,0.0,0.0,0.0,0.0,0.0,0.0,0.0,0.0,0.0,0.0,0.0,0.0,0.0,0.0,0.0,0.0,0.0,0.0,0.0,0.0,0.0,0.0,0.0,0.0,0.0,0.0,0.0,0.0,0.0,0.0,0.0,0.0,0.0,0.0,0.0,0.0,0.0,0.0,0.0,0.0,0.0,0.0,0.0,0.0,0.0,0.0,0.0,0.0,0.0,0.0,0.0,0.0,0.0,0.0,0.0,0.0,0.0,0.0,0.0,0.0,0.0,0.0,0.0,0.0,0.0,0.0,0.0,0.0,0.0,0.0,0.0,0.0,0.0,0.0,0.0,0.0,0.0,0.0,0.0,0.0,0.0,0.0,0.0,0.0,0.0,0.0,0.0,0.0,0.0,0.0,0.0,0.0,0.0,0.0,0.0,0.0,0.0,0.0,0.0,0.0,0.0,0.0,0.0,0.0,0.0,0.0,0.0,0.0,0.0,0.0,0.0,0.0,0.0,0.0,0.0,0.0,0.0,0.0,0.0,0.0,0.0,0.0,0.0,0.0,0.0,0.0,0.0,0.0,0.0,0.0,0.0,0.0,0.0,0.0,0.0,0.0,0.0,0.0,0.0,0.0,0.0,0.0,0.0,0.0,0.0,0.0,0.0,0.0,0.0,0.0,0.0,0.0,0.0,0.0,0.0,0.0,0.0,0.0,0.0,0.0,0.0,0.0,0.0,0.0,0.0,0.0,0.0,0.0,0.0,0.0,0.0,0.0,0.0,0.0,0.0,0.0,0.0,0.0,0.0,0.0,0.0,0.0,0.0,0.0,0.0,0.0,0.0,0.0,0.0,0.0,0.0,0.0,0.0,0.0,0.0,0.0,0.0,0.0,0.0,0.0,0.0,0.0,0.0,0.0,0.0,0.0,0.0,0.0,0.0,0.0,0.0,0.0,0.0,0.0,0.0,0.0,0.0,0.0,0.0,0.0,0.0,0.0,0.0,0.0,0.0,0.0,0.0,0.0,0.0,0.0,0.0,0.0,0.0,0.0,0.0,0.0,0.0,0.0,0.0,0.0,0.0,0.0,0.0,0.0,0.0,0.0,0.0,0.0,0.0,0.0,0.0,0.0,0.0,0.0,0.0,0.0,0.0,0.0,0.0,0.0,0.0,0.0,0.0,0.0,0.0,0.0,0.0,0.0,0.0,0.0,0.0,0.0,0.0,0.0,0.0,0.0,0.0,0.0,0.0,0.0,0.0,0.0,0.0,0.0,0.0,0.0,0.0,0.0,0.0,0.0,0.0,0.0,0.0,0.0,0.0,0.0,0.0,0.0,0.0,0.0,0.0,0.0,0.0,0.0,0.0,0.0,0.0,0.0,0.0,0.0,0.0,0.0,0.0,0.0,0.0,0.0,0.0,0.0,0.0,0.0,0.0,0.0,0.0,0.0,0.0,0.0,0.0,0.0,0.0,0.0,0.0,0.0,0.0,0.0,0.0,0.0,0.0,0.0,0.0,0.0,0.0,0.0,0.0,0.0,0.0,0.0,0.0,0.0,0.0,0.0,0.0,0.0,0.0,0.0,0.0,0.0,0.0,0.0,0.0,0.0,0.0,0.0,0.0,0.0,0.0,0.0,0.0,0.0,0.0,0.0,0.0,0.0,0.0,0.0,0.0,0.0,0.0,0.0,0.0,0.0,0.0,0.0,0.0,0.0,0.0,0.0,0.0,0.0,0.0,0.0,0.0,0.0,0.0,0.0,0.0,0.0,0.0,0.0,0.0,0.0,0.0,0.0,0.0,0.0,0.0,0.0,0.0,0.0,0.0,0.0,0.0,0.0,0.0,0.0,0.0,0.0,0.0,0.0,0.0,0.0,0.0,0.0,0.0,0.0,0.0,0.0,0.0,0.0,0.0,0.0,0.0,0.0,0.0,0.0,0.0,0.0,0.0,0.0,0.0,0.0,0.0,0.0,0.0,0.0,0.0,0.0,0.0,0.0,0.0,0.0,0.0,0.0,0.0,0.0,0.0,0.0,0.0,0.0,0.0,0.0,0.0,0.0,0.0,0.0,0.0,0.0,0.0,0.0,0.0,0.0,0.0,0.0,0.0,0.0,0.0,0.0,0.0,0.0,0.0,0.0,0.0,0.0,0.0,0.0,0.0,0.0,0.0,0.0,0.0,0.0,0.0,0.0,0.0,0.0,0.0,0.0,0.0,0.0,0.0,0.0,0.0,0.0,0.0,0.0,0.0,0.0,0.0,0.0,0.0,0.0,0.0,0.0,0.0,0.0,0.0,0.0,0.0,0.0,0.0,0.0,0.0,0.0,0.0,0.0,0.0,0.0]}]]]